[[[{"header":{"parameterUnit":"kt","parameterCategory":2,"dx":1,"dy":1,"la1":29.285339999999998,"la2":30.599998999999997,"lo1":-89.70041500000002,"lo2":-87.6738589999976,"nx":112,"ny":82,"refTime":"2022-09-26T12:00:00:Z","depth":0,"parameterNumber":1,"parameterNumberName":"U-component_of_WINDS"},"data":[20.4913,20.3343,20.2344,20.6656,20.7227,20.7951,21.2079,21.3781,21.4606,21.5198,21.6186,0.0,0.0,0.0,0.0,0.0,0.0,0.0,0.0,20.899,20.8717,20.9112,20.9588,20.9736,20.9375,21.069,21.1314,21.0657,21.2679,21.4011,21.4372,21.6197,21.7695,21.8633,21.929,22.0588,22.2956,22.2,22.2772,22.5121,22.5121,22.5928,22.7261,22.6849,22.8576,23.1751,23.1356,23.2145,23.3892,23.3892,23.3892,23.3892,23.3892,23.3892,23.3892,23.3892,23.3892,23.3892,23.3892,23.3892,23.4005,23.5565,23.6993,23.8308,23.9868,24.1558,24.3569,24.5147,24.4733,24.449,24.712,24.6745,24.6068,24.8396,24.9054,24.9448,25.0783,25.1197,25.1197,25.1197,25.1197,25.2118,25.4839,25.5365,25.6417,25.9483,26.0666,26.0929,26.0029,25.9877,25.9877,25.9877,25.9877,25.9877,25.9877,25.9877,25.9877,25.9877,26.0929,26.1961,26.3601,26.6321,26.8405,27.0046,27.3292,27.5002,27.5002,27.6448,27.7128,27.7128,27.7128,27.7128,20.318,20.1621,20.0775,20.5657,20.636,20.7074,21.0663,21.264,21.3628,21.3047,0.0,0.0,0.0,0.0,0.0,0.0,0.0,0.0,0.0,20.7172,20.7944,20.8421,20.8569,20.8323,20.7796,20.949,21.0542,20.9983,21.2268,21.3829,21.4372,21.5819,21.6888,21.7958,21.794,21.9238,22.2132,22.1194,22.2228,22.5121,22.5121,22.5683,22.6454,22.606,22.762,23.0943,23.0567,23.1769,23.3892,23.3892,23.3892,23.3892,23.3892,23.3892,23.3892,23.3892,23.3892,23.3892,23.3892,23.3892,23.4024,23.5057,23.6617,23.8327,23.9229,24.0788,24.2385,24.2385,24.2385,24.2629,24.372,24.3964,24.4753,24.7646,24.8284,24.881,25.0802,25.1197,25.1197,25.1197,25.1197,25.2118,25.4839,25.5365,25.6154,25.8673,26.0251,26.1102,26.0029,25.9877,25.9877,25.9877,25.9877,25.9877,25.9877,25.9877,25.9877,25.9877,25.9877,26.0514,26.2023,26.3823,26.5927,26.8468,27.134,27.3533,27.5002,27.6075,27.6755,27.7128,27.658,27.6755,20.1233,20.0785,20.0775,20.5657,20.5473,20.475,20.6656,20.8226,20.8797,0.0,0.0,0.0,0.0,0.0,0.0,0.0,0.0,0.0,0.0,20.6002,20.7269,20.5856,20.5692,20.6218,20.755,21.0295,21.1496,21.0147,21.3995,21.5819,21.4339,21.5705,21.6494,21.6494,21.6494,21.7923,22.0817,22.0799,22.2228,22.5121,22.5121,22.5104,22.5271,22.6436,22.8032,22.976,23.1093,23.254,23.3892,23.3892,23.3892,23.3892,23.3892,23.3892,23.3892,23.3892,23.3892,23.3892,23.3892,23.3892,23.3892,23.3892,23.5847,23.8064,23.8064,24.0018,24.2385,24.2385,24.2385,24.2385,24.2385,24.2385,24.3175,24.6087,24.6896,24.7666,25.0388,25.1217,25.1217,25.1197,25.1197,25.2138,25.4839,25.5365,25.6043,25.7378,25.8957,25.9857,25.9877,25.9877,25.9877,25.9877,25.9877,25.9877,25.9877,25.9877,25.9877,25.9877,25.9877,26.0535,26.185,26.2023,26.3975,26.8184,26.8468,27.0551,27.4848,27.4848,27.5637,27.6974,27.5659,27.5812,20.1355,20.0785,20.0775,20.5657,20.5473,20.5321,20.9357,0.0,0.0,0.0,21.3057,0.0,0.0,0.0,0.0,0.0,0.0,21.0383,20.9909,20.7858,20.5607,20.4303,20.5051,20.5824,20.6218,20.7961,20.9408,20.9884,21.2137,21.3583,21.4372,21.4767,21.5408,21.6494,21.6494,21.7923,22.0817,22.0799,22.2228,22.5121,22.5121,22.5665,22.6586,22.6077,22.762,23.1093,23.0399,23.147,23.3892,23.3892,23.3892,23.3892,23.3892,23.3892,23.3892,23.3892,23.3892,23.3892,23.3892,23.3892,23.3892,23.3892,23.5847,23.8064,23.8064,24.0018,24.2385,24.2385,24.2385,24.2385,24.2385,24.2385,24.2931,24.4904,24.5279,24.6068,24.8942,24.9599,25.0013,25.0934,25.1197,25.1723,25.3413,25.5669,25.7136,25.753,25.9725,26.1061,26.014,25.9877,25.9877,25.9877,25.9877,25.9877,25.9877,25.9877,25.9877,25.9877,25.9877,26.014,26.0535,26.1476,26.3034,26.5401,26.7416,26.9631,27.1802,27.2897,27.4059,27.5659,27.5265,27.5265,20.0795,20.0357,20.0632,20.4627,20.4067,20.3466,20.8348,0.0,21.0948,0.0,0.0,0.0,0.0,0.0,0.0,0.0,21.1059,20.9001,20.6994,20.6057,20.4818,20.2938,20.3867,20.4624,20.4624,20.7155,20.8832,20.8947,21.1644,21.3435,21.4372,21.503,21.5705,21.6494,21.6494,21.7923,22.0817,22.0799,22.2228,22.5121,22.5121,22.5516,22.6305,22.5516,22.7261,23.068,22.9891,23.1057,23.3892,23.3892,23.3892,23.3892,23.3892,23.3892,23.3892,23.3892,23.3892,23.3892,23.3892,23.3892,23.3892,23.3892,23.5847,23.8064,23.8064,24.0018,24.2385,24.2385,24.2385,24.2385,24.2385,24.2385,24.278,24.4339,24.4733,24.5259,24.7646,24.8547,24.9185,25.0145,25.0802,25.1309,25.2269,25.4222,25.582,25.582,25.8319,25.9898,25.9108,25.9483,25.9877,25.9877,25.9877,25.9877,25.9877,25.9877,25.9877,25.9877,25.9877,25.9877,25.9877,26.0666,26.185,26.3144,26.5532,26.7637,26.9588,27.1188,27.2371,27.3117,27.3839,27.4476,0.0,0.0,0.0,0.0,20.1916,0.0,20.58,0.0,20.7165,20.8199,0.0,21.3606,21.4615,0.0,0.0,20.873,20.8394,20.6695,20.098,20.317,20.4246,20.1779,20.2715,20.3505,20.3505,20.6975,20.8931,20.8224,21.189,21.4224,21.4355,21.5819,21.6494,21.6494,21.6494,21.7923,22.0817,22.0799,22.2228,22.5121,22.5121,22.5121,22.5121,22.5121,22.6681,22.961,22.961,23.1057,23.3892,23.3892,23.3892,23.3892,23.3892,23.3892,23.3892,23.3892,23.3892,23.3892,23.3892,23.3892,23.3892,23.3892,23.5584,23.7688,23.7914,24.0018,24.2385,24.2385,24.2385,24.2385,24.2385,24.2385,24.278,24.4095,24.449,24.4884,24.6462,24.789,24.8791,24.9205,25.0408,25.1197,25.1197,25.2249,25.3321,25.3321,25.584,25.751,25.751,25.8957,25.9877,25.9877,25.9877,25.9877,25.9877,25.9877,25.9877,25.9877,25.9877,25.9877,25.9877,25.9877,26.0514,26.2023,26.3407,26.5532,26.8205,26.9588,27.0399,27.0377,27.1955,27.327,0.0,0.0,0.0,0.0,0.0,20.2354,0.0,0.0,0.0,20.4265,20.7382,20.9426,20.6266,20.6888,20.8018,20.9346,20.4928,20.2403,20.5867,20.3884,20.201,20.1352,20.2715,20.3505,20.3505,20.5282,20.7402,20.9342,21.1479,21.3222,21.4372,21.5819,21.6494,21.6494,21.6494,21.7923,22.0817,22.0799,22.2228,22.5121,22.5121,22.5121,22.5121,22.5121,22.6681,22.961,22.961,23.1057,23.3892,23.3892,23.3892,23.3892,23.3892,23.3892,23.3892,23.3892,23.3892,23.3892,23.3892,23.3892,23.3892,23.3892,23.4287,23.5039,23.7388,24.0018,24.2385,24.2385,24.2385,24.2385,24.2385,24.2385,24.2366,24.278,24.2761,24.3569,24.635,24.6989,24.806,25.0428,25.0914,25.1197,25.1197,25.2249,25.3321,25.3321,25.584,25.751,25.751,25.8957,25.9877,25.9877,25.9877,25.9877,25.9877,25.9877,25.9877,25.9877,25.9877,25.9877,25.9877,25.9877,26.0514,26.2023,26.3407,26.4965,26.6716,26.8205,26.8841,26.882,27.1604,27.2393,0.0,0.0,0.0,20.2772,0.0,0.0,0.0,20.6218,20.5413,20.502,20.6783,20.7728,20.5822,20.4938,20.5079,20.6442,20.32,20.1059,20.3369,20.1791,20.0579,20.1384,20.3357,20.4672,20.4672,20.5824,20.7418,20.8701,21.0953,21.3222,21.5441,21.6099,21.6494,21.6494,21.6494,21.7923,22.0817,22.0799,22.2228,22.5121,22.5121,22.5121,22.5121,22.5121,22.6681,22.961,22.961,23.1057,23.3892,23.3892,23.3892,23.3892,23.3892,23.3892,23.3892,23.3892,23.3892,23.3892,23.3892,23.3892,23.3892,23.3892,23.3892,23.4268,23.6336,23.8571,24.0714,24.1991,24.2385,24.2385,24.2385,24.2385,24.2385,24.2385,24.2385,24.3043,24.5298,24.6331,24.7515,24.958,25.05,25.1197,25.1197,25.1723,25.2098,25.2098,25.411,25.5669,25.6438,25.7753,25.9108,25.9898,25.9877,25.9877,25.9877,25.9877,25.9877,25.9877,25.9877,25.9877,25.9877,25.9877,26.0292,26.0909,26.2397,26.3802,26.5269,26.6716,26.7637,26.8426,27.064,27.1319,0.0,0.0,0.0,0.0,0.0,0.0,20.5086,20.5198,20.5107,20.6099,20.6407,20.6467,20.5717,20.3679,20.2109,20.2219,20.1246,20.0174,19.9507,19.948,20.0169,20.1615,20.4114,20.584,20.6071,20.7172,20.7813,20.7813,21.0575,21.3469,21.6345,21.6494,21.6494,21.6494,21.6494,21.7923,22.0817,22.0799,22.2228,22.5121,22.5121,22.5121,22.5121,22.5121,22.6681,22.961,22.961,23.1057,23.3892,23.3892,23.3892,23.3892,23.3892,23.3892,23.3892,23.3892,23.3892,23.3892,23.3892,23.3892,23.3892,23.3892,23.3892,23.3987,23.5565,23.6993,23.8722,24.1202,24.2254,24.2385,24.2385,24.2385,24.2385,24.2385,24.2629,24.3325,24.4733,24.6331,24.7627,24.9205,25.0388,25.1197,25.1197,25.1197,25.1197,25.1197,25.2249,25.3696,25.4859,25.6609,25.7884,25.9351,25.9725,25.9877,25.9877,25.9877,25.9877,25.9877,25.9877,25.9877,25.9877,25.9877,25.9877,25.9877,26.1081,26.2376,26.4176,26.5159,26.6321,26.8052,26.9872,27.0356,0.0,0.0,0.0,0.0,19.8787,0.0,20.2364,20.4658,20.5861,20.3659,20.3469,20.2347,19.8624,19.7889,19.7926,19.7823,19.7746,19.784,19.9016,20.0447,20.1794,20.3094,20.464,20.6235,20.7402,20.7846,20.7813,20.7813,21.0575,21.3469,21.6345,21.6494,21.6494,21.6494,21.6494,21.7923,22.0817,22.0799,22.2228,22.5121,22.5121,22.5121,22.5121,22.5121,22.6681,22.961,22.961,23.1057,23.3892,23.3892,23.3892,23.3892,23.3892,23.3892,23.3892,23.3892,23.3892,23.3892,23.3892,23.3892,23.3892,23.3892,23.3892,23.3987,23.5565,23.6993,23.8459,23.9999,24.1446,24.2385,24.2385,24.2385,24.2385,24.2385,24.3399,24.4904,24.6331,24.7797,24.9205,25.052,25.0914,25.1197,25.1197,25.1197,25.1197,25.1197,25.2249,25.3301,25.3453,25.58,25.7621,25.7753,25.9088,25.9877,25.9877,25.9877,25.9877,25.9877,25.9877,25.9877,25.9877,25.9877,25.9877,25.9877,26.014,26.1435,26.4176,26.3013,26.3975,26.6737,26.9346,26.983,0.0,0.0,19.7512,19.8644,0.0,0.0,20.4362,20.5789,20.6287,20.4306,20.4139,20.2962,19.8647,19.728,19.6902,19.7089,19.7832,19.8428,19.9248,20.1221,20.2978,20.352,20.5429,20.7155,20.7829,20.7813,20.7813,20.7813,21.0575,21.2844,21.4011,21.5556,21.6494,21.6494,21.6494,21.7546,21.9502,22.0439,22.1851,22.3991,22.4744,22.5121,22.5121,22.5121,22.6323,22.8164,22.9234,23.0699,23.269,23.3479,23.3892,23.3892,23.3892,23.3892,23.3892,23.3892,23.3892,23.3892,23.3892,23.3892,23.3892,23.3892,23.3892,23.4024,23.4681,23.6373,23.8346,23.8853,24.0676,24.2385,24.2385,24.3024,24.3701,24.3701,24.4884,24.6312,24.7778,24.8547,24.9448,25.0954,25.1197,25.1197,25.1197,25.1197,25.1197,25.1197,25.1743,25.2249,25.3038,25.4222,25.5648,25.7378,25.8167,25.8957,25.9877,25.9877,25.9877,25.9877,25.9877,25.9877,25.9877,25.9877,25.9877,25.9877,25.9877,26.0514,26.1698,26.185,26.3013,26.5117,26.8052,26.8973,19.1927,0.0,0.0,0.0,0.0,0.0,20.4362,20.6228,20.7035,20.5724,20.5324,20.3952,20.0054,19.8341,19.7309,19.7685,19.8606,19.9232,19.9232,20.1779,20.3505,20.3505,20.6119,20.7813,20.7813,20.7813,20.7813,20.7813,21.0575,21.2301,21.2301,21.5047,21.6494,21.6494,21.6494,21.7317,21.8633,22.001,22.1623,22.2938,22.4315,22.5121,22.5121,22.5121,22.591,22.7225,22.8989,22.9891,23.0549,23.2427,23.3216,23.3198,23.3611,23.3892,23.3892,23.3892,23.3892,23.3892,23.3892,23.3892,23.3892,23.3892,23.3892,23.3892,23.3892,23.5828,23.8064,23.8064,24.03,24.2385,24.2385,24.3569,24.4904,24.5298,24.6482,24.7797,24.881,24.9336,25.0013,25.0934,25.1197,25.1197,25.1197,25.1197,25.1197,25.1197,25.1197,25.1592,25.2512,25.3078,25.411,25.6215,25.7136,25.7884,25.9068,25.9746,25.9877,25.9877,25.9877,25.9877,25.9877,25.9877,25.9877,25.9877,25.9877,25.9877,25.9877,26.0929,26.2265,26.3539,26.6058,26.7637,0.0,0.0,0.0,19.2498,19.6341,19.9613,19.9776,20.4658,20.8644,20.6992,20.5805,20.4082,20.1251,19.9688,19.8916,19.9073,19.9232,19.9232,19.9232,20.1779,20.3505,20.3505,20.6119,20.7813,20.7813,20.7813,20.7813,20.7813,21.0575,21.2301,21.2301,21.5047,21.6494,21.6494,21.6494,21.7317,21.8633,22.001,22.1623,22.2938,22.4315,22.5121,22.5121,22.5121,22.591,22.7225,22.8989,22.8839,22.7656,23.0567,23.1733,23.1882,23.3198,23.3892,23.3892,23.3892,23.3892,23.3892,23.3892,23.3892,23.3892,23.3892,23.3892,23.3892,23.3892,23.5828,23.8064,23.8064,24.03,24.2385,24.2385,24.3569,24.5147,24.6482,24.789,24.8942,24.9054,25.0145,25.1197,25.1197,25.1197,25.1197,25.1197,25.1197,25.1197,25.1197,25.1197,25.1197,25.1177,25.2552,25.3321,25.3473,25.578,25.751,25.7621,25.9108,25.9877,25.9877,25.9877,25.9877,25.9877,25.9877,25.9877,25.9877,25.9877,25.9877,25.9877,25.9857,26.0666,26.2154,26.3539,26.5774,19.1366,19.2651,19.423,19.7931,19.9205,20.0337,20.3649,20.5219,20.6054,20.6646,20.6482,20.5449,20.276,20.3337,20.355,20.08,20.1213,20.1326,19.9398,20.1779,20.3505,20.3505,20.6119,20.7813,20.7813,20.7813,20.7813,20.7813,21.0575,21.2301,21.2301,21.5047,21.6494,21.6494,21.6494,21.6757,21.73,21.8747,22.0028,22.1606,22.2921,22.4069,22.5121,22.5121,22.5235,22.591,22.7393,22.8463,22.8971,23.0962,23.2295,23.3234,23.3611,23.3892,23.3892,23.3892,23.3892,23.3892,23.3892,23.3892,23.3892,23.3892,23.3892,23.3892,23.3892,23.5189,23.7012,23.7951,23.9492,24.1446,24.3418,24.4358,24.5259,24.7607,24.9336,25.0369,25.0369,25.0783,25.1197,25.1197,25.1197,25.1197,25.1197,25.1197,25.1197,25.1197,25.1197,25.1197,25.1197,25.1592,25.2289,25.3038,25.409,25.5406,25.7378,25.7884,25.8673,25.9877,25.9877,25.9877,25.9877,25.9877,25.9877,25.9877,25.9877,25.9877,25.9877,25.9877,26.0687,26.2002,26.268,26.437,19.1509,19.2936,19.4934,19.8664,19.9653,20.0632,20.4362,20.5056,20.5484,20.6656,20.6799,20.6204,20.4164,20.4663,20.4723,20.1523,20.1593,20.122,19.9382,20.1205,20.2962,20.352,20.5593,20.727,20.7813,20.7813,20.7813,20.7813,21.0065,21.1627,21.2318,21.4372,21.5951,21.6494,21.6494,21.6494,21.6494,21.794,21.9405,22.0799,22.2114,22.371,22.5121,22.5121,22.5121,22.5104,22.606,22.7225,22.8821,23.0286,23.1733,23.3066,23.3629,23.3892,23.3892,23.3892,23.3892,23.3892,23.3892,23.3892,23.3892,23.3892,23.3892,23.3892,23.3892,23.4776,23.6354,23.767,23.9492,24.1577,24.4095,24.5542,24.6687,24.8679,25.0145,25.1197,25.1197,25.1197,25.1197,25.1197,25.1197,25.1197,25.1197,25.1197,25.1197,25.1197,25.1197,25.1197,25.1197,25.1197,25.146,25.2552,25.2907,25.411,25.58,25.6984,25.7884,25.8936,25.9462,25.9877,25.9877,25.9877,25.9877,25.9877,25.9877,25.9877,25.9877,25.9877,26.0251,26.1192,26.1891,26.3054,19.0386,19.1652,19.3202,19.4781,19.7502,20.0061,20.1794,20.4505,20.6646,20.6799,20.6799,20.6409,20.5252,20.3919,20.2712,20.1439,20.0244,19.9436,19.9248,20.0416,20.191,20.3357,20.4935,20.6218,20.7665,20.7813,20.7813,20.7813,20.9112,21.069,21.2318,21.3583,21.5013,21.6494,21.6494,21.6494,21.6494,21.7958,21.9256,22.0834,22.2149,22.3561,22.4841,22.5121,22.5121,22.5121,22.5121,22.591,22.7375,22.8971,23.0567,23.1864,23.3198,23.3892,23.3892,23.3892,23.3892,23.3892,23.3892,23.3892,23.3892,23.3892,23.3892,23.3892,23.3892,23.4794,23.6204,23.767,24.0018,24.261,24.4339,24.6818,24.9054,24.9034,25.0125,25.1197,25.1197,25.1197,25.1197,25.1197,25.1197,25.1197,25.1197,25.1197,25.1197,25.1197,25.1197,25.1197,25.1197,25.1197,25.1197,25.1197,25.2249,25.3341,25.3321,25.58,25.753,25.751,25.9108,25.9877,25.9877,25.9877,25.9877,25.9877,25.9877,25.9877,25.9877,25.9877,25.9877,25.9857,26.1192,26.2023,19.1071,19.4078,19.6523,19.8073,19.9062,20.0347,20.3201,20.4332,20.5331,20.6656,20.6799,20.6603,20.6456,20.6199,20.5268,20.2954,20.2362,20.1611,19.9429,20.0416,20.191,20.3357,20.4935,20.6218,20.7665,20.7813,20.7813,20.7813,20.9112,21.069,21.2318,21.3583,21.5013,21.6494,21.6494,21.6494,21.6494,21.6905,21.766,21.9273,22.0668,22.2149,22.3579,22.4446,22.5121,22.5121,22.5121,22.6586,22.8953,22.9347,23.1111,23.3198,23.3611,23.3892,23.3892,23.3892,23.3892,23.3892,23.3892,23.3892,23.3892,23.3892,23.3892,23.3892,23.3892,23.4005,23.4776,23.7388,23.9511,24.1558,24.5279,24.7627,24.9165,25.0388,25.0934,25.1197,25.1197,25.1197,25.1197,25.1197,25.1197,25.1197,25.1197,25.1197,25.1197,25.1197,25.1197,25.1197,25.1197,25.1197,25.1197,25.1197,25.148,25.2138,25.321,25.4859,25.6438,25.753,25.9108,25.9877,25.9877,25.9877,25.9877,25.9877,25.9877,25.9877,25.9877,25.9877,25.9877,25.9877,26.0272,26.1081,19.051,19.3944,19.6523,19.735,19.9062,20.1223,20.2925,20.4332,20.5626,20.6646,20.6799,20.6799,20.6799,20.6413,20.544,20.3306,20.2515,20.1566,19.9407,20.0053,20.0958,20.242,20.3883,20.5298,20.6597,20.7402,20.7813,20.7813,20.8586,20.9786,21.1084,21.2679,21.4275,21.5556,21.6214,21.6494,21.6494,21.6494,21.6888,21.7677,21.9273,22.0983,22.2938,22.3692,22.4087,22.4069,22.4876,22.6849,22.961,22.961,23.1374,23.3892,23.3892,23.3892,23.3892,23.3892,23.3892,23.3892,23.3892,23.3892,23.3892,23.3892,23.3892,23.3892,23.3892,23.3892,23.44,23.7294,23.9642,24.1953,24.5956,24.8435,25.0125,25.0914,25.1197,25.1197,25.1197,25.1197,25.1197,25.1197,25.1197,25.1197,25.1197,25.1197,25.1197,25.1197,25.1197,25.1197,25.1197,25.1197,25.1197,25.1197,25.1197,25.148,25.2269,25.3696,25.4991,25.6589,25.8016,25.9068,25.9877,25.9877,25.9877,25.9877,25.9877,25.9877,25.9877,25.9877,25.9877,25.9877,25.9877,26.0251,18.9235,19.2375,19.4934,19.5219,19.8654,20.1936,20.1936,20.4505,20.6799,20.6799,20.6799,20.6799,20.6799,20.5463,20.3916,20.2678,20.1356,20.0277,19.9096,19.9085,19.9774,20.1221,20.2715,20.4146,20.5413,20.7024,20.7813,20.7813,20.7813,20.8323,20.9884,21.1512,21.2794,21.4372,21.5819,21.6494,21.6494,21.6494,21.6494,21.6494,21.7677,21.9816,22.2412,22.2412,22.2544,22.2921,22.4481,22.6849,22.961,22.9742,23.1506,23.3892,23.3892,23.3892,23.3892,23.3892,23.3892,23.3892,23.3892,23.3892,23.3892,23.3892,23.3892,23.3892,23.3892,23.3892,23.44,23.7294,24.0037,24.2761,24.6087,24.883,25.0934,25.1197,25.1197,25.1197,25.1197,25.1197,25.1197,25.1197,25.1197,25.1197,25.1197,25.1197,25.1197,25.1197,25.1197,25.1197,25.1197,25.0914,25.0934,25.1197,25.0914,25.0934,25.1197,25.2532,25.3847,25.4991,25.6569,25.8167,25.9462,25.9725,25.9877,25.9877,25.9877,25.9877,25.9877,25.9877,25.9877,25.9877,25.9877,25.9877,18.8227,19.1652,19.5381,19.6513,19.9367,20.1936,20.1936,20.4505,20.6799,20.6799,20.6799,20.6799,20.6799,20.3942,20.1378,20.1183,19.9269,19.7676,19.75,19.8443,19.9774,20.1221,20.2715,20.4146,20.5413,20.7024,20.7813,20.7813,20.7813,20.8323,20.9884,21.1512,21.2794,21.4372,21.5819,21.6494,21.6494,21.6494,21.6494,21.6494,21.674,21.766,21.9422,21.9422,22.0554,22.2921,22.4481,22.6849,22.9592,23.0962,23.2277,23.3892,23.3892,23.3892,23.3892,23.3892,23.3892,23.3892,23.3892,23.3892,23.3892,23.3892,23.3892,23.3892,23.3892,23.3892,23.44,23.7294,23.9342,24.1577,24.5654,24.8021,24.958,25.0954,25.1197,25.1197,25.1197,25.1197,25.1197,25.1197,25.1197,25.1197,25.1197,25.1197,25.1197,25.1197,25.1197,25.1197,25.1197,25.0145,24.9843,25.0914,25.0145,24.9843,25.0914,25.2532,25.3473,25.3716,25.6215,25.7793,25.7904,25.9068,25.9877,25.9877,25.9877,25.9877,25.9877,25.9877,25.9877,25.9877,25.9877,25.9877,18.7799,19.1366,19.4801,19.3811,19.6513,19.9958,20.1508,20.3771,20.5789,20.6646,20.6799,20.6799,20.6799,20.5272,20.3676,20.3173,20.1444,19.9819,19.9181,19.9248,19.948,20.0169,20.1647,20.2946,20.4541,20.584,20.7024,20.7829,20.7813,20.8224,20.8701,21.0312,21.1725,21.3205,21.4618,21.5819,21.6494,21.6494,21.6494,21.6494,21.6494,21.6905,21.7546,21.7546,21.9107,22.2018,22.3298,22.5683,22.8427,23.0023,23.1506,23.284,23.3461,23.3892,23.3892,23.3892,23.3892,23.3892,23.3892,23.3892,23.3892,23.3892,23.3892,23.3892,23.3892,23.3892,23.425,23.6336,23.8534,24.0901,24.3701,24.6687,24.9205,24.9843,24.9974,25.0125,25.0914,25.1197,25.1197,25.1197,25.1197,25.1197,25.1197,25.1197,25.1197,25.1197,25.1197,25.1197,25.1197,25.0539,25.0145,24.9974,25.0145,25.0145,24.9974,25.1329,25.2532,25.3341,25.4657,25.6063,25.753,25.8299,25.8694,25.8694,25.9483,25.9877,25.9877,25.9877,25.9877,25.9877,25.9877,25.9877,18.7504,19.1223,19.3802,19.0957,19.3526,19.7665,20.1223,20.2925,20.4342,20.5912,20.6656,20.6799,20.6799,20.6417,20.5618,20.4522,20.2773,20.133,20.0638,19.9381,19.8838,19.9232,20.0579,20.1894,20.3357,20.4935,20.6202,20.7665,20.7813,20.7813,20.7813,20.9227,21.069,21.2318,21.3583,21.5178,21.6494,21.6494,21.6494,21.6494,21.6494,21.6494,21.6494,21.6494,21.766,22.0028,22.2,22.4499,22.7393,22.9216,23.0962,23.2295,23.3497,23.3892,23.3892,23.3892,23.3892,23.3892,23.3892,23.3892,23.3892,23.3892,23.3892,23.3892,23.3892,23.3892,23.4287,23.5547,23.7745,24.0281,24.1991,24.5279,24.8002,24.8002,24.8547,24.9336,25.0369,25.0934,25.1197,25.1197,25.1197,25.1197,25.1197,25.1197,25.1197,25.1197,25.1197,25.1197,25.1197,25.0954,25.0106,24.9205,24.975,25.0033,24.9034,24.9974,25.1329,25.2644,25.3058,25.4222,25.6609,25.6589,25.7004,25.751,25.8673,25.9462,25.9877,25.9877,25.9877,25.9877,25.9877,25.9877,18.7504,19.0358,19.2498,19.0672,19.2803,19.6361,20.0947,20.2089,20.2487,20.4342,20.5626,20.6799,20.6799,20.4837,20.3152,20.2912,19.9762,19.7685,19.8873,19.8112,19.767,19.9085,20.0579,20.1894,20.3357,20.4935,20.6202,20.7665,20.7813,20.7813,20.7813,20.9227,21.069,21.2318,21.3583,21.5178,21.6494,21.6494,21.6494,21.6494,21.6494,21.6494,21.6494,21.6494,21.6774,21.7134,22.1229,22.4499,22.7393,23.0304,23.2277,23.3611,23.3892,23.3892,23.3892,23.3892,23.3892,23.3892,23.3892,23.3892,23.3892,23.3892,23.3892,23.3892,23.3892,23.3892,23.4287,23.5547,23.7143,23.8834,24.1577,24.3701,24.5128,24.5128,24.7081,24.9054,24.9205,25.0125,25.1197,25.1197,25.1197,25.1197,25.1197,25.1197,25.1197,25.1197,25.1197,25.1197,25.1197,24.9994,24.9205,24.9054,24.806,24.7627,24.8771,24.9205,24.9843,25.1348,25.2512,25.3473,25.3716,25.3716,25.488,25.753,25.7793,25.8582,25.9877,25.9877,25.9877,25.9877,25.9877,25.9877,18.7513,19.0215,19.2213,19.0672,19.1947,19.4353,19.7074,19.8511,20.0234,20.3466,20.4913,20.5637,20.6646,20.5919,20.4717,20.2977,20.0789,19.898,19.8815,19.7847,19.7716,19.9101,19.979,20.0547,20.2173,20.3472,20.4903,20.6481,20.7254,20.7813,20.7813,20.8339,20.9375,21.097,21.2268,21.3863,21.5145,21.6099,21.6494,21.6494,21.6494,21.6494,21.6494,21.6494,21.6494,21.6774,21.9273,22.0983,22.2395,22.6998,22.9909,23.1506,23.3234,23.3892,23.3892,23.3892,23.3892,23.3892,23.3892,23.3892,23.3892,23.3892,23.3892,23.3892,23.3892,23.3892,23.4024,23.4681,23.6373,23.8308,23.9492,24.2235,24.4733,24.4733,24.5503,24.6818,24.8659,24.9448,25.0145,25.0914,25.1197,25.1197,25.1197,25.1197,25.1197,25.1197,25.1197,25.1197,25.1197,25.05,24.9599,24.789,24.8041,24.7627,24.6424,24.8021,24.9185,24.9843,25.1177,25.1966,25.1966,25.2947,25.3867,25.5051,25.6569,25.7925,25.8562,25.9503,25.9877,25.9877,25.9877,25.9877,18.737,18.9644,19.0929,18.9949,19.0795,19.2222,19.3374,19.4373,19.6513,20.1193,20.3333,20.4617,20.5922,20.6493,20.6292,20.4236,20.1769,20.0199,20.0026,19.7849,19.7144,19.9101,19.9232,19.9774,20.1221,20.2715,20.4146,20.5397,20.7024,20.7813,20.7813,20.7813,20.8438,20.9868,21.0936,21.24,21.4372,21.5424,21.6099,21.6494,21.6494,21.6494,21.6494,21.6494,21.6494,21.6608,21.7529,21.8352,21.901,22.3991,22.7656,23.0567,23.2821,23.3892,23.3892,23.3892,23.3892,23.3892,23.3892,23.3892,23.3892,23.3892,23.3892,23.3892,23.3892,23.3892,23.3892,23.3892,23.5997,23.8064,23.8064,24.0826,24.3569,24.3964,24.4339,24.5279,24.7213,24.8416,24.9356,25.0408,25.0954,25.1197,25.1197,25.1197,25.1197,25.1197,25.1197,25.1197,25.1197,25.1197,25.0125,24.7797,24.8041,24.7666,24.5542,24.7252,24.8567,24.9073,25.0388,25.0914,25.0539,25.1874,25.2927,25.3321,25.5274,25.6741,25.751,25.8714,25.9503,25.9877,25.9877,25.9877,18.7085,18.7941,18.7941,18.7941,18.9235,19.0386,19.0386,19.0386,19.1671,19.638,20.106,20.4322,20.4322,20.5626,20.6788,20.6768,20.2148,19.9682,20.2567,19.8266,19.5929,19.8822,19.9232,19.9774,20.1221,20.2715,20.4146,20.5397,20.7024,20.7813,20.7813,20.7813,20.8438,20.9868,20.9999,21.1298,21.4372,21.4355,21.5161,21.6494,21.6494,21.6494,21.6494,21.6494,21.6494,21.6494,21.6494,21.7283,21.8878,22.1755,22.649,23.1901,23.3216,23.3892,23.3892,23.3892,23.3892,23.3892,23.3892,23.3892,23.3892,23.3892,23.3892,23.3892,23.3892,23.3892,23.3892,23.3892,23.5997,23.8064,23.8064,23.9248,24.0638,24.1972,24.355,24.4733,24.4733,24.712,24.9054,24.9054,25.0125,25.1197,25.1197,25.1197,25.1197,25.1197,25.1197,25.1197,25.1197,25.1197,25.052,24.9205,24.7627,24.6876,24.6876,24.6876,24.7495,24.8961,25.0388,25.0539,24.9034,25.0388,25.1874,25.3341,25.3321,25.4616,25.751,25.751,25.8279,25.9877,25.9877,25.9877,18.5791,18.7941,18.9378,18.8227,18.8369,18.8655,18.8655,18.952,19.0672,19.2251,19.639,20.0347,20.3761,20.5626,20.6302,20.4291,20.1042,19.8643,19.8656,19.6279,19.555,19.7538,19.859,19.9495,19.9874,20.1221,20.2715,20.4146,20.5413,20.6761,20.7813,20.7813,20.7928,20.8438,20.9325,21.0377,21.1298,21.3452,21.4618,21.5178,21.6116,21.6494,21.6494,21.6494,21.6494,21.6494,21.6494,21.674,21.7283,21.9273,22.2316,22.6077,23.0735,23.3103,23.3892,23.3892,23.3892,23.3892,23.3892,23.3892,23.3892,23.3892,23.3892,23.3892,23.3892,23.3892,23.3892,23.3892,23.5171,23.7012,23.7951,23.906,24.0657,24.1972,24.278,24.3418,24.449,24.5542,24.6706,24.8659,24.9336,24.9994,25.0914,25.1197,25.1197,25.1197,25.1197,25.1197,25.1197,25.1197,25.0914,25.0539,24.8284,24.6482,24.5542,24.5259,24.5522,24.6068,24.7383,24.806,24.7666,24.806,24.881,25.0408,25.1329,25.2644,25.4637,25.5669,25.6812,25.8299,25.8299,25.8977,18.3499,18.622,18.8369,18.7361,18.7504,18.7799,18.7218,18.8369,18.952,19.0243,19.3098,19.6922,20.1611,20.4923,20.6049,20.3749,20.1636,19.9886,19.8517,19.7141,19.6509,19.7066,19.849,19.9232,19.9232,20.0579,20.1779,20.2552,20.4492,20.6071,20.7024,20.7386,20.7813,20.7813,20.8553,20.9342,20.9999,21.2416,21.36,21.36,21.5013,21.5951,21.6494,21.6494,21.6494,21.6494,21.6494,21.6494,21.6774,21.8089,22.0474,22.3316,22.7673,23.068,23.3084,23.3629,23.3892,23.3892,23.3892,23.3892,23.3892,23.3892,23.3892,23.3892,23.3892,23.3892,23.3892,23.3892,23.4757,23.6354,23.7782,23.906,24.0657,24.1972,24.2385,24.2629,24.355,24.4358,24.5279,24.7101,24.789,24.8679,25.0145,25.0408,25.0539,25.1217,25.1197,25.1197,25.1197,25.1197,25.1197,25.1197,24.9639,24.7646,24.5673,24.5542,24.5279,24.4733,24.5542,24.6087,24.6087,24.6633,24.7252,24.8172,24.8942,25.0559,25.2532,25.3261,25.4859,25.6832,25.7378,25.8188,18.0378,18.3214,18.564,18.5497,18.679,18.7656,18.621,18.6933,18.8369,18.9815,19.1366,19.3773,19.8339,20.3078,20.5922,20.4617,20.3281,20.2136,20.055,19.9376,19.8131,19.6887,19.808,19.9101,19.9232,20.0416,20.1205,20.1368,20.3966,20.5397,20.5676,20.7007,20.7813,20.7813,20.7813,20.8438,20.972,21.1347,21.2022,21.2022,21.3583,21.5178,21.6345,21.6494,21.6494,21.6494,21.6494,21.6494,21.6774,21.794,22.0211,22.2789,22.4332,22.7488,23.1506,23.3084,23.3892,23.3892,23.3892,23.3892,23.3892,23.3892,23.3892,23.3892,23.3892,23.3892,23.3892,23.3892,23.4794,23.6204,23.767,23.9097,24.0506,24.1972,24.2385,24.2385,24.2385,24.3569,24.4602,24.4753,24.5844,24.729,24.8679,24.8791,24.9336,25.0783,25.0914,25.0914,25.1197,25.1197,25.1197,25.1197,25.1197,24.9994,24.7271,24.6857,24.635,24.4714,24.4583,24.447,24.447,24.5956,24.6633,24.6725,24.6725,24.8041,25.0783,25.0934,25.2512,25.5254,25.6589,25.7378,17.8666,18.2224,18.5354,18.4088,18.5943,18.7941,18.7504,18.7656,18.8084,18.8369,18.9806,19.1509,19.3925,19.8054,20.2344,20.5637,20.3335,20.0215,19.7942,19.633,19.5137,19.3856,19.5024,19.6718,19.9101,19.9642,20.0169,20.1384,20.293,20.4525,20.5692,20.7007,20.7813,20.7813,20.7813,20.7944,20.8355,20.9753,21.0542,21.0542,21.3189,21.4618,21.503,21.5934,21.6494,21.6494,21.6494,21.6494,21.6477,21.6905,21.8089,21.9913,22.2377,22.4744,22.7094,23.098,23.2803,23.3892,23.3892,23.3892,23.3892,23.3892,23.3892,23.3892,23.3892,23.3892,23.3892,23.3892,23.4005,23.5076,23.7557,23.8308,23.9248,24.1859,24.2385,24.2385,24.2385,24.261,24.3325,24.449,24.4996,24.5673,24.712,24.7422,24.7909,24.9185,24.9619,25.0013,25.0914,25.1197,25.1197,25.1197,25.1197,25.0388,24.8659,24.7495,24.635,24.4714,24.355,24.2911,24.2911,24.3155,24.3944,24.5128,24.5298,24.6068,24.7778,24.8961,25.0369,25.2098,25.3716,25.5406,17.6079,18.0369,18.4365,18.3527,18.5667,18.7941,18.7941,18.7941,18.7941,18.7941,18.9235,19.0957,19.3364,19.52,19.8216,20.3649,20.2183,19.9807,19.7666,19.633,19.5123,19.3826,19.4908,19.6734,19.9101,19.9232,19.9642,20.0447,20.1779,20.3078,20.4672,20.6087,20.6991,20.7813,20.7813,20.7813,20.7813,20.8586,20.9375,20.9983,21.1429,21.3024,21.4355,21.5145,21.5968,21.6494,21.6494,21.6494,21.6494,21.6494,21.7266,21.8896,22.0457,22.2824,22.5235,22.7787,23.0585,23.2935,23.3629,23.3892,23.3892,23.3892,23.3892,23.3892,23.3892,23.3892,23.3892,23.3892,23.4231,23.5171,23.6749,23.8177,23.9492,24.1051,24.1991,24.2385,24.2385,24.2385,24.2629,24.3588,24.3531,24.4095,24.5693,24.5956,24.6312,24.7778,24.8547,24.9165,24.9974,25.0783,25.1197,25.1197,25.1197,25.0783,24.9974,24.8679,24.7252,24.5844,24.4377,24.3175,24.2366,24.2385,24.278,24.355,24.3531,24.4339,24.5956,24.6706,24.8002,25.0125,25.1743,25.3433,17.4064,17.8657,18.3393,18.3527,18.5801,18.7941,18.7941,18.7941,18.7941,18.7941,18.895,19.0814,19.3364,19.3354,19.4629,19.9633,20.0632,20.0071,19.8243,19.686,19.5587,19.4338,19.5581,19.7043,19.8691,19.9085,19.9232,19.9232,20.0579,20.201,20.352,20.4903,20.6202,20.7813,20.7813,20.7813,20.7813,20.7813,20.8323,20.9588,20.9703,21.1314,21.3846,21.4224,21.4996,21.6214,21.6511,21.6494,21.6494,21.6494,21.73,21.8335,21.865,22.0948,22.4464,22.4858,22.7638,23.1374,23.2803,23.3611,23.3892,23.3892,23.3892,23.3892,23.3892,23.3892,23.3892,23.3892,23.4626,23.5828,23.5941,23.7895,24.0018,24.0262,24.1465,24.2385,24.2385,24.2385,24.2385,24.2385,24.2385,24.2761,24.4095,24.4339,24.4904,24.6331,24.7646,24.8416,24.8659,25.0013,25.0783,25.0783,25.0914,25.1197,25.1197,24.9843,24.8416,24.6857,24.5673,24.4377,24.2366,24.2385,24.2385,24.2385,24.2385,24.3024,24.4339,24.4602,24.5898,24.8416,24.9974,25.1592,17.5357,17.9513,18.3669,18.4935,18.6648,18.7941,18.7941,18.7941,18.7941,18.7941,18.8227,18.8512,18.894,19.208,19.4515,19.4058,19.8519,20.028,19.5578,19.3882,19.2592,19.1322,19.2409,19.4397,19.7159,19.8443,19.9232,19.9232,20.0579,20.201,20.352,20.4903,20.6202,20.7813,20.7813,20.7813,20.7813,20.7813,20.7961,20.8207,20.9342,21.0114,21.0657,21.3303,21.4635,21.475,21.5951,21.6494,21.6494,21.6494,21.6774,21.6871,21.8238,21.9782,22.1851,22.4183,22.6305,22.8331,23.1111,23.284,23.3892,23.3892,23.3892,23.3892,23.3892,23.3892,23.3892,23.3892,23.4024,23.4381,23.566,23.7106,23.8684,24.0018,24.1465,24.2385,24.2385,24.2385,24.2385,24.2385,24.2385,24.2366,24.2799,24.278,24.3325,24.4733,24.5298,24.5956,24.7008,24.8416,24.9336,24.9336,25.0369,25.1197,25.1197,24.9843,24.8416,24.6857,24.6613,24.5298,24.2536,24.2385,24.2385,24.2385,24.2385,24.2536,24.278,24.4095,24.4865,24.5542,24.8002,25.0145,17.6659,17.9664,18.2376,18.3946,18.5506,18.6933,18.7789,18.7941,18.7941,18.7941,18.7941,18.8227,18.9092,19.0948,19.2517,19.2631,19.6513,19.8399,19.5309,19.4086,19.3596,19.3892,19.3827,19.463,19.6912,19.8474,19.9232,19.9232,19.989,20.081,20.2321,20.3736,20.5035,20.6629,20.7418,20.7813,20.7813,20.7813,20.7813,20.7813,20.8438,20.9227,20.9983,21.1298,21.2514,21.3172,21.4784,21.5424,21.5408,21.6214,21.6871,21.7695,21.7546,21.9238,22.1983,22.2509,22.4762,22.7393,22.8839,23.068,23.284,23.3629,23.3892,23.3892,23.3892,23.3892,23.3892,23.3892,23.3892,23.4024,23.4644,23.5978,23.7406,23.8684,24.0281,24.1446,24.2235,24.2385,24.2385,24.2385,24.2385,24.2385,24.2385,24.2385,24.2629,24.3438,24.4207,24.4865,24.5693,24.6838,24.7909,24.7909,24.8435,24.9244,25.0013,24.8679,24.7252,24.5844,24.4884,24.3588,24.1465,24.1183,24.1183,24.1183,24.1991,24.2385,24.2385,24.3175,24.3964,24.4733,24.6049,24.7495,17.8095,0.0,18.1377,18.2956,18.4231,18.5497,0.0,18.7361,18.7504,18.7932,18.7941,18.8369,18.952,19.0101,19.0672,19.1927,19.4801,19.631,19.5207,19.4923,19.5109,19.5876,19.5161,19.5312,19.6929,19.8104,19.8838,19.9232,19.9232,19.9874,20.1384,20.242,20.3883,20.5692,20.6597,20.7254,20.7254,20.755,20.7813,20.7813,20.7813,20.8323,20.9325,20.972,21.0525,21.1924,21.3189,21.4076,21.4339,21.5556,21.6905,21.8089,21.7283,21.9124,22.2053,22.1457,22.3298,22.6323,22.6998,22.8971,23.1488,23.2821,23.3647,23.3892,23.3892,23.3892,23.3892,23.3892,23.3892,23.3892,23.3892,23.4757,23.6186,23.7388,23.8684,24.0112,24.1596,24.1821,24.1991,24.2404,24.2385,24.2385,24.2385,24.2385,24.2385,24.2385,24.3418,24.4207,24.4207,24.5561,24.6331,24.6331,24.6613,24.7252,24.8416,24.7271,24.5936,24.4733,24.355,24.2254,24.0224,24.0243,24.0112,23.9717,24.0807,24.1484,24.1484,24.1878,24.261,24.4207,24.447,24.5542,0.0,18.094,18.1377,18.2956,18.3384,18.3955,18.5497,18.5773,0.0,18.7647,18.7941,18.7941,18.8084,18.9378,19.0386,19.0386,19.3088,19.4737,19.3522,19.4566,19.5171,19.4291,19.4262,19.4925,19.6318,19.6942,19.7832,19.9069,19.9232,19.9874,20.1384,20.1336,20.2783,20.5708,20.584,20.5824,20.5824,20.7172,20.7813,20.7813,20.7813,20.7796,20.7944,20.9358,20.9983,21.0114,21.1742,21.3222,21.4355,21.4635,21.5424,21.674,21.8106,21.8747,21.9273,22.1737,22.2938,22.3745,22.6323,22.8445,23.0023,23.1338,23.2653,23.3892,23.3892,23.3892,23.3892,23.3892,23.3892,23.3892,23.3892,23.4757,23.5923,23.6204,23.7106,23.8722,24.0112,24.0394,24.0788,24.2254,24.2385,24.2385,24.2385,24.2385,24.2385,24.2385,24.2347,24.2648,24.2648,24.3964,24.4884,24.4884,24.6087,24.6876,24.7008,24.5673,24.4904,24.4733,24.4583,24.3136,24.0394,24.0243,23.9624,23.8327,23.8308,23.8477,23.8477,23.9717,24.1202,24.2648,24.4114,24.5542,17.8666,17.9379,17.9807,18.1377,18.1805,18.2233,18.3803,18.4935,18.5773,18.6353,18.7218,18.7941,18.7941,18.8512,18.8807,18.8807,19.1499,19.4072,19.552,19.7089,19.7819,19.694,19.4837,19.3464,19.4098,19.6006,19.7306,19.7817,19.8706,19.948,20.0021,20.0989,20.191,20.293,20.2914,20.3867,20.5692,20.6218,20.686,20.7813,20.7813,20.7813,20.7796,20.8339,20.8569,20.8734,21.0147,21.1051,0.0,21.3698,21.5819,21.7958,21.8501,22.0291,22.2807,22.2956,22.3596,22.4499,22.5516,22.6831,22.8182,22.8857,23.0567,23.254,23.254,23.254,23.2672,23.3629,23.3892,23.3892,23.3892,23.4268,23.4757,23.581,23.6317,23.7369,23.9717,24.0243,24.0638,24.2141,24.2385,24.2385,24.2385,24.2385,24.2385,24.2385,24.2385,24.2385,24.2385,24.2931,24.3325,24.3325,24.3701,24.4114,24.4114,24.3569,24.3325,24.3325,24.2347,24.1446,24.0243,23.9492,23.8722,23.8064,23.8064,23.8064,23.8064,23.8722,23.9248,23.9605,24.1183,24.2235,17.6516,17.6944,17.7372,17.9085,17.9361,17.9941,18.209,18.3366,18.4498,18.5488,18.6496,18.7218,18.7218,18.7656,18.7799,18.7361,19.0206,19.3497,19.6085,19.8206,19.9374,19.8672,19.6077,19.3826,19.258,19.4433,19.6138,19.7059,19.8095,19.8869,19.9232,20.0169,20.0858,20.0858,20.1237,20.242,20.4246,20.4624,20.5692,20.7172,20.7172,20.7418,20.7813,20.7813,20.7813,20.7796,20.8816,20.949,21.0131,21.2086,21.4372,21.6774,21.8089,22.0194,22.2526,22.3316,22.3955,22.4481,22.4858,22.606,22.7261,22.7261,22.8989,23.1093,23.147,23.1338,23.1356,23.2653,23.3479,23.3892,23.3892,23.3892,23.4005,23.502,23.5452,23.5941,23.8271,23.8928,23.9473,24.1465,24.1878,24.184,24.2404,24.2385,24.2385,24.2385,24.2385,24.2385,24.2385,24.2385,24.2385,24.2385,24.2385,24.2385,24.2385,24.2385,24.2385,24.2385,24.1446,24.0638,24.0243,23.8834,23.7933,23.7557,23.7012,23.6749,23.6749,23.7125,23.7557,23.7538,23.8947,23.9868,17.3351,17.3779,17.4207,17.5651,17.6079,17.6935,18.0226,18.094,18.1796,18.4917,18.563,18.564,18.564,18.6933,18.737,18.5925,18.9635,19.3212,19.4791,19.7645,19.9234,19.8308,19.8007,19.6577,19.2576,19.2446,19.3871,19.6943,19.7059,19.7685,19.9069,19.9232,19.9232,19.9232,20.0563,20.1368,20.1368,20.2683,20.4294,20.5692,20.5676,20.6481,20.7813,20.7813,20.7813,20.7813,20.7813,20.8569,20.9868,20.9999,21.0953,21.2696,21.6905,21.7677,21.7283,22.2903,22.4069,22.3184,22.4446,22.606,22.7261,22.7261,22.8164,22.9742,23.1374,23.0699,22.9724,23.1356,23.2672,23.3892,23.3892,23.3892,23.3892,23.3892,23.3892,23.4268,23.566,23.5941,23.6693,23.9736,24.0243,24.0638,24.2254,24.2385,24.2385,24.2385,24.2385,24.2385,24.2385,24.2385,24.2385,24.2385,24.2385,24.2385,24.2385,24.2385,24.2385,24.2385,24.2385,24.1859,24.0224,23.8966,23.7538,23.5923,23.4663,23.3892,23.3892,23.5152,23.5941,23.5941,23.7388,23.8853,17.3636,17.3779,17.3922,17.435,17.5357,17.6365,17.7364,17.937,18.1225,18.2215,18.3223,18.3946,18.3946,18.4383,18.4944,18.5497,18.8655,19.2232,19.6105,19.8206,19.9374,19.8648,19.7513,19.538,19.1425,19.1076,19.1883,19.3886,19.6006,19.7306,19.7685,19.767,19.8227,19.9232,19.9627,20.0447,20.1368,20.1747,20.2683,20.413,20.5314,20.5808,20.6186,20.7435,20.7813,20.7813,20.7813,20.806,20.8602,20.949,21.1462,21.3829,21.5161,21.7283,21.9913,22.1457,22.2377,22.3184,22.4446,22.5235,22.5647,22.5647,22.6699,22.805,22.8427,22.8164,22.8164,22.976,23.0567,23.1093,23.2164,23.3084,23.3892,23.3892,23.3892,23.4268,23.566,23.5941,23.6599,23.829,23.9454,24.0394,24.0788,24.1878,24.2385,24.2385,24.2385,24.2385,24.2385,24.2385,24.2385,24.2385,24.2385,24.2385,24.2385,24.2385,24.2385,24.2385,24.2385,24.2235,24.1859,24.0413,23.8947,23.7538,23.6241,23.4776,23.3892,23.425,23.4381,23.4381,23.4776,23.581,17.1924,17.1924,17.2067,17.2646,17.4082,17.5357,17.5937,17.8086,18.0084,18.0797,18.1662,18.2385,18.2385,18.3375,18.4374,18.465,18.8369,19.266,19.6666,19.9235,20.044,20.0258,19.9474,19.7504,19.4055,19.2768,19.2444,19.3374,19.4584,19.5333,19.5333,19.5991,19.6896,19.8312,19.8474,19.9101,20.0579,20.0579,20.1221,20.2715,20.3456,20.4246,20.4919,20.6202,20.7024,20.7024,20.7566,20.7813,20.7961,20.9342,21.0903,21.2777,21.4635,21.6888,21.9238,22.0422,22.1343,22.2412,22.3692,22.4368,22.435,22.4858,22.5271,22.5551,22.5551,22.5928,22.6717,22.8164,22.8558,22.8971,23.0567,23.1488,23.2295,23.2821,23.3497,23.4005,23.5057,23.5189,23.5565,23.6993,23.7895,23.8928,24.0112,24.107,24.1859,24.2404,24.2385,24.2385,24.2385,24.2385,24.2385,24.2385,24.2385,24.2385,24.2385,24.2385,24.2385,24.2385,24.2385,24.2385,24.2385,24.1051,23.9868,23.8947,23.7519,23.6223,23.4626,23.4626,23.44,23.3892,23.3892,23.425,16.9079,16.9079,16.9516,17.0817,17.2369,17.3922,17.5509,17.7087,17.8666,18.0369,18.0797,18.0797,18.094,18.3499,18.5211,18.3955,18.8797,19.3925,19.7094,20.0081,20.2107,20.2753,20.2737,20.1623,19.8896,19.61,19.4526,19.4526,19.3286,19.2424,19.2424,19.384,19.5302,19.6927,19.7059,19.7685,19.9101,19.9248,19.9874,20.1221,20.1384,20.2189,20.3357,20.4935,20.5413,20.5397,20.7024,20.755,20.7829,20.9095,20.9884,21.0525,21.4372,21.6214,21.6905,21.9502,22.0405,22.0817,22.2132,22.2807,22.2921,22.435,22.3675,22.2807,22.2807,22.3728,22.5157,22.6472,22.6866,22.7261,22.8989,22.9347,22.976,23.1075,23.2708,23.3629,23.3629,23.391,23.4268,23.5565,23.596,23.6712,23.9492,24.0112,24.0638,24.1991,24.2404,24.2385,24.2385,24.2385,24.2385,24.2385,24.2385,24.2385,24.2385,24.2385,24.2385,24.2385,24.2385,24.2385,24.2385,24.1202,24.0394,24.0243,23.8947,23.7519,23.6186,23.6186,23.5415,23.4005,23.4005,23.4024,16.9079,16.9079,16.923,16.9516,17.08,17.2378,17.393,17.5509,17.7087,17.8666,17.8951,17.9379,18.0654,18.3499,18.5925,18.68,19.1223,19.5505,19.8634,20.0795,20.2107,20.2753,20.2737,20.1623,19.8896,19.61,19.4526,19.4526,19.2357,19.0947,19.0947,19.2278,19.3709,19.514,19.6517,19.7322,19.7538,19.8706,19.9379,19.9611,20.081,20.1631,20.191,20.3357,20.3867,20.4146,20.5429,20.6054,20.6218,20.7649,20.949,21.1742,21.1479,21.3435,21.6608,21.73,21.8055,21.9238,22.0834,22.1194,22.1343,22.1571,22.1606,22.1194,22.1194,22.1439,22.1983,22.3596,22.3859,22.4517,22.698,22.7805,22.82,22.9592,23.1075,23.2127,23.2127,23.3084,23.3855,23.4268,23.5152,23.6186,23.6712,23.8665,24.0394,24.0638,24.1558,24.2385,24.2385,24.2385,24.2385,24.2385,24.2385,24.2385,24.2385,24.2385,24.2385,24.2385,24.2385,24.2385,24.2385,24.1953,24.1446,24.0243,23.9849,23.9079,23.7688,23.7688,23.7012,23.5565,23.5565,23.5057,16.9079,16.9079,16.9079,16.9079,17.0238,17.1664,17.2512,17.451,17.6373,17.7087,17.7952,17.896,18.0654,18.2938,18.5221,18.7656,19.1223,19.5209,19.9052,20.0927,20.2804,20.4466,20.4739,20.4126,20.2749,20.0009,19.7893,19.6728,19.5198,19.3839,19.2509,19.3221,19.3582,19.3755,19.4529,19.5333,19.5945,19.7538,19.8227,19.8211,19.9642,20.0447,20.0432,20.1747,20.2584,20.2552,20.4162,20.4672,20.464,20.6235,20.8224,21.018,21.0855,21.2777,21.5539,21.6362,21.6871,21.7975,21.9256,21.9799,21.9668,21.8152,21.8712,21.9799,21.9799,22.0291,22.0948,22.1755,22.2018,22.2377,22.4666,22.5139,22.5683,22.8068,22.8971,22.976,23.0567,23.1901,23.284,23.284,23.4005,23.5171,23.5791,23.7087,23.8571,23.9079,24.0394,24.1465,24.1465,24.1465,24.1577,24.2404,24.2385,24.2385,24.2385,24.2385,24.2385,24.2385,24.2385,24.2385,24.2385,24.2385,24.1972,24.1164,24.1164,24.0676,23.9079,23.9079,23.829,23.6993,23.6354,23.5547,16.9079,16.9079,16.9079,16.9079,17.0238,17.1388,17.1388,17.3662,17.5651,17.5651,17.6802,17.8237,18.0226,18.2099,18.4383,18.7513,19.0634,19.4211,19.8644,20.0652,20.2793,20.6075,20.6646,20.6799,20.6799,20.4291,20.1752,19.9656,19.9777,19.8644,19.5483,19.5293,19.4824,19.3744,19.327,19.3887,19.5703,19.6366,19.6911,19.7479,19.8476,19.8838,19.8838,20.0447,20.1126,20.1822,20.3306,20.4134,20.4618,20.561,20.6793,20.8362,21.028,21.212,21.3846,21.503,21.5573,21.5968,21.7151,21.7695,21.7517,21.5308,21.5915,21.7729,21.7975,21.8712,21.9896,22.0273,22.0422,22.0834,22.2132,22.2526,22.3166,22.5814,22.6472,22.7016,22.8839,23.0172,23.0925,23.1356,23.2295,23.3629,23.502,23.5396,23.6223,23.7538,23.8928,24.0018,24.0262,24.0131,24.0394,24.184,24.2235,24.2385,24.2385,24.2385,24.2385,24.2385,24.2385,24.2385,24.2385,24.2385,24.2385,24.2385,24.2385,24.184,24.0657,24.0657,23.9868,23.8459,23.7406,23.658,16.9079,16.9079,16.9079,16.9079,17.0238,17.1388,17.1388,17.2797,17.4064,17.4064,17.4207,17.5357,17.8237,18.1243,18.4383,18.7513,19.0634,19.3783,19.7094,19.9082,20.1203,20.4332,20.5912,20.6799,20.6799,20.4291,20.26,20.2136,20.451,20.3451,19.8528,19.8098,19.8056,19.7917,19.5509,19.6062,20.0002,19.6677,19.6274,19.8635,19.7655,19.7291,19.7453,19.8853,20.0783,20.3137,20.4644,20.6654,20.8811,20.7975,20.8448,20.9337,20.7361,20.8175,21.0509,21.0657,21.1742,21.2828,21.3091,21.4011,21.5157,21.5989,21.4847,21.3371,21.4635,21.5178,21.5802,21.8352,21.8861,21.9256,22.0834,22.1045,22.1623,22.3202,22.3596,22.4254,22.7016,22.7638,22.8182,22.961,23.0005,23.0531,23.2164,23.3198,23.4663,23.5923,23.7538,23.8853,24.0112,23.9079,23.8947,24.0394,24.1577,24.2385,24.2385,24.2385,24.2385,24.2385,24.2385,24.2385,24.2385,24.2385,24.2385,24.2385,24.2385,24.2404,24.2141,24.2141,24.1465,24.0018,23.9887,23.9097,16.9079,16.9079,16.9079,16.9079,16.9658,17.0086,17.0086,17.1371,17.2512,17.2512,17.3217,17.4786,17.7809,18.0378,18.3232,18.737,19.0634,19.3783,19.6961,19.8644,20.0337,20.2782,20.4495,20.5484,20.5484,20.5334,20.4499,20.2992,20.4516,20.3657,19.9768,20.0402,20.0168,19.8657,19.7455,19.7663,19.9682,19.7048,19.6471,19.7633,19.7899,19.807,19.81,20.0365,20.2364,20.448,20.5148,20.6582,20.8507,20.8046,20.8556,20.9722,20.934,21.0554,21.2519,21.4183,21.425,21.3573,21.6315,21.7093,21.6763,21.5722,21.5013,21.4395,21.3378,21.3205,21.3469,21.4818,21.5556,21.6591,21.8072,21.9124,22.0062,22.1343,22.1755,22.2412,22.435,22.4911,22.5551,22.7787,22.8971,22.9742,23.0399,23.1111,23.1751,23.2259,23.3592,23.4794,23.5415,23.487,23.502,23.6636,23.7087,23.7895,23.8684,23.8684,23.9079,23.9868,24.0037,24.0037,24.0037,24.0037,24.0037,24.0037,24.0037,24.0037,24.0037,24.0037,23.9624,23.9097,23.9097,23.8703,16.8525,16.8802,16.9079,16.9079,16.9373,16.9658,16.9658,17.0951,17.2093,17.2093,17.2932,17.4786,17.7961,17.9807,18.2367,18.6648,18.9644,19.2498,19.5809,19.7512,19.9215,20.1223,20.2334,20.3333,20.3761,20.4495,20.4091,20.2224,20.2693,20.2322,20.0781,20.1522,20.1635,20.0258,19.9859,19.9641,19.9641,19.9376,19.8835,19.8256,19.8995,19.9451,19.937,20.1763,20.3931,20.5878,20.5878,20.6851,20.8604,20.7757,20.8129,20.9218,20.9599,21.0942,21.2689,21.5027,21.5119,21.4789,21.8452,21.81,21.5699,21.4604,21.4814,21.5234,21.3756,21.3066,21.2815,21.3228,21.3626,21.3961,21.5178,21.6511,21.794,21.9519,22.0028,22.0668,22.2149,22.2395,22.2903,22.5121,22.6866,22.7769,22.7769,22.8427,22.9234,22.9628,23.0567,23.0925,23.0549,23.0962,23.1751,23.3066,23.3592,23.4213,23.5434,23.5396,23.596,23.7012,23.6993,23.7143,23.7538,23.7519,23.7782,23.8064,23.8064,23.8064,23.8064,23.8064,23.8064,23.8064,23.8064,23.8064,16.6838,16.7963,16.9079,16.9079,17.0238,17.1388,17.1388,17.2512,17.3636,17.3636,17.3779,17.4786,17.7978,17.9959,18.2081,18.5202,18.7076,18.9359,19.2489,19.422,19.6361,19.95,19.9766,20.0337,20.1936,20.0775,20.0021,19.9759,19.9849,20.0439,20.1765,20.101,20.1616,20.3923,20.3177,20.2554,20.2554,20.5119,20.5054,20.2311,20.119,20.0625,20.0788,20.209,20.4433,20.7062,20.7062,20.8745,21.1111,20.8368,20.7202,20.6953,20.4445,20.5331,20.778,20.7931,21.0765,21.466,21.5992,21.2654,20.8622,21.2608,21.3198,21.2911,21.5505,21.5379,21.4547,21.6011,21.4411,21.245,21.2433,21.3617,21.503,21.6328,21.766,21.929,22.0685,22.0966,22.0948,22.1229,22.2412,22.3351,22.3351,22.5534,22.7769,22.9365,22.9592,22.9234,22.7638,22.8839,23.0136,23.1751,23.3084,23.3874,23.4042,23.3987,23.41,23.4005,23.4005,23.4644,23.5923,23.6223,23.6749,23.8083,23.8064,23.8064,23.8064,23.8064,23.8064,23.8064,23.8064,23.8064,16.4681,16.5679,16.6385,16.7392,16.7971,16.897,17.0959,17.1807,17.2512,17.3636,17.3779,17.4501,17.6659,17.9227,18.1653,18.3803,18.7094,18.9806,19.0948,19.3364,19.5362,19.6504,19.7512,19.8216,19.8806,19.6656,19.5209,19.5209,19.6922,19.8806,20.0357,20.2017,20.3966,20.5902,20.5429,20.53,20.53,20.6243,20.5527,20.2737,20.238,20.1905,20.2116,20.4427,20.6596,20.8388,20.8388,20.9584,21.1435,21.0286,20.9938,20.9872,20.8711,20.9218,21.017,21.1027,21.1352,21.1499,21.377,21.3759,21.2826,21.2666,21.2214,21.1624,21.0709,20.9787,20.8762,20.9315,20.8751,20.806,20.806,20.9128,21.0312,21.069,21.2022,21.3435,21.5047,21.5934,21.7283,21.9124,21.9782,22.0439,22.1343,22.2377,22.3561,22.5025,22.4499,22.3692,22.3166,22.3543,22.4087,22.478,22.5139,22.5832,22.6788,22.6866,22.7261,22.8182,22.8182,22.8821,23.0286,22.9628,22.9592,23.1075,23.0136,23.0136,23.1075,23.1075,23.1751,23.2653,23.4363,23.5434,16.1541,16.2817,16.4102,16.5688,16.6409,16.7551,17.0683,17.1807,17.2655,17.4216,17.4929,17.5785,17.7506,17.9513,18.1511,18.3098,18.6381,18.895,18.9378,19.1804,19.3659,19.4078,19.5086,19.58,19.58,19.2926,19.1785,19.3354,19.4781,19.6666,19.8634,20.1774,20.4067,20.5076,20.6228,20.6799,20.6799,20.6799,20.5908,20.4093,20.4093,20.4093,20.4137,20.5982,20.737,20.8379,20.8379,20.8939,20.9928,20.9928,20.9928,20.9928,20.9928,21.0367,21.0938,21.1947,21.0778,20.8711,21.0652,21.2058,21.2802,21.131,21.1036,21.1276,20.9934,20.8595,20.7594,20.7594,20.6293,20.5055,20.5437,20.6001,20.6498,20.7024,20.8191,20.9506,21.0575,21.1479,21.2777,21.5161,21.6116,21.7168,21.9107,21.9782,22.0571,22.2,22.1474,22.0668,22.0194,22.0405,22.0799,22.0799,22.0799,22.1211,22.2149,22.2132,22.2509,22.3543,22.371,22.435,22.5665,22.4876,22.5157,22.6454,22.5498,22.5498,22.6436,22.6436,22.698,22.7996,23.0023,23.1057,15.7244,15.9527,16.223,16.3816,16.5402,16.7266,17.054,17.2512,17.4064,17.5651,17.7238,17.8808,18.0512,18.094,18.1511,18.2956,18.4507,18.6068,18.7647,18.9235,19.0805,19.2346,19.2489,19.2489,19.2489,18.9787,18.9939,19.4525,19.3497,19.3935,19.7094,20.0234,20.1784,20.1946,20.4933,20.6656,20.6646,20.6656,20.6646,20.6799,20.6799,20.6799,20.6799,20.6799,20.6799,20.6799,20.6799,20.6799,20.6799,20.6799,20.6799,20.6799,20.6799,20.7808,20.9103,20.9103,20.8247,20.6799,20.6799,20.6799,20.7074,20.8522,21.0081,21.1641,21.3232,21.2656,21.1445,21.1445,20.7605,20.3571,20.4815,20.4342,20.3732,20.5051,20.6465,20.7566,20.755,20.7665,20.8207,20.9588,21.1084,21.3074,21.5968,21.7712,21.901,22.0405,22.0668,22.0028,21.8633,21.9633,22.0668,22.0668,22.0668,22.0668,22.0668,22.0668,22.0668,22.0668,22.0668,22.1194,22.2526,22.2526,22.3333,22.4727,22.4727,22.4727,22.4709,22.4709,22.4876,22.4858,22.4858,22.5665,15.3407,15.4691,15.5968,15.8679,15.9686,16.1105,16.5386,16.7535,16.9532,17.2244,17.4955,17.6944,17.7372,17.9361,18.1082,18.1511,18.2947,18.4516,18.6068,18.7647,18.9226,19.0805,19.0948,19.0519,18.9359,18.952,19.0243,19.1528,19.2222,19.3935,19.7094,19.8093,19.9082,20.0204,20.0081,20.0947,20.3373,20.2212,20.3343,20.6799,20.5637,20.5637,20.6799,20.6799,20.6799,20.6799,20.6799,20.6799,20.6799,20.6799,20.6799,20.6799,20.6799,20.7074,20.737,20.737,20.7227,20.6799,20.6799,20.6799,20.6788,20.738,20.7798,20.8216,20.8644,20.7842,20.6853,20.6853,20.4811,20.2707,20.0971,20.0351,19.9952,19.9694,20.0579,20.2026,20.2946,20.4755,20.6597,20.8207,20.949,21.1462,21.4339,21.5441,21.6116,21.7529,21.5968,21.4389,21.3995,21.5327,21.6591,21.7512,21.766,21.766,21.766,21.766,21.7283,21.618,21.6197,21.6328,21.674,21.5705,21.5985,21.738,21.6345,21.6362,21.7363,21.7363,21.8467,22.0439,22.0439,22.1755,14.7128,14.8277,14.9697,15.3534,15.4383,15.5817,16.1256,16.3682,16.5537,16.7963,17.1522,17.4233,17.4233,17.6802,17.8942,17.8942,18.0806,18.2661,18.3499,18.5087,18.6666,18.8227,18.7808,18.7532,18.7941,18.8227,18.9226,19.109,19.1509,19.3079,19.6095,19.6951,19.7665,19.8654,19.9082,19.9806,20.0927,20.0795,20.2354,20.5789,20.475,20.5208,20.6799,20.6799,20.6799,20.6799,20.6799,20.6799,20.6799,20.6799,20.6799,20.6799,20.6799,20.6799,20.6799,20.6799,20.6799,20.6799,20.6799,20.6799,20.6799,20.6799,20.6799,20.6799,20.6799,20.6276,20.589,20.6455,20.482,20.2709,20.2347,20.1054,19.9423,19.8144,19.8451,19.9018,19.8608,20.0958,20.3293,20.4919,20.6892,20.9112,21.212,21.2481,21.304,21.4538,21.3205,21.2301,21.2301,21.3091,21.3846,21.4635,21.4801,21.4801,21.4801,21.4801,21.4389,21.3617,21.3435,21.3435,21.3435,21.2679,21.2696,21.3452,21.2679,21.3091,21.4355,21.4355,21.5556,21.7677,21.7677,21.8089,13.9986,14.1562,14.3846,14.8097,14.9231,15.0808,0.0,15.925,16.0946,16.2532,16.667,17.0246,17.0389,17.3091,17.5509,17.5794,17.8371,18.0512,18.094,18.2233,18.3517,18.4926,18.3936,18.424,18.7085,18.622,18.7209,19.1775,19.0805,19.1376,19.4515,19.5952,19.6523,19.6666,19.9225,20.0214,19.95,20.0652,20.2212,20.4057,20.3904,20.4627,20.6218,20.6218,20.6218,20.6218,20.6218,20.6371,20.6656,20.6799,20.6799,20.6799,20.6799,20.6656,20.6218,20.6218,20.6218,20.6218,20.6218,20.6218,20.6218,20.6218,20.6371,20.6493,20.6207,20.6656,20.7074,20.8226,20.6066,20.3911,20.6409,20.4352,20.1188,19.9655,19.9098,19.8266,19.5886,19.7508,19.9627,20.1252,20.3572,20.6186,20.921,20.9753,21.0164,21.1118,21.1529,21.1496,21.1496,21.1924,21.2055,21.2055,21.2022,21.2301,21.2301,21.2301,21.2022,21.194,21.1627,21.166,21.1249,21.1249,21.1233,21.1496,21.1496,21.2301,21.3698,21.3698,21.4372,21.5819,21.5556,21.4241,0.0,0.0,0.0,0.0,0.0,0.0,0.0,14.8705,15.1109,15.2663,15.7823,16.2397,16.3665,16.7518,17.1219,17.3779,17.5785,17.7943,18.0654,18.1234,18.1511,18.1796,18.1653,18.209,18.3955,18.3955,18.523,18.8645,18.8655,18.9796,19.2917,19.2232,19.2232,19.3497,19.2945,19.424,19.7665,19.6646,19.8511,20.2354,20.1203,20.1345,20.2945,20.2945,20.2945,20.2945,20.2945,20.3649,20.4903,20.6207,20.6799,20.6799,20.6799,20.5229,20.2945,20.2945,20.2945,20.2945,20.2945,20.2945,20.2945,20.2945,20.3771,20.4475,20.3363,20.4648,20.6646,20.5473,20.6469,20.76,20.5803,20.5789,20.5462,20.2881,20.0585,19.9234,19.9579,19.945,19.9627,20.1252,20.2683,20.4935,20.7813,20.8191,20.7566,20.5445,20.6235,20.7024,20.7024,20.8964,21.0377,21.0377,21.1479,21.2301,21.2301,21.2301,21.1266,20.8717,20.8586,20.755,20.533,20.5215,20.5872,20.6843,20.7024,20.7665,20.9145,20.9145,20.9753,21.1166,21.0197,20.9753,0.0,0.0,0.0,0.0,0.0,0.0,0.0,0.0,0.0,0.0,0.0,15.5247,15.6087,0.0,16.6368,16.8794,17.1799,17.4947,17.8077,17.8514,17.8514,17.8514,17.8514,17.9513,18.1948,18.209,18.3089,18.5515,18.5667,18.6942,19.0215,18.9511,18.9806,19.1366,19.1509,19.2232,19.3811,19.4515,19.6504,19.9663,19.9643,20.0347,20.1936,20.1936,20.1936,20.1936,20.1936,20.2344,20.319,20.4077,20.4515,20.423,20.2813,20.0937,19.9663,19.9663,19.9663,19.9815,20.0652,20.0785,20.106,20.2477,20.3771,20.4332,20.4352,20.5504,20.6799,20.6799,20.737,20.7967,20.8116,20.8234,20.7785,20.5674,20.4345,20.2948,20.2338,20.1792,20.1562,20.2197,20.2881,20.3867,20.5462,20.5067,20.4246,20.3768,20.413,20.4672,20.4672,20.584,20.6481,20.566,20.6382,20.6777,20.6777,20.6777,20.6498,20.5708,20.5725,20.5083,20.3488,20.4294,20.4903,20.5676,20.6498,20.6991,20.7813,20.7813,20.8207,20.8832,20.6629,20.6103,0.0,0.0,0.0,0.0,0.0,0.0,0.0,0.0,0.0,0.0,0.0,0.0,0.0,0.0,0.0,16.3253,16.7535,17.1673,17.5223,17.5081,17.4938,17.5232,17.5794,17.7078,17.9798,18.0369,18.1091,18.267,18.2813,18.4097,18.6942,18.7085,18.7808,18.9378,19.0929,19.1223,19.0243,19.3079,19.5229,19.6371,19.7645,0.0,20.0224,20.0224,20.0224,20.0224,20.0224,20.0376,20.0652,20.0652,20.0795,20.0805,19.7665,19.6371,19.6533,19.6666,19.7104,19.7532,19.8634,19.9215,19.9643,20.2202,20.319,20.3466,20.4648,20.5524,0.0,20.6952,20.7074,20.737,20.9928,21.0081,20.9355,20.8034,20.7646,20.6896,20.4533,20.3539,20.297,20.3374,20.2931,20.2683,20.311,20.191,20.1368,20.2568,20.2962,20.311,20.311,20.3357,20.2946,20.1647,20.1615,20.1794,20.1352,20.1615,20.2321,20.352,20.3373,20.2946,20.2715,20.3703,20.4476,20.4903,20.6119,20.6613,20.704,20.704,20.704,20.6892,20.2978,20.14,0.0,0.0,0.0,0.0,0.0,0.0,0.0,0.0,0.0,0.0,0.0,0.0,0.0,0.0,0.0,0.0,16.4269,16.8819,17.3351,17.1647,17.0372,17.1816,17.4376,17.6222,17.6659,17.7952,17.9379,18.1082,18.1225,18.1948,18.3669,18.3812,0.0,0.0,0.0,18.9083,19.0243,19.208,19.2917,19.3212,19.3345,19.3488,19.363,19.363,19.363,19.363,19.363,19.4344,19.579,19.579,19.6504,19.7522,19.4363,19.3212,19.3354,19.4801,19.6095,19.7237,19.7532,0.0,0.0,19.794,19.9082,20.0071,19.8654,20.0224,20.2374,20.106,20.3649,20.6778,20.7217,20.9368,21.0875,20.936,20.8154,20.718,20.6803,20.3903,20.1815,20.3119,20.135,20.0184,20.1352,20.0432,19.9658,19.9611,20.0826,20.1615,20.1615,20.2699,20.2946,20.1647,20.2568,0.0,20.1515,20.2568,20.3357,20.3505,20.2305,20.0942,19.9774,19.9874,20.0563,20.1731,20.201,20.2683,20.3867,20.3867,20.3867,20.3736,19.5712,19.3314,0.0,0.0,0.0,0.0,0.0,0.0,0.0,0.0,0.0,0.0,0.0,0.0,0.0,0.0,0.0,0.0,15.7553,16.0978,16.3943,16.4656,16.5948,16.8399,17.0666,17.2369,17.3377,17.4804,17.6365,17.8086,17.822,17.9227,18.1805,18.1948,18.2661,18.4231,18.4944,18.5524,18.6247,18.7789,18.8636,18.8627,19.0367,19.1223,19.1366,19.2213,19.2631,19.2631,19.2631,19.3069,19.364,19.364,19.3935,19.422,0.0,0.0,0.0,0.0,19.1366,19.1956,19.2955,19.325,19.3526,19.5381,19.6361,19.6922,19.7246,19.8245,19.9225,19.9643,20.105,20.3068,20.4913,20.6177,20.7624,20.8797,20.8806,20.8509,20.9599,20.5833,20.3272,20.6201,20.2133,0.0,19.9668,19.8078,19.685,19.7948,19.8459,19.9279,20.0021,20.0547,20.0432,19.9016,19.9411,19.969,19.8853,19.9411,0.0,0.0,0.0,19.9874,19.9217,19.8459,0.0,0.0,0.0,19.9642,19.8459,19.7716,0.0,0.0,19.1883,19.0553,0.0,0.0,0.0,0.0,0.0,0.0,0.0,0.0,0.0,0.0,0.0,0.0,0.0,0.0,0.0,0.0,15.1266,15.4421,15.4255,15.7672,16.0677,16.2112,16.5957,16.8525,16.8811,17.1077,17.3074,17.4661,17.4804,17.6088,17.8799,17.937,18.0084,18.1234,18.2242,18.267,18.267,18.4231,18.4935,18.5069,18.7237,18.8388,18.8388,18.9511,19.0072,19.0072,19.0072,19.0072,19.0072,19.0072,19.0348,19.0491,18.7495,18.6933,18.8084,18.8512,18.8655,18.895,19.0948,19.1528,19.2099,19.481,19.5505,19.579,19.6951,19.6941,19.6951,19.8083,19.8339,19.892,20.1203,20.2324,20.3466,20.6085,20.7227,20.8226,20.9357,20.6429,20.453,20.7655,20.2114,19.7349,19.8647,19.65,19.4942,19.5719,19.5875,19.6355,19.7933,19.8459,19.8064,19.6664,19.7144,19.7554,19.7043,19.7438,19.7933,19.8606,19.8722,19.8443,19.8049,19.7159,19.6385,19.6006,19.6881,19.6076,0.0,0.0,0.0,0.0,0.0,0.0,0.0,0.0,0.0,0.0,0.0,0.0,0.0,0.0,0.0,0.0,0.0,0.0,0.0,0.0,0.0,0.0,0.0,0.0,14.6678,15.1409,15.4271,15.1094,16.0249,16.5688,16.2658,16.6511,16.9944,17.153,17.153,17.2235,17.3922,17.55,17.6222,17.6365,17.937,18.1082,18.1082,18.267,18.3384,18.3384,18.3536,18.3536,18.3536,18.3536,18.3527,18.3527,18.3527,18.3527,18.3527,18.3527,18.4516,18.5925,18.7361,18.7941,18.8084,18.9673,19.0243,19.0672,19.3802,19.4791,19.5086,19.6666,19.7246,19.7246,19.7246,19.639,19.4934,19.5229,19.5229,19.5229,19.5219,19.7493,19.9776,19.9766,20.2182,20.4475,20.4464,20.4717,20.4937,20.503,20.027,19.6677,19.848,19.6359,19.403,19.2994,19.2819,0.0,19.4746,19.6385,19.6486,19.4993,19.7523,19.8606,19.7322,19.8474,19.8606,19.7322,19.7159,19.6502,19.4993,19.4715,19.4235,19.2819,19.2819,19.2146,19.0684,0.0,0.0,0.0,0.0,0.0,0.0,0.0,0.0,0.0,0.0,0.0,0.0,0.0,0.0,0.0,0.0,0.0,0.0,0.0,0.0,0.0,0.0,0.0,0.0,14.7249,15.1109,14.8968,15.4842,15.7839,15.4518,15.9527,16.3531,16.5092,16.8089,17.0086,17.0649,17.2227,17.2957,17.2957,17.4099,17.5089,17.6205,17.78,17.8514,17.8523,18.0663,18.1805,18.1805,18.2813,18.325,18.3393,18.4374,18.4793,18.4935,18.5943,18.4944,18.2652,18.308,18.465,18.6496,18.7066,18.7941,18.895,18.9939,19.0367,19.0367,19.0948,19.109,19.109,19.109,19.0795,19.0795,19.2784,19.3354,19.364,19.4801,19.579,19.6504,19.6504,19.735,19.8634,20.0775,19.9811,19.9858,20.3713,19.9836,19.5771,19.5725,19.2588,19.0062,18.9874,18.9004,18.9531,19.2935,19.3871,19.425,19.4746,19.5682,19.6076,19.5535,19.5914,19.6076,19.5535,19.463,19.4382,19.4746,19.1999,19.124,19.2556,18.9794,18.8084,18.7674,0.0,0.0,0.0,0.0,0.0,0.0,0.0,0.0,0.0,0.0,0.0,0.0,0.0,0.0,0.0,0.0,0.0,0.0,0.0,0.0,0.0,0.0,0.0,0.0,0.0,0.0,14.5694,15.0125,0.0,14.8953,15.225,15.5397,15.6959,15.9813,16.2524,16.4807,16.6385,16.8114,16.9684,17.0817,17.195,17.2932,17.4501,17.55,17.6088,17.8229,17.9513,18.0084,18.11,18.1529,18.1671,18.2652,18.308,18.308,18.4222,18.2081,17.8362,17.8362,17.8933,17.9923,18.1055,18.2063,18.308,18.4231,18.5373,18.6229,18.6229,18.6229,18.6229,18.5649,18.465,18.4222,18.679,18.8075,18.8921,19.1071,19.2936,19.4068,19.4068,19.4934,19.6371,19.8206,19.7517,19.6883,19.9629,19.7171,19.3738,19.1339,18.8759,18.6684,18.6224,18.6102,18.7036,18.9928,19.1653,19.2683,19.3158,19.3709,19.422,19.4746,19.4351,19.3825,19.3299,19.2394,19.1883,19.1736,18.9531,18.823,18.7923,18.4781,18.256,0.0,0.0,0.0,0.0,0.0,0.0,0.0,0.0,0.0,0.0,0.0,0.0,0.0,0.0,0.0,0.0,0.0,0.0,0.0,0.0,0.0,0.0,0.0,0.0,0.0,0.0,0.0,14.1127,14.5822,0.0,0.0,0.0,0.0,14.7406,14.7699,15.0553,15.6531,15.8409,16.1272,16.5981,16.897,17.0817,17.0959,17.2646,17.4216,17.5651,17.5794,17.6659,17.8095,17.8104,17.8246,17.8246,17.8246,17.8389,17.8237,17.7961,17.6088,17.3342,17.3208,17.1362,16.9079,17.2067,17.32,17.3779,17.6953,18.0101,18.2679,18.2813,18.2813,18.2528,18.094,17.822,0.0,0.0,17.9236,18.1216,18.4498,18.8779,19.2203,19.2346,19.4648,19.6961,19.6961,19.6961,19.6105,19.2917,19.2346,19.077,18.5714,0.0,18.3957,18.225,18.3934,18.5562,18.6236,18.98,19.1831,19.0578,19.1729,19.297,19.422,19.3051,19.162,19.0421,19.0158,18.8843,18.6374,18.7309,18.519,17.9609,17.7942,0.0,0.0,0.0,0.0,0.0,0.0,0.0,0.0,0.0,0.0,0.0,0.0,0.0,0.0,0.0,0.0,0.0,0.0,0.0,0.0,0.0,0.0,0.0,0.0,0.0,0.0,13.0269,13.3123,13.5413,13.614,13.5576,0.0,0.0,0.0,0.0,0.0,0.0,14.8675,15.0117,15.2701,15.6269,15.8275,16.0978,16.4513,16.7241,16.8827,16.9255,17.153,17.2815,17.3243,17.451,17.4929,17.5072,17.6222,17.6659,17.6373,17.1681,16.8542,16.6662,16.4244,16.3531,16.3943,16.479,16.5797,16.7384,17.1816,17.3822,17.467,17.5794,17.6213,17.5643,17.294,0.0,0.0,0.0,0.0,17.5098,18.0645,18.3946,18.6238,18.8655,18.9796,19.0662,19.1813,19.2099,19.1528,18.9502,18.8208,18.6368,18.3133,18.0322,0.0,18.1991,18.1549,18.2782,18.7836,19.0557,19.148,19.0389,19.0486,19.0121,18.8524,18.7134,18.6622,18.728,18.5322,18.4796,18.6111,18.2428,17.9535,17.8074,0.0,0.0,0.0,0.0,0.0,0.0,0.0,0.0,0.0,0.0,0.0,0.0,0.0,0.0,0.0,0.0,0.0,0.0,0.0,0.0,0.0,0.0,0.0,0.0,0.0,0.0,0.0,12.5282,12.8713,13.0555,13.0146,12.9147,0.0,0.0,0.0,0.0,0.0,0.0,0.0,0.0,0.0,14.842,15.0853,15.3272,15.5817,15.9694,16.1985,16.2691,16.5814,16.8097,16.9398,17.038,17.1085,17.1782,17.3368,17.2093,16.8676,16.4403,16.0962,15.7958,0.0,0.0,0.0,0.0,15.7514,15.8814,16.2833,16.4681,16.5386,16.5529,0.0,0.0,0.0,0.0,0.0,0.0,0.0,17.1522,17.6507,18.1091,18.4963,18.737,18.8512,18.9378,19.0948,18.5382,17.9968,17.9798,17.8514,17.7005,17.5807,17.3694,0.0,0.0,0.0,18.1721,18.6698,18.9816,19.093,18.935,18.8876,18.8294,18.7043,18.4944,18.4399,18.586,18.2849,18.1362,18.2297,17.86,17.5035,0.0,0.0,0.0,0.0,0.0,0.0,0.0,0.0,0.0,0.0,0.0,0.0,0.0,0.0,0.0,0.0,0.0,0.0,0.0,0.0,0.0,0.0,0.0,0.0,0.0,0.0,0.0,0.0,0.0,12.6721,12.5846,0.0,0.0,0.0,0.0,0.0,0.0,0.0,0.0,0.0,0.0,0.0,0.0,0.0,14.6129,14.67,15.1424,15.4556,15.596,15.9234,16.2238,16.4546,16.484,16.5973,16.7946,16.8248,0.0,15.8124,15.6118,0.0,0.0,0.0,0.0,0.0,0.0,0.0,0.0,0.0,0.0,0.0,0.0,0.0,0.0,0.0,0.0,0.0,0.0,0.0,0.0,0.0,0.0,18.3545,18.4811,18.6809,18.8521,18.8788,17.7096,16.6829,16.7661,16.6821,16.5992,0.0,0.0,0.0,0.0,0.0,0.0,18.4816,18.8799,19.0479,18.8549,18.7664,18.7212,18.7362,18.5031,18.3957,18.502,18.1572,17.8729,17.6918,17.5575,0.0,0.0,0.0,0.0,0.0,0.0,0.0,0.0,0.0,0.0,0.0,0.0,0.0,0.0,0.0,0.0,0.0,0.0,0.0,0.0,0.0,0.0,0.0,0.0,0.0,0.0,0.0,0.0,0.0,0.0,0.0,0.0,0.0,0.0,0.0,0.0,0.0,0.0,0.0,0.0,0.0,0.0,0.0,0.0,0.0,0.0,0.0,0.0,0.0,0.0,15.2258,15.3962,15.3234,15.4549,15.7553,16.1121,15.4691,15.1266,14.9697,14.5551,0.0,0.0,0.0,0.0,0.0,0.0,0.0,0.0,0.0,0.0,0.0,0.0,0.0,0.0,0.0,0.0,0.0,0.0,0.0,0.0,0.0,0.0,17.0129,17.0406,17.4678,17.6944,17.0666,0.0,0.0,0.0,0.0,0.0,0.0,0.0,0.0,0.0,0.0,0.0,18.6631,19.0281,19.1955,19.0643,18.9313,18.758,18.5563,18.5031,18.3882,18.2106,18.0334,17.7634,0.0,0.0,0.0,0.0,0.0,0.0,0.0,0.0,0.0,0.0,0.0,0.0,0.0,0.0,0.0,0.0,0.0,0.0,0.0,0.0,0.0,0.0,0.0,0.0,0.0,0.0,0.0,0.0,0.0,0.0,0.0,0.0,0.0,0.0,0.0,0.0,0.0,0.0,0.0,0.0,0.0,0.0,0.0,0.0,0.0,0.0,0.0,0.0,0.0,0.0,0.0,0.0,0.0,0.0,0.0,0.0,0.0,0.0,14.4131,13.8715,0.0,0.0,0.0,0.0,0.0,0.0,0.0,0.0,0.0,0.0,0.0,0.0,0.0,0.0,0.0,0.0,0.0,0.0,0.0,0.0,0.0,0.0,0.0,0.0,0.0,0.0,0.0,0.0,0.0,0.0,0.0,0.0,0.0,0.0,0.0,0.0,0.0,0.0,0.0,0.0,18.2291,18.7218,19.012,18.9881,18.8988,18.7634,18.5817,18.4989,18.3583,18.1033,17.7687,0.0,0.0,0.0,0.0,0.0,0.0,0.0,0.0,0.0,0.0,0.0,0.0,0.0,0.0,0.0,0.0,0.0,0.0,0.0,0.0,0.0,0.0,0.0,0.0,0.0,0.0,0.0,0.0,0.0,0.0,0.0,0.0,0.0,0.0,0.0,0.0,0.0,0.0,0.0,0.0,0.0,0.0,0.0,0.0,0.0,0.0,0.0,0.0,0.0,0.0,0.0,0.0,0.0,0.0,0.0,0.0,0.0,0.0,0.0,13.3999,12.759,0.0,0.0,0.0,0.0,0.0,0.0,0.0,0.0,0.0,0.0,0.0,0.0,0.0,0.0,0.0,0.0,0.0,0.0,0.0,0.0,0.0,0.0,0.0,0.0,0.0,0.0,0.0,0.0,0.0,0.0,0.0,0.0,0.0,0.0,0.0,0.0,0.0,0.0,0.0,0.0,17.7347,18.4088,18.8589,18.9005,18.8666,18.7981,18.6809,18.6003,18.3798,17.945,17.4922,0.0,0.0,0.0,0.0,0.0,0.0,0.0,0.0,0.0,0.0,0.0,0.0,0.0,0.0,0.0,0.0,0.0,0.0,0.0,0.0,0.0,0.0,0.0,0.0,0.0,0.0,0.0,0.0,0.0,0.0,0.0,0.0,0.0,0.0,0.0,0.0,0.0,0.0,0.0,0.0,0.0,0.0,0.0,0.0,0.0,0.0,0.0,0.0,0.0,0.0,0.0,0.0,0.0,0.0,0.0,0.0,0.0,0.0,0.0,0.0,0.0,0.0,0.0,0.0,0.0,0.0,0.0,0.0,0.0,0.0,0.0,0.0,0.0,0.0,0.0,0.0,0.0,0.0,0.0,0.0,0.0,0.0,0.0,0.0,0.0,0.0,0.0,0.0,0.0,0.0,0.0,0.0,0.0,0.0,0.0,0.0,0.0,0.0,0.0,0.0,0.0,17.5776,18.4374,19.0168,19.012,19.013,18.9445,18.7954,18.8952,18.54,17.5336,0.0,0.0,0.0,0.0,0.0,0.0,0.0,0.0,0.0,0.0,0.0,0.0,0.0,0.0,0.0,0.0,0.0,0.0,0.0,0.0,0.0,0.0,0.0,0.0,0.0,0.0,0.0,0.0,0.0,0.0,0.0,0.0,0.0,0.0,0.0,0.0,0.0,0.0,0.0,0.0,0.0,0.0,0.0,0.0,0.0,0.0,0.0,0.0,0.0,0.0,0.0,0.0,0.0,0.0,0.0,0.0,0.0,0.0,0.0,0.0,0.0,0.0,0.0,0.0,0.0,0.0,0.0,0.0,0.0,0.0,0.0,0.0,0.0,0.0,0.0,0.0,0.0,0.0,0.0,0.0,0.0,0.0,0.0,0.0,0.0,0.0,0.0,0.0,0.0,0.0,0.0,0.0,0.0,0.0,0.0,0.0,0.0,0.0,0.0,0.0,0.0,0.0,16.9961,17.9673,18.6523,18.7361,18.8369,18.8227,18.6648,18.7076,18.2515,17.0855,0.0,0.0,0.0,0.0,0.0,0.0,0.0,0.0,0.0,0.0,0.0,0.0,0.0,0.0,0.0,0.0,0.0,0.0,0.0,0.0,0.0,0.0,0.0,0.0,0.0,0.0,0.0,0.0,0.0,0.0,0.0,0.0,0.0,0.0,0.0,0.0,0.0,0.0,0.0,0.0,0.0,0.0,0.0,0.0,0.0,0.0,0.0,0.0,0.0,0.0,0.0,0.0,0.0,0.0,0.0,0.0,0.0,0.0,0.0,0.0,0.0,0.0,0.0,0.0,0.0,0.0,0.0,0.0,0.0,0.0,0.0,0.0,0.0,0.0,0.0,0.0,0.0,0.0,0.0,0.0,0.0,0.0,0.0,0.0,0.0,0.0,0.0,0.0,0.0,0.0,0.0,0.0,0.0,0.0,0.0,0.0,0.0,0.0,0.0,0.0,0.0,0.0,16.5688,17.6106,18.3669,18.4793,18.6362,18.6505,18.4498,18.4641,17.9289,16.6241,0.0,0.0,0.0,0.0,0.0,0.0,0.0,0.0,0.0,0.0,0.0,0.0,0.0,0.0,0.0,0.0,0.0,0.0,0.0,0.0,0.0,0.0,0.0,0.0,0.0,0.0,0.0,0.0,0.0,0.0,0.0,0.0,0.0,0.0,0.0,0.0,0.0,0.0,0.0,0.0,0.0,0.0,0.0,0.0,0.0,0.0,0.0,0.0,0.0,0.0,0.0,0.0,0.0,0.0,0.0,0.0,0.0,0.0,0.0,0.0,0.0,0.0,0.0,0.0,0.0,0.0,0.0,0.0,0.0,0.0,0.0,0.0,0.0,0.0,0.0,0.0,0.0,0.0,0.0,0.0,0.0,0.0,0.0,0.0,0.0,0.0,0.0,0.0,0.0,0.0,0.0,0.0,0.0,0.0,0.0,0.0,0.0,0.0,0.0,0.0,0.0,0.0,16.4102,17.5535,18.325,18.3384,18.4793,18.4355,18.1225,18.2385,17.6949,0.0,0.0,0.0,0.0,0.0,0.0,0.0,0.0,0.0,0.0,0.0,0.0,0.0,0.0,0.0,0.0,0.0,0.0,0.0,0.0,0.0,0.0,0.0,0.0,0.0,0.0,0.0,0.0,0.0,0.0,0.0,0.0,0.0,0.0,0.0,0.0,0.0,0.0,0.0,0.0,0.0,0.0,0.0,0.0,0.0,0.0,0.0,0.0,0.0,0.0,0.0,0.0,0.0,0.0,0.0,0.0,0.0,0.0,0.0,0.0,0.0,0.0,0.0,0.0,0.0,0.0,0.0,0.0,0.0,0.0,0.0,0.0,0.0,0.0,0.0,0.0,0.0,0.0,0.0,0.0,0.0,0.0,0.0,0.0,0.0,0.0,0.0,0.0,0.0,0.0,0.0,0.0,0.0,0.0,0.0,0.0,0.0,0.0,0.0,0.0,0.0,0.0,0.0,16.223,17.0095,17.6962,0.0,18.2224,18.1511,17.9388,17.8666,17.2597,15.8997,0.0,0.0,0.0,0.0,0.0,0.0,0.0,0.0,0.0,0.0,0.0,0.0,0.0,0.0,0.0,0.0,0.0,0.0,0.0,0.0,0.0,0.0,0.0,0.0,0.0,0.0,0.0,0.0,0.0,0.0,0.0,0.0,0.0,0.0,0.0,0.0,0.0,0.0,0.0,0.0,0.0,0.0,0.0,0.0,0.0,0.0,0.0,0.0,0.0,0.0,0.0,0.0,0.0,0.0,0.0,0.0,0.0,0.0,0.0,0.0,0.0,0.0,0.0,0.0,0.0,0.0,0.0,0.0,0.0,0.0,0.0,0.0,0.0,0.0,0.0,0.0,0.0,0.0,0.0,0.0,0.0,0.0,0.0,0.0,0.0,0.0,0.0,0.0,0.0,0.0,0.0,0.0,0.0,0.0,0.0,0.0,0.0,0.0,0.0,0.0,0.0,0.0,0.0,16.6376,17.2521,0.0,17.822,17.7658,17.5954,17.4955,16.8721,15.5654,0.0,0.0,0.0,0.0,0.0,0.0,0.0,0.0,0.0,0.0,0.0,0.0,0.0,0.0,0.0,0.0,0.0,0.0,0.0,0.0,0.0,0.0,0.0,0.0,0.0,0.0,0.0,0.0,0.0,0.0,0.0,0.0,0.0,0.0,0.0,0.0,0.0,0.0,0.0,0.0,0.0,0.0,0.0,0.0,0.0,0.0,0.0,0.0,0.0,0.0,0.0,0.0,0.0,0.0,0.0,0.0,0.0,0.0,0.0,0.0,0.0,0.0,0.0,0.0,0.0,0.0,0.0,0.0,0.0,0.0,0.0,0.0,0.0,0.0,0.0,0.0,0.0,0.0,0.0,0.0,0.0,0.0,0.0,0.0,0.0,0.0,0.0,0.0,0.0,0.0,0.0,0.0,0.0,0.0,0.0,0.0,0.0,0.0,0.0,0.0,0.0,0.0,0.0,16.4093,16.9935,17.3351,17.3636,17.2932,17.1388,17.0959,16.527,15.2449,14.9972,0.0,0.0,0.0,0.0,0.0,0.0,0.0,0.0,0.0,0.0,0.0,0.0,0.0,0.0,0.0,0.0,0.0,0.0,0.0,0.0,0.0,0.0,0.0,0.0,0.0,0.0,0.0,0.0,0.0,0.0,0.0,0.0,0.0,0.0,0.0,0.0,0.0,0.0,0.0,0.0,0.0,0.0,0.0,0.0,0.0,0.0,0.0,0.0,0.0,0.0,0.0,0.0,0.0,0.0,0.0,0.0,0.0,0.0,0.0,0.0,0.0,0.0,0.0,0.0,0.0,0.0,0.0,0.0,0.0,0.0,0.0,0.0,0.0,0.0,0.0,0.0,0.0,0.0,0.0,0.0,0.0,0.0,0.0,0.0,0.0,0.0,0.0,0.0,0.0,0.0,0.0,0.0,0.0,0.0,0.0,0.0,0.0,0.0,0.0,0.0,0.0,0.0,16.2658,16.6368,17.3066,17.1639,17.0078,16.9658,16.6376,16.0925,15.3054,14.724,0.0,0.0,0.0,0.0,0.0,0.0,0.0,0.0,0.0,0.0,0.0,0.0,0.0,0.0,0.0,0.0,0.0,0.0,0.0,0.0,0.0,0.0,0.0,0.0,0.0,0.0,0.0,0.0,0.0,0.0,0.0,0.0,0.0,0.0,0.0,0.0,0.0,0.0,0.0,0.0,0.0,0.0,0.0,0.0,0.0,0.0,0.0,0.0,0.0,0.0,0.0,0.0,0.0,0.0,0.0,0.0,0.0,0.0,0.0,0.0,0.0,0.0,0.0,0.0,0.0,0.0,0.0,0.0,0.0,0.0,0.0,0.0,0.0,0.0,0.0,0.0,0.0,0.0,0.0,0.0,0.0,0.0,0.0,0.0,0.0,0.0,0.0,0.0,0.0,0.0,0.0,0.0,0.0,0.0,0.0,0.0,0.0,0.0,0.0,0.0,0.0,0.0,15.5532,16.0526,16.7644,16.6939,16.594,16.594,16.223,15.7238,15.0834,14.4172,0.0,0.0,0.0,0.0,0.0,0.0,0.0,0.0,0.0,0.0,0.0,0.0,0.0,0.0,0.0,0.0,0.0,0.0,0.0,0.0,0.0,0.0,0.0,0.0,0.0,0.0,0.0,0.0,0.0,0.0,0.0,0.0,0.0,0.0,0.0,0.0,0.0,0.0,0.0,0.0,0.0,0.0,0.0,0.0,0.0,0.0,0.0,0.0,0.0,0.0,0.0,0.0,0.0,0.0,0.0,0.0,0.0,0.0,0.0,0.0,0.0,0.0,0.0,0.0,0.0,0.0,0.0,0.0,0.0,0.0,0.0,0.0,0.0,0.0,0.0,0.0,0.0,0.0,0.0,0.0,0.0,0.0,0.0,0.0,0.0,0.0,0.0,0.0,0.0,0.0,0.0,0.0,0.0,0.0,0.0,0.0,0.0,0.0,0.0,0.0,0.0,0.0,0.0,15.5119,16.0526,16.1232,16.1374,16.1374,15.8528,15.4036,14.7583,0.0,0.0,0.0,0.0,0.0,0.0,0.0,0.0,0.0,0.0,0.0,0.0,0.0,0.0,0.0,0.0,0.0,0.0,0.0,0.0,0.0,0.0,0.0,0.0,0.0,0.0,0.0,0.0,0.0,0.0,0.0,0.0,0.0,0.0,0.0,0.0,0.0,0.0,0.0,0.0,0.0,0.0,0.0,0.0,0.0,0.0,0.0,0.0,0.0,0.0,0.0,0.0,0.0,0.0,0.0,0.0,0.0,0.0,0.0,0.0,0.0,0.0,0.0,0.0,0.0,0.0,0.0,0.0,0.0,0.0,0.0,0.0,0.0,0.0,0.0,0.0,0.0,0.0,0.0,0.0,0.0,0.0,0.0,0.0,0.0,0.0,0.0,0.0,0.0,0.0,0.0,0.0,0.0,0.0,0.0,0.0,0.0,0.0,0.0,0.0,0.0,0.0,0.0,0.0,15.5142,15.6134,15.7403,15.81,15.81,15.5254,15.1179,14.5855,0.0,0.0,0.0,0.0,0.0,0.0,0.0,0.0,0.0,0.0,0.0,0.0,0.0,0.0]}],[{"header":{"parameterUnit":"kt","parameterCategory":2,"dx":1,"dy":1,"la1":29.285339999999998,"la2":30.599998999999997,"lo1":-89.70041500000002,"lo2":-87.6738589999976,"nx":112,"ny":82,"refTime":"2022-09-26T12:00:00:Z","depth":0,"parameterNumber":2,"parameterNumberName":"V-component_of_WINDS"},"data":[7.4614,7.4042,7.3679,7.5153,7.536,7.5592,7.7125,7.7777,7.8176,7.8326,7.8719,0.0,0.0,0.0,0.0,0.0,0.0,0.0,0.0,11.8805,12.0503,12.0731,12.112,12.1168,12.0883,12.1642,12.2079,12.1699,12.2752,12.3482,12.3768,12.486,12.5607,12.6108,12.6488,12.7277,12.8643,12.8172,12.8658,13.0056,13.0056,13.0481,13.1209,13.1012,13.1969,13.3759,13.3532,13.3987,13.491,13.491,13.491,13.491,13.491,13.491,13.491,13.491,13.491,13.491,13.491,13.491,13.5018,13.5961,13.6828,13.7587,13.8531,13.9552,14.0625,14.1536,14.1341,14.1156,14.2675,14.2413,14.2067,14.3502,14.3882,14.411,14.4835,14.5029,14.5029,14.5029,14.5029,14.556,14.7224,14.7528,14.8136,14.9812,15.0496,15.0648,15.0081,15.004,15.004,15.004,15.004,15.004,15.004,15.004,15.004,15.004,15.0648,15.1291,15.2094,15.3761,15.5012,15.5813,15.7785,15.8772,15.8772,15.9607,15.9949,15.9949,15.9949,15.9949,7.4046,7.3446,7.3107,7.479,7.5077,7.5337,7.6577,7.7362,7.7754,7.7576,0.0,0.0,0.0,0.0,0.0,0.0,0.0,0.0,0.0,11.9535,12.0019,12.0408,12.0455,12.0275,11.9971,12.0987,12.1595,12.1348,12.2553,12.3493,12.3768,12.4603,12.5181,12.5759,12.5788,12.6577,12.8248,12.7747,12.8384,13.0056,13.0056,13.0298,13.0784,13.0557,13.1499,13.3335,13.3076,13.3728,13.491,13.491,13.491,13.491,13.491,13.491,13.491,13.491,13.491,13.491,13.491,13.491,13.4986,13.5625,13.6568,13.7555,13.8119,13.9063,13.9941,13.9941,13.9941,14.0126,14.0667,14.0852,14.1308,14.2979,14.3392,14.3696,14.4801,14.5029,14.5029,14.5029,14.5029,14.556,14.7224,14.7528,14.7984,14.9392,15.0303,15.0652,15.0081,15.004,15.004,15.004,15.004,15.004,15.004,15.004,15.004,15.004,15.004,15.0455,15.1184,15.2318,15.3533,15.4902,15.6609,15.7974,15.8772,15.9342,15.9684,15.9949,15.9683,15.9684,7.3181,7.308,7.3107,7.479,7.485,7.4618,7.5153,7.5724,7.5931,0.0,0.0,0.0,0.0,0.0,0.0,0.0,0.0,0.0,0.0,11.8524,11.9366,11.8776,11.8756,11.906,11.9791,12.1414,12.2069,12.1367,12.3511,12.4603,12.3826,12.4498,12.4953,12.4953,12.4953,12.5818,12.7489,12.7519,12.8384,13.0056,13.0056,13.0086,13.0101,13.0815,13.1696,13.2652,13.338,13.4215,13.491,13.491,13.491,13.491,13.491,13.491,13.491,13.491,13.491,13.491,13.491,13.491,13.491,13.491,13.608,13.7403,13.7403,13.8575,13.9941,13.9941,13.9941,13.9941,13.9941,13.9941,14.0397,14.2034,14.2456,14.2945,14.4607,14.4994,14.4994,14.5029,14.5029,14.5526,14.7224,14.7528,14.7873,14.8597,14.9509,15.0076,15.004,15.004,15.004,15.004,15.004,15.004,15.004,15.004,15.004,15.004,15.004,15.042,15.1179,15.1184,15.2358,15.4787,15.4902,15.6154,15.8734,15.8734,15.9189,15.9911,15.9152,15.919,7.3287,7.308,7.3107,7.479,7.485,7.4826,7.6167,0.0,0.0,0.0,7.7546,0.0,0.0,0.0,0.0,0.0,0.0,10.1795,11.1134,11.1431,11.2399,11.7213,11.8349,11.8832,11.906,11.9991,12.0825,12.1215,12.2477,12.3312,12.3768,12.3996,12.4405,12.4953,12.4953,12.5818,12.7489,12.7519,12.8384,13.0056,13.0056,13.0329,13.086,13.0526,13.1499,13.338,13.3063,13.3639,13.491,13.491,13.491,13.491,13.491,13.491,13.491,13.491,13.491,13.491,13.491,13.491,13.491,13.491,13.608,13.7403,13.7403,13.8575,13.9941,13.9941,13.9941,13.9941,13.9941,13.9941,14.0212,14.1351,14.1612,14.2067,14.3772,14.4152,14.4345,14.4877,14.5029,14.5332,14.6354,14.761,14.8411,14.8638,15.0,15.0724,15.0192,15.004,15.004,15.004,15.004,15.004,15.004,15.004,15.004,15.004,15.004,15.0192,15.042,15.0916,15.1862,15.3229,15.4295,15.5622,15.7024,15.7557,15.8278,15.9152,15.8924,15.8924,7.3052,7.2924,7.3055,7.451,7.4274,7.415,7.5832,0.0,7.6681,0.0,0.0,0.0,0.0,0.0,0.0,0.0,9.5699,10.1514,11.1113,11.2208,11.3204,11.654,11.7666,11.8177,11.8177,11.9563,12.0607,12.0712,12.2116,12.3266,12.3768,12.4148,12.4498,12.4953,12.4953,12.5818,12.7489,12.7519,12.8384,13.0056,13.0056,13.0284,13.0739,13.0284,13.1209,13.3183,13.2728,13.3443,13.491,13.491,13.491,13.491,13.491,13.491,13.491,13.491,13.491,13.491,13.491,13.491,13.491,13.491,13.608,13.7403,13.7403,13.8575,13.9941,13.9941,13.9941,13.9941,13.9941,13.9941,14.0169,14.1114,14.1341,14.1645,14.2979,14.3544,14.3958,14.4421,14.4801,14.5139,14.5602,14.6775,14.7651,14.7651,14.9094,15.0005,14.9549,14.9812,15.004,15.004,15.004,15.004,15.004,15.004,15.004,15.004,15.004,15.004,15.004,15.0496,15.1179,15.1974,15.3305,15.452,15.5696,15.657,15.7254,15.7784,15.8052,15.8469,0.0,0.0,0.0,0.0,7.3523,0.0,7.4841,0.0,7.553,7.668,0.0,7.9135,8.0342,0.0,0.0,9.4952,9.8563,10.3442,11.2915,11.6747,11.7921,11.6424,11.6927,11.7382,11.7382,11.9572,12.074,12.0142,12.2296,12.3721,12.3797,12.4603,12.4953,12.4953,12.4953,12.5818,12.7489,12.7519,12.8384,13.0056,13.0056,13.0056,13.0056,13.0056,13.0998,13.2607,13.2607,13.3443,13.491,13.491,13.491,13.491,13.491,13.491,13.491,13.491,13.491,13.491,13.491,13.491,13.491,13.491,13.5929,13.7143,13.736,13.8575,13.9941,13.9941,13.9941,13.9941,13.9941,13.9941,14.0169,14.0928,14.1156,14.1384,14.2295,14.3164,14.373,14.3924,14.4573,14.5029,14.5029,14.5636,14.6209,14.6209,14.7617,14.8673,14.8673,14.9509,15.004,15.004,15.004,15.004,15.004,15.004,15.004,15.004,15.004,15.004,15.004,15.004,15.0455,15.1184,15.2126,15.3305,15.4751,15.5696,15.6115,15.6152,15.7063,15.7822,0.0,0.0,0.0,0.0,0.0,7.3651,0.0,0.0,0.0,8.1429,8.3854,8.648,9.0793,9.7127,10.0756,9.7967,10.558,11.1293,10.9678,11.3634,11.663,11.6251,11.6927,11.7382,11.7382,11.8557,11.9744,12.094,12.2097,12.3026,12.3768,12.4603,12.4953,12.4953,12.4953,12.5818,12.7489,12.7519,12.8384,13.0056,13.0056,13.0056,13.0056,13.0056,13.0998,13.2607,13.2607,13.3443,13.491,13.491,13.491,13.491,13.491,13.491,13.491,13.491,13.491,13.491,13.491,13.491,13.491,13.491,13.5138,13.5657,13.7056,13.8575,13.9941,13.9941,13.9941,13.9941,13.9941,13.9941,13.9974,14.0169,14.0202,14.0625,14.2186,14.2599,14.3173,14.4539,14.4911,14.5029,14.5029,14.5636,14.6209,14.6209,14.7617,14.8673,14.8673,14.9509,15.004,15.004,15.004,15.004,15.004,15.004,15.004,15.004,15.004,15.004,15.004,15.004,15.0455,15.1184,15.2126,15.3074,15.3989,15.4751,15.5167,15.5203,15.6761,15.7216,0.0,0.0,0.0,7.3834,0.0,0.0,0.0,7.5025,7.6769,8.3615,8.5718,8.8175,9.4375,9.8403,10.0891,10.1561,10.6273,11.0269,11.1428,11.395,11.5768,11.6196,11.7334,11.8093,11.8093,11.8832,11.9715,12.0531,12.1794,12.3026,12.4346,12.4726,12.4953,12.4953,12.4953,12.5818,12.7489,12.7519,12.8384,13.0056,13.0056,13.0056,13.0056,13.0056,13.0998,13.2607,13.2607,13.3443,13.491,13.491,13.491,13.491,13.491,13.491,13.491,13.491,13.491,13.491,13.491,13.491,13.491,13.491,13.491,13.517,13.6448,13.7739,13.8889,13.9713,13.9941,13.9941,13.9941,13.9941,13.9941,13.9941,13.9941,14.0321,14.1578,14.2219,14.2903,14.4186,14.4717,14.5029,14.5029,14.5332,14.5595,14.5595,14.6665,14.761,14.8101,14.886,14.9549,15.0005,15.004,15.004,15.004,15.004,15.004,15.004,15.004,15.004,15.004,15.004,15.0232,15.0683,15.1447,15.2354,15.3153,15.3989,15.452,15.4976,15.6303,15.6646,0.0,0.0,0.0,0.0,0.0,0.0,7.4582,7.4718,7.6718,8.4186,8.662,8.9574,9.6406,9.7867,10.0046,10.6182,10.6723,10.8403,11.428,11.5242,11.5567,11.6403,11.7845,11.8804,11.9012,11.9535,11.9943,11.9943,12.1537,12.3207,12.4907,12.4953,12.4953,12.4953,12.4953,12.5818,12.7489,12.7519,12.8384,13.0056,13.0056,13.0056,13.0056,13.0056,13.0998,13.2607,13.2607,13.3443,13.491,13.491,13.491,13.491,13.491,13.491,13.491,13.491,13.491,13.491,13.491,13.491,13.491,13.491,13.491,13.505,13.5961,13.6828,13.7783,13.9258,13.9865,13.9941,13.9941,13.9941,13.9941,13.9941,14.0126,14.044,14.1341,14.2219,14.3012,14.3924,14.4607,14.5029,14.5029,14.5029,14.5029,14.5029,14.5636,14.6471,14.719,14.8107,14.8936,14.9736,15.0,15.004,15.004,15.004,15.004,15.004,15.004,15.004,15.004,15.004,15.004,15.004,15.0688,15.1483,15.2618,15.3041,15.3761,15.4711,15.5811,15.6188,0.0,0.0,0.0,0.0,7.2352,0.0,7.3623,7.4426,7.6872,8.2931,8.9231,9.5365,10.0897,10.7201,11.1839,11.2636,11.2771,11.3218,11.483,11.5692,11.6396,11.7182,11.8149,11.9032,11.9744,11.9886,11.9943,11.9943,12.1537,12.3207,12.4907,12.4953,12.4953,12.4953,12.4953,12.5818,12.7489,12.7519,12.8384,13.0056,13.0056,13.0056,13.0056,13.0056,13.0998,13.2607,13.2607,13.3443,13.491,13.491,13.491,13.491,13.491,13.491,13.491,13.491,13.491,13.491,13.491,13.491,13.491,13.491,13.491,13.505,13.5961,13.6828,13.7631,13.8607,13.9443,13.9941,13.9941,13.9941,13.9941,13.9941,14.0615,14.1351,14.2219,14.3021,14.3924,14.4683,14.4911,14.5029,14.5029,14.5029,14.5029,14.5029,14.5636,14.6244,14.6285,14.7686,14.8784,14.886,14.9585,15.004,15.004,15.004,15.004,15.004,15.004,15.004,15.004,15.004,15.004,15.004,15.0192,15.0987,15.2618,15.1898,15.2358,15.3952,15.5507,15.5885,0.0,0.0,7.1858,7.2301,0.0,0.0,7.435,7.4869,7.7032,8.3356,8.6915,9.1861,10.1523,10.5448,10.8689,11.3002,11.4147,11.4634,11.5036,11.6175,11.7079,11.7355,11.8605,11.9563,11.9915,11.9943,11.9943,11.9943,12.1537,12.277,12.3482,12.4451,12.4953,12.4953,12.4953,12.5561,12.6729,12.7231,12.8126,12.928,12.9797,13.0056,13.0056,13.0056,13.0709,13.1772,13.2348,13.3152,13.4259,13.4714,13.491,13.491,13.491,13.491,13.491,13.491,13.491,13.491,13.491,13.491,13.491,13.491,13.491,13.4986,13.5365,13.6384,13.7522,13.7859,13.8954,13.9941,13.9941,14.0354,14.0701,14.0701,14.1384,14.2253,14.3054,14.3544,14.411,14.4843,14.5029,14.5029,14.5029,14.5029,14.5029,14.5029,14.5298,14.5636,14.6092,14.6775,14.7645,14.8597,14.9053,14.9509,15.004,15.004,15.004,15.004,15.004,15.004,15.004,15.004,15.004,15.004,15.004,15.0455,15.1139,15.1179,15.1898,15.3114,15.4711,15.5243,6.9886,0.0,0.0,0.0,0.0,0.0,7.435,7.4997,7.6764,8.1458,8.3674,8.8119,9.9063,10.2118,10.5395,11.2879,11.4629,11.5063,11.5063,11.6424,11.7382,11.7382,11.8928,11.9943,11.9943,11.9943,11.9943,11.9943,12.1537,12.2495,12.2495,12.4118,12.4953,12.4953,12.4953,12.535,12.6108,12.7063,12.7914,12.8673,12.963,13.0056,13.0056,13.0056,13.0512,13.1271,13.2165,13.2728,13.3107,13.4107,13.4563,13.4594,13.479,13.491,13.491,13.491,13.491,13.491,13.491,13.491,13.491,13.491,13.491,13.491,13.491,13.6113,13.7403,13.7403,13.8694,13.9941,13.9941,14.0625,14.1351,14.1578,14.2262,14.3021,14.3696,14.4,14.4345,14.4877,14.5029,14.5029,14.5029,14.5029,14.5029,14.5029,14.5029,14.5256,14.5788,14.6023,14.6665,14.7879,14.8411,14.8936,14.962,14.9964,15.004,15.004,15.004,15.004,15.004,15.004,15.004,15.004,15.004,15.004,15.004,15.0648,15.1371,15.2202,15.3609,15.452,0.0,0.0,0.0,7.0093,7.1523,7.2746,7.2743,7.4426,7.5908,7.5563,8.0421,8.666,9.3045,9.9459,10.6253,11.3816,11.5063,11.5063,11.5063,11.6424,11.7382,11.7382,11.8928,11.9943,11.9943,11.9943,11.9943,11.9943,12.1537,12.2495,12.2495,12.4118,12.4953,12.4953,12.4953,12.535,12.6108,12.7063,12.7914,12.8673,12.963,13.0056,13.0056,13.0056,13.0512,13.1271,13.2165,13.212,13.1437,13.3076,13.3791,13.3835,13.4594,13.491,13.491,13.491,13.491,13.491,13.491,13.491,13.491,13.491,13.491,13.491,13.491,13.6113,13.7403,13.7403,13.8694,13.9941,13.9941,14.0625,14.1536,14.2262,14.3164,14.3772,14.3882,14.4421,14.5029,14.5029,14.5029,14.5029,14.5029,14.5029,14.5029,14.5029,14.5029,14.5029,14.5063,14.5719,14.6209,14.625,14.7721,14.8673,14.8784,14.9549,15.004,15.004,15.004,15.004,15.004,15.004,15.004,15.004,15.004,15.004,15.004,15.0076,15.0496,15.1259,15.2202,15.3493,6.9652,7.0119,7.0664,7.2041,7.2535,7.2978,7.4091,7.4662,7.503,7.5181,7.6944,8.1739,9.2671,9.3236,9.5661,10.6592,10.8717,11.0415,11.4471,11.6424,11.7382,11.7382,11.8928,11.9943,11.9943,11.9943,11.9943,11.9943,12.1537,12.2495,12.2495,12.4118,12.4953,12.4953,12.4953,12.5105,12.5379,12.6214,12.7033,12.7944,12.8703,12.9448,13.0056,13.0056,13.0162,13.0512,13.1285,13.1861,13.2196,13.3304,13.4031,13.4531,13.479,13.491,13.491,13.491,13.491,13.491,13.491,13.491,13.491,13.491,13.491,13.491,13.491,13.5701,13.6796,13.7295,13.8271,13.9443,14.0582,14.108,14.1645,14.3046,14.4,14.4641,14.4641,14.4835,14.5029,14.5029,14.5029,14.5029,14.5029,14.5029,14.5029,14.5029,14.5029,14.5029,14.5029,14.5256,14.5567,14.6092,14.6699,14.7458,14.8597,14.8936,14.9392,15.004,15.004,15.004,15.004,15.004,15.004,15.004,15.004,15.004,15.004,15.004,15.046,15.1219,15.1563,15.2586,6.9704,7.0223,7.095,7.2246,7.2637,7.3055,7.435,7.4666,7.4822,7.5153,7.5205,7.8542,8.9536,9.0287,9.2759,10.3236,10.7365,11.0607,11.4498,11.6202,11.7107,11.7355,11.8624,11.9668,11.9943,11.9943,11.9943,11.9943,12.1205,12.2145,12.2466,12.3768,12.4679,12.4953,12.4953,12.4953,12.4953,12.5788,12.6594,12.7519,12.8278,12.9159,13.0056,13.0056,13.0056,13.0086,13.0557,13.1271,13.2152,13.2956,13.3791,13.4518,13.4758,13.491,13.491,13.491,13.491,13.491,13.491,13.491,13.491,13.491,13.491,13.491,13.491,13.5505,13.6416,13.7175,13.8271,13.9519,14.0928,14.1764,14.2514,14.362,14.4421,14.5029,14.5029,14.5029,14.5029,14.5029,14.5029,14.5029,14.5029,14.5029,14.5029,14.5029,14.5029,14.5029,14.5029,14.5029,14.5181,14.5719,14.6016,14.6665,14.7686,14.837,14.8936,14.9544,14.9848,15.004,15.004,15.004,15.004,15.004,15.004,15.004,15.004,15.004,15.0303,15.0799,15.1108,15.1827,6.9236,6.9755,7.038,7.0925,7.1885,7.2847,7.3416,7.4402,7.5181,7.5205,7.5205,7.7141,8.3449,9.0092,9.6722,10.34,11.0177,11.471,11.5036,11.5747,11.6499,11.7334,11.8245,11.906,11.9895,11.9943,11.9943,11.9943,12.0731,12.1642,12.2466,12.3312,12.4177,12.4953,12.4953,12.4953,12.4953,12.5759,12.6548,12.7458,12.8218,12.9114,12.9934,13.0056,13.0056,13.0056,13.0056,13.0512,13.1316,13.2196,13.3076,13.3867,13.4594,13.491,13.491,13.491,13.491,13.491,13.491,13.491,13.491,13.491,13.491,13.491,13.491,13.5473,13.6373,13.7175,13.8575,14.0159,14.1114,14.259,14.3882,14.3916,14.4455,14.5029,14.5029,14.5029,14.5029,14.5029,14.5029,14.5029,14.5029,14.5029,14.5029,14.5029,14.5029,14.5029,14.5029,14.5029,14.5029,14.5029,14.5636,14.6175,14.6209,14.7686,14.8638,14.8673,14.9549,15.004,15.004,15.004,15.004,15.004,15.004,15.004,15.004,15.004,15.004,15.0076,15.0799,15.1184,6.9574,7.0638,7.1468,7.2093,7.2483,7.2951,7.399,7.4434,7.4798,7.5153,7.5205,7.574,7.7448,8.3539,9.042,9.6567,10.3596,10.9893,11.4416,11.5747,11.6499,11.7334,11.8245,11.906,11.9895,11.9943,11.9943,11.9943,12.0731,12.1642,12.2466,12.3312,12.4177,12.4953,12.4953,12.4953,12.4953,12.5151,12.5666,12.6518,12.7443,12.8218,12.9083,12.9706,13.0056,13.0056,13.0056,13.086,13.2228,13.2455,13.3348,13.4594,13.479,13.491,13.491,13.491,13.491,13.491,13.491,13.491,13.491,13.491,13.491,13.491,13.491,13.5018,13.5505,13.7056,13.8238,13.9552,14.1612,14.3012,14.3992,14.4607,14.4877,14.5029,14.5029,14.5029,14.5029,14.5029,14.5029,14.5029,14.5029,14.5029,14.5029,14.5029,14.5029,14.5029,14.5029,14.5029,14.5029,14.5029,14.5146,14.5526,14.6099,14.719,14.8101,14.8638,14.9549,15.004,15.004,15.004,15.004,15.004,15.004,15.004,15.004,15.004,15.004,15.004,15.0268,15.0688,6.934,7.056,7.1468,7.186,7.2483,7.3208,7.3859,7.4434,7.4874,7.5181,7.5205,7.5205,7.5205,8.0951,8.7734,9.4028,10.0936,10.7739,11.4151,11.5464,11.6023,11.6831,11.7638,11.8529,11.9316,11.9744,11.9943,11.9943,12.0427,12.1082,12.187,12.2752,12.3634,12.4451,12.4831,12.4953,12.4953,12.4953,12.5181,12.5637,12.6518,12.7504,12.8673,12.919,12.9417,12.9448,12.9873,13.1012,13.2607,13.2607,13.35,13.491,13.491,13.491,13.491,13.491,13.491,13.491,13.491,13.491,13.491,13.491,13.491,13.491,13.491,13.491,13.5246,13.6915,13.8314,13.9779,14.1958,14.3434,14.4455,14.4911,14.5029,14.5029,14.5029,14.5029,14.5029,14.5029,14.5029,14.5029,14.5029,14.5029,14.5029,14.5029,14.5029,14.5029,14.5029,14.5029,14.5029,14.5029,14.5029,14.5146,14.5602,14.6471,14.7265,14.8142,14.9012,14.962,15.004,15.004,15.004,15.004,15.004,15.004,15.004,15.004,15.004,15.004,15.004,15.0303,6.8847,6.9989,7.095,7.1054,7.2273,7.3468,7.3468,7.4402,7.5205,7.5205,7.5205,7.5205,7.5205,8.129,8.8203,9.3939,10.1216,10.8212,11.4081,11.5014,11.534,11.6175,11.6927,11.779,11.8633,11.9488,11.9943,11.9943,11.9943,12.0275,12.1215,12.204,12.2857,12.3768,12.4603,12.4953,12.4953,12.4953,12.4953,12.4953,12.5637,12.6791,12.8369,12.8369,12.8445,12.8703,12.9645,13.1012,13.2607,13.2683,13.3576,13.491,13.491,13.491,13.491,13.491,13.491,13.491,13.491,13.491,13.491,13.491,13.491,13.491,13.491,13.491,13.5246,13.6915,13.8542,14.0202,14.2034,14.3662,14.4877,14.5029,14.5029,14.5029,14.5029,14.5029,14.5029,14.5029,14.5029,14.5029,14.5029,14.5029,14.5029,14.5029,14.5029,14.5029,14.5029,14.4911,14.4877,14.5029,14.4911,14.4877,14.5029,14.5754,14.6513,14.7265,14.8177,14.9053,14.9848,15.0,15.004,15.004,15.004,15.004,15.004,15.004,15.004,15.004,15.004,15.004,6.8509,6.9755,7.1053,7.1495,7.2533,7.3468,7.3468,7.4402,7.5205,7.5205,7.5205,7.5205,7.5205,8.4639,9.277,9.3913,10.4286,11.2588,11.3811,11.4607,11.534,11.6175,11.6927,11.779,11.8633,11.9488,11.9943,11.9943,11.9943,12.0275,12.1215,12.204,12.2857,12.3768,12.4603,12.4953,12.4953,12.4953,12.4953,12.4953,12.5135,12.5666,12.6564,12.6564,12.7337,12.8703,12.9645,13.1012,13.2639,13.3304,13.4063,13.491,13.491,13.491,13.491,13.491,13.491,13.491,13.491,13.491,13.491,13.491,13.491,13.491,13.491,13.491,13.5246,13.6915,13.8228,13.9519,14.1873,14.324,14.4186,14.4843,14.5029,14.5029,14.5029,14.5029,14.5029,14.5029,14.5029,14.5029,14.5029,14.5029,14.5029,14.5029,14.5029,14.5029,14.5029,14.4421,14.4338,14.4911,14.4421,14.4338,14.4911,14.5754,14.625,14.6437,14.7879,14.879,14.8901,14.962,15.004,15.004,15.004,15.004,15.004,15.004,15.004,15.004,15.004,15.004,6.8353,6.9652,7.0872,7.0482,7.1495,7.2686,7.3312,7.4198,7.4869,7.5181,7.5205,7.5205,7.5205,8.0116,8.5278,8.8771,9.7606,10.5199,10.8639,11.2586,11.5242,11.5567,11.6348,11.7134,11.8017,11.8804,11.9488,11.9915,11.9943,12.0142,12.0531,12.1385,12.2278,12.3055,12.3949,12.4603,12.4953,12.4953,12.4953,12.4953,12.4953,12.5151,12.5561,12.5561,12.6501,12.8142,12.8962,13.0298,13.1924,13.2804,13.3576,13.4303,13.4746,13.491,13.491,13.491,13.491,13.491,13.491,13.491,13.491,13.491,13.491,13.491,13.491,13.491,13.5202,13.6448,13.7804,13.9172,14.0701,14.2514,14.3924,14.4338,14.4413,14.4455,14.4911,14.5029,14.5029,14.5029,14.5029,14.5029,14.5029,14.5029,14.5029,14.5029,14.5029,14.5029,14.5029,14.4649,14.4421,14.4413,14.4421,14.4421,14.4413,14.5105,14.5754,14.6175,14.6933,14.7838,14.8638,14.9129,14.9357,14.9357,14.9812,15.004,15.004,15.004,15.004,15.004,15.004,15.004,6.8275,6.96,7.0508,6.9444,7.0378,7.1883,7.3208,7.3859,7.4406,7.4978,7.5153,7.5205,7.5205,7.6247,7.8801,8.4031,9.1542,9.8535,10.3959,11.0483,11.4835,11.5063,11.5768,11.6527,11.7334,11.8245,11.9088,11.9895,11.9943,11.9943,11.9943,12.0835,12.1642,12.2466,12.3312,12.4194,12.4953,12.4953,12.4953,12.4953,12.4953,12.4953,12.4953,12.4953,12.5666,12.7033,12.8172,12.9615,13.1285,13.2379,13.3304,13.4031,13.4682,13.491,13.491,13.491,13.491,13.491,13.491,13.491,13.491,13.491,13.491,13.491,13.491,13.491,13.5138,13.5993,13.7349,13.8726,13.9713,14.1612,14.3274,14.3274,14.3544,14.4,14.4641,14.4877,14.5029,14.5029,14.5029,14.5029,14.5029,14.5029,14.5029,14.5029,14.5029,14.5029,14.5029,14.4843,14.4489,14.3924,14.4193,14.4311,14.3916,14.4413,14.5105,14.5864,14.6057,14.6775,14.8107,14.8142,14.8335,14.8673,14.9392,14.9848,15.004,15.004,15.004,15.004,15.004,15.004,6.8275,6.9314,7.0093,6.934,7.0145,7.1469,7.3077,7.3492,7.3731,7.4406,7.4874,7.5205,7.5205,7.956,8.337,8.3952,9.4081,10.2395,10.3733,10.9639,11.4125,11.5014,11.5768,11.6527,11.7334,11.8245,11.9088,11.9895,11.9943,11.9943,11.9943,12.0835,12.1642,12.2466,12.3312,12.4194,12.4953,12.4953,12.4953,12.4953,12.4953,12.4953,12.4953,12.4953,12.5076,12.5362,12.7686,12.9615,13.1285,13.2924,13.4063,13.479,13.491,13.491,13.491,13.491,13.491,13.491,13.491,13.491,13.491,13.491,13.491,13.491,13.491,13.491,13.5138,13.5993,13.6872,13.7891,13.9519,14.0701,14.1569,14.1569,14.2742,14.3882,14.3924,14.4455,14.5029,14.5029,14.5029,14.5029,14.5029,14.5029,14.5029,14.5029,14.5029,14.5029,14.5029,14.4379,14.3924,14.3882,14.3173,14.3012,14.3764,14.3924,14.4338,14.507,14.5788,14.625,14.6437,14.6437,14.7155,14.8638,14.879,14.9246,15.004,15.004,15.004,15.004,15.004,15.004,6.8249,6.9262,6.9989,6.934,6.9833,7.0769,7.1729,7.2222,7.2817,7.415,7.4614,7.4846,7.5181,7.715,7.9867,8.3396,9.1505,9.8836,10.3186,10.9492,11.4044,11.4987,11.5312,11.5822,11.6651,11.7438,11.8301,11.9212,11.9696,11.9943,11.9943,12.0247,12.0883,12.1765,12.2553,12.3435,12.4253,12.4726,12.4953,12.4953,12.4953,12.4953,12.4953,12.4953,12.4953,12.5076,12.6518,12.7504,12.84,13.1057,13.2696,13.3576,13.4531,13.491,13.491,13.491,13.491,13.491,13.491,13.491,13.491,13.491,13.491,13.491,13.491,13.491,13.4986,13.5365,13.6384,13.7587,13.8271,13.9898,14.1341,14.1341,14.1831,14.259,14.3654,14.411,14.4421,14.4911,14.5029,14.5029,14.5029,14.5029,14.5029,14.5029,14.5029,14.5029,14.5029,14.4717,14.4152,14.3164,14.3206,14.3012,14.2362,14.324,14.3958,14.4338,14.5063,14.5519,14.5519,14.5947,14.6478,14.7161,14.8177,14.8866,14.9281,14.9777,15.004,15.004,15.004,15.004,6.8197,6.9054,6.9522,6.9106,6.9444,6.9963,7.0352,7.0716,7.1495,7.329,7.407,7.4538,7.4949,7.5157,7.6585,8.0676,8.819,9.5289,10.048,10.8228,11.3821,11.4987,11.5063,11.534,11.6175,11.6927,11.779,11.8661,11.9488,11.9943,11.9943,11.9943,12.0379,12.1244,12.1822,12.2629,12.3768,12.4375,12.4726,12.4953,12.4953,12.4953,12.4953,12.4953,12.4953,12.5059,12.559,12.5986,12.6366,12.928,13.1437,13.3076,13.4335,13.491,13.491,13.491,13.491,13.491,13.491,13.491,13.491,13.491,13.491,13.491,13.491,13.491,13.491,13.491,13.6124,13.7403,13.7403,13.8997,14.0625,14.0852,14.1114,14.1612,14.2818,14.3468,14.3966,14.4573,14.4843,14.5029,14.5029,14.5029,14.5029,14.5029,14.5029,14.5029,14.5029,14.5029,14.4455,14.3021,14.3206,14.2945,14.1764,14.2751,14.351,14.3848,14.4607,14.4911,14.4649,14.5374,14.5981,14.6209,14.7383,14.8183,14.8673,14.9321,14.9777,15.004,15.004,15.004,6.8093,6.8405,6.8405,6.8405,6.8847,6.9236,6.9236,6.9236,6.9703,7.1416,7.3211,7.4462,7.4462,7.4874,7.5233,7.5289,8.4995,9.3179,9.4896,10.5212,11.3191,11.4862,11.5063,11.534,11.6175,11.6927,11.779,11.8661,11.9488,11.9943,11.9943,11.9943,12.0379,12.1244,12.1319,12.2108,12.3768,12.3797,12.4224,12.4953,12.4953,12.4953,12.4953,12.4953,12.4953,12.4953,12.4953,12.5409,12.629,12.799,13.0723,13.3804,13.4563,13.491,13.491,13.491,13.491,13.491,13.491,13.491,13.491,13.491,13.491,13.491,13.491,13.491,13.491,13.491,13.6124,13.7403,13.7403,13.8086,13.902,13.9746,14.0658,14.1341,14.1341,14.2675,14.3882,14.3882,14.4455,14.5029,14.5029,14.5029,14.5029,14.5029,14.5029,14.5029,14.5029,14.5029,14.4683,14.3924,14.3012,14.2489,14.2489,14.2489,14.2936,14.3738,14.4607,14.4649,14.3916,14.4607,14.5374,14.6175,14.6209,14.7003,14.8673,14.8673,14.9164,15.004,15.004,15.004,6.7651,6.8405,6.8899,6.8509,6.8561,6.8665,6.8665,6.8951,6.934,6.9885,7.1389,7.2951,7.4226,7.4874,7.6557,8.0537,8.7579,9.4316,9.9486,10.73,11.2936,11.4049,11.4656,11.5215,11.547,11.6175,11.6927,11.779,11.8633,11.9336,11.9943,11.9943,12.0047,12.0379,12.0968,12.1576,12.2108,12.3236,12.3949,12.4194,12.4696,12.4953,12.4953,12.4953,12.4953,12.4953,12.4953,12.5135,12.5409,12.6518,12.8233,13.0526,13.3089,13.4455,13.491,13.491,13.491,13.491,13.491,13.491,13.491,13.491,13.491,13.491,13.491,13.491,13.491,13.491,13.5733,13.6796,13.7295,13.8108,13.8987,13.9746,14.0169,14.0582,14.1156,14.1764,14.2481,14.3654,14.4,14.4379,14.4911,14.5029,14.5029,14.5029,14.5029,14.5029,14.5029,14.5029,14.4911,14.4649,14.3392,14.2262,14.1764,14.1645,14.1797,14.2067,14.2827,14.3173,14.2945,14.3173,14.3696,14.4573,14.5105,14.5864,14.6968,14.761,14.8364,14.9129,14.9129,14.9473,6.6845,6.7807,6.8561,6.8223,6.8275,6.8353,6.8171,6.8561,6.8951,6.9184,7.0222,7.1704,7.3474,7.4586,7.6367,7.9842,8.5427,9.1653,9.8403,10.5063,11.0332,11.3347,11.4526,11.5063,11.5063,11.5768,11.6424,11.6907,11.8101,11.9012,11.9488,11.9772,11.9943,11.9943,12.0484,12.094,12.1319,12.26,12.3283,12.3283,12.4177,12.4679,12.4953,12.4953,12.4953,12.4953,12.4953,12.4953,12.5076,12.5835,12.7171,12.8931,13.1406,13.3183,13.4487,13.4758,13.491,13.491,13.491,13.491,13.491,13.491,13.491,13.491,13.491,13.491,13.491,13.491,13.5537,13.6416,13.7284,13.8108,13.8987,13.9746,13.9941,14.0126,14.0658,14.108,14.1612,14.2709,14.3164,14.362,14.4421,14.4573,14.4649,14.4994,14.5029,14.5029,14.5029,14.5029,14.5029,14.5029,14.4083,14.2979,14.184,14.1764,14.1612,14.1341,14.1764,14.2034,14.2034,14.2304,14.2751,14.3282,14.3772,14.4615,14.5754,14.6313,14.719,14.8329,14.8597,14.9018,6.5652,6.6741,6.7625,6.7573,6.8015,6.8301,6.7833,6.8067,6.8561,6.9028,6.9652,7.0587,7.2251,7.3883,7.4949,7.4538,7.9787,8.6192,9.2753,9.9405,10.6112,11.2744,11.4325,11.4987,11.5063,11.5747,11.6202,11.6223,11.7797,11.8661,11.8785,11.9516,11.9943,11.9943,11.9943,12.0379,12.1196,12.2022,12.2372,12.2372,12.3312,12.4194,12.4907,12.4953,12.4953,12.4953,12.4953,12.4953,12.5076,12.5788,12.7019,12.8628,12.96,13.1423,13.3576,13.4487,13.491,13.491,13.491,13.491,13.491,13.491,13.491,13.491,13.491,13.491,13.491,13.491,13.5473,13.6373,13.7175,13.8043,13.8944,13.9746,13.9941,13.9941,13.9941,14.0625,14.1265,14.1308,14.1848,14.2683,14.362,14.373,14.4,14.4835,14.4911,14.4911,14.5029,14.5029,14.5029,14.5029,14.5029,14.4379,14.2717,14.2523,14.2186,14.1375,14.1299,14.119,14.119,14.1958,14.2304,14.2447,14.2447,14.3206,14.4835,14.4877,14.5788,14.7417,14.8142,14.8597,6.5029,6.6352,6.7521,6.7003,6.7678,6.8405,6.8275,6.8301,6.8457,6.8561,6.9054,6.9704,7.0613,7.2147,7.3679,7.4846,7.9648,8.5276,9.1154,9.7686,10.4303,11.1008,11.2633,11.3647,11.4987,11.5264,11.5567,11.6196,11.7162,11.8045,11.8756,11.9516,11.9943,11.9943,11.9943,12.0019,12.0218,12.1139,12.1595,12.1595,12.3085,12.3949,12.4148,12.4709,12.4953,12.4953,12.4953,12.4953,12.4983,12.5151,12.5835,12.6927,12.843,12.9797,13.1195,13.3272,13.4367,13.491,13.491,13.491,13.491,13.491,13.491,13.491,13.491,13.491,13.491,13.491,13.5018,13.5593,13.7067,13.7587,13.8086,13.9638,13.9941,13.9941,13.9941,14.0159,14.044,14.1156,14.1493,14.184,14.2675,14.2759,14.313,14.3958,14.4118,14.4345,14.4911,14.5029,14.5029,14.5029,14.5029,14.4607,14.3654,14.2936,14.2186,14.1375,14.0658,14.0245,14.0245,14.043,14.0886,14.1569,14.1578,14.2067,14.3054,14.3738,14.4641,14.5595,14.6437,14.7458,6.4142,6.5677,6.7132,6.677,6.7549,6.8405,6.8405,6.8405,6.8405,6.8405,6.8847,6.9444,7.0379,7.1107,7.2145,7.4091,7.926,8.507,9.1027,9.7686,10.433,11.1061,11.253,11.362,11.4987,11.5063,11.5264,11.5692,11.6424,11.721,11.8093,11.8984,11.9544,11.9943,11.9943,11.9943,11.9943,12.0427,12.0883,12.1348,12.2184,12.3067,12.3797,12.4253,12.465,12.4953,12.4953,12.4953,12.4953,12.4953,12.5438,12.626,12.7201,12.8567,13.0162,13.1513,13.3045,13.4442,13.4758,13.491,13.491,13.491,13.491,13.491,13.491,13.491,13.491,13.491,13.5234,13.5733,13.6644,13.7511,13.8271,13.9215,13.9713,13.9941,13.9941,13.9941,14.0126,14.0591,14.0691,14.0928,14.1806,14.1958,14.2253,14.3054,14.3544,14.3992,14.4413,14.4835,14.5029,14.5029,14.5029,14.4835,14.4413,14.362,14.2751,14.1848,14.1047,14.0397,13.9974,13.9941,14.0169,14.0658,14.0691,14.1114,14.1958,14.2481,14.3274,14.4455,14.5298,14.632,6.3462,6.5053,6.6693,6.677,6.7626,6.8405,6.8405,6.8405,6.8405,6.8405,6.8743,6.9392,7.0379,7.0405,7.0899,7.2691,7.7801,8.4057,9.1227,9.7983,10.4749,11.139,11.2883,11.3691,11.4786,11.5014,11.5063,11.5063,11.5768,11.663,11.7355,11.8301,11.9088,11.9943,11.9943,11.9943,11.9943,11.9943,12.0275,12.112,12.1225,12.2079,12.3464,12.3721,12.4206,12.4831,12.4924,12.4953,12.4953,12.4953,12.5379,12.6016,12.6079,12.7564,12.9676,12.9904,13.1468,13.35,13.4367,13.479,13.491,13.491,13.491,13.491,13.491,13.491,13.491,13.491,13.5461,13.6113,13.6221,13.7392,13.8575,13.8759,13.941,13.9941,13.9941,13.9941,13.9941,13.9941,13.9941,14.0202,14.0928,14.1114,14.1351,14.2219,14.2979,14.3468,14.3654,14.4345,14.4835,14.4835,14.4911,14.5029,14.5029,14.4338,14.3468,14.2523,14.184,14.1047,13.9974,13.9941,13.9941,13.9941,13.9941,14.0354,14.1114,14.1265,14.2058,14.3468,14.4413,14.5256,6.3906,6.5365,6.6822,6.734,6.7963,6.8405,6.8405,6.8405,6.8405,6.8405,6.8509,6.8613,6.8769,6.9911,7.0768,7.0691,7.3084,7.8703,8.9388,9.6468,10.2943,10.9627,11.1087,11.22,11.3794,11.4607,11.5063,11.5063,11.5768,11.663,11.7355,11.8301,11.9088,11.9943,11.9943,11.9943,11.9943,11.9943,11.9991,12.0171,12.094,12.1424,12.1699,12.319,12.392,12.4025,12.4679,12.4953,12.4953,12.4953,12.5076,12.5211,12.5881,12.6851,12.8126,12.9555,13.0739,13.1786,13.3348,13.4303,13.491,13.491,13.491,13.491,13.491,13.491,13.491,13.491,13.4986,13.5278,13.6101,13.6936,13.7848,13.8575,13.941,13.9941,13.9941,13.9941,13.9941,13.9941,13.9941,13.9974,14.0136,14.0169,14.044,14.1341,14.1578,14.1958,14.2565,14.3468,14.4,14.4,14.4641,14.5029,14.5029,14.4338,14.3468,14.2523,14.2337,14.1578,13.9984,13.9941,13.9941,13.9941,13.9941,13.9984,14.0169,14.0928,14.1417,14.1764,14.3274,14.4421,6.4326,6.5393,6.6379,6.6951,6.7547,6.8067,6.8379,6.8405,6.8405,6.8405,6.8405,6.8509,6.8795,6.947,7.0041,7.0172,7.1495,7.5569,8.4385,9.4334,10.2024,10.5651,10.9523,11.2405,11.3615,11.4553,11.5063,11.5063,11.5443,11.5974,11.67,11.759,11.8377,11.926,11.9715,11.9943,11.9943,11.9943,11.9943,11.9943,12.0379,12.0835,12.1348,12.2108,12.2734,12.3114,12.3966,12.4375,12.4405,12.4831,12.5211,12.5607,12.5561,12.6577,12.8202,12.8506,12.9767,13.1285,13.212,13.3183,13.4303,13.4758,13.491,13.491,13.491,13.491,13.491,13.491,13.491,13.4986,13.5429,13.6156,13.7024,13.7848,13.8726,13.9443,13.9898,13.9941,13.9941,13.9941,13.9941,13.9941,13.9941,13.9941,14.0126,14.0549,14.1038,14.1417,14.1806,14.2557,14.313,14.313,14.3434,14.3856,14.4345,14.362,14.2751,14.1848,14.1384,14.0591,13.941,13.9291,13.9291,13.9291,13.9713,13.9941,13.9941,14.0397,14.0852,14.1341,14.2101,14.2936,6.4821,0.0,6.6016,6.6562,6.7055,6.7573,0.0,6.8223,6.8275,6.8431,6.8405,6.8561,6.8951,6.9132,6.934,6.9886,7.0872,7.3794,8.0328,9.0086,9.7411,9.9602,10.586,11.0291,11.1134,11.3369,11.4835,11.5063,11.5063,11.547,11.6196,11.6831,11.7638,11.8756,11.9316,11.9696,11.9696,11.9791,11.9943,11.9943,11.9943,12.0275,12.0968,12.1196,12.1623,12.2239,12.3085,12.3674,12.3826,12.4451,12.5151,12.5835,12.5409,12.6472,12.8081,12.7898,12.8962,13.0709,13.1057,13.2196,13.3607,13.4335,13.4726,13.491,13.491,13.491,13.491,13.491,13.491,13.491,13.491,13.5537,13.6405,13.7056,13.7848,13.8716,13.9486,13.9704,13.9713,13.9908,13.9941,13.9941,13.9941,13.9941,13.9941,13.9941,14.0582,14.1038,14.1038,14.173,14.2219,14.2219,14.2337,14.2751,14.3468,14.2717,14.1991,14.1341,14.0658,13.9865,13.8825,13.8792,13.8716,13.8488,13.903,13.9377,13.9377,13.9605,14.0159,14.1038,14.119,14.1764,0.0,6.5885,6.6016,6.6562,6.6718,6.6926,6.7573,6.7702,0.0,6.8327,6.8405,6.8405,6.8457,6.8899,6.9236,6.9236,7.0249,7.3233,7.9634,8.1869,8.5084,9.1084,9.8082,10.2759,10.3698,10.987,11.4147,11.5041,11.5063,11.547,11.6196,11.6278,11.7114,11.8728,11.8804,11.8832,11.8832,11.9535,11.9943,11.9943,11.9943,11.9971,12.0019,12.0911,12.1348,12.1424,12.2249,12.3026,12.3797,12.392,12.4375,12.5135,12.5805,12.6214,12.6518,12.802,12.8673,12.9098,13.0709,13.1893,13.2804,13.3563,13.4322,13.491,13.491,13.491,13.491,13.491,13.491,13.491,13.491,13.5537,13.6253,13.6373,13.6936,13.7783,13.8716,13.8835,13.9063,13.9865,13.9941,13.9941,13.9941,13.9941,13.9941,13.9941,14.0007,14.0093,14.0093,14.0852,14.1384,14.1384,14.2034,14.2489,14.2565,14.184,14.1351,14.1341,14.1299,14.0463,13.8835,13.8792,13.8347,13.7555,13.7587,13.7598,13.7598,13.8488,13.9258,14.0093,14.0895,14.1764,6.5029,6.5289,6.5444,6.6016,6.6172,6.6327,6.6899,6.734,6.7702,6.7885,6.8171,6.8405,6.8405,6.8613,6.8691,6.8691,6.973,7.1537,7.4595,7.5594,7.9956,9.079,10.1291,10.7687,10.811,11.1531,11.3843,11.4174,11.4759,11.5242,11.5519,11.5968,11.6499,11.7162,11.719,11.7666,11.8756,11.906,11.9468,11.9943,11.9943,11.9943,11.9971,12.0247,12.0455,12.0474,12.1367,12.1927,0.0,12.3417,12.4603,12.5759,12.6032,12.7185,12.8597,12.8643,12.9053,12.9615,13.0284,13.1043,13.1741,13.2089,13.3076,13.4215,13.4215,13.4215,13.4291,13.4758,13.491,13.491,13.491,13.517,13.5537,13.6145,13.6481,13.7088,13.8488,13.8792,13.902,13.9756,13.9941,13.9941,13.9941,13.9941,13.9941,13.9941,13.9941,13.9941,13.9941,14.0212,14.044,14.044,14.0701,14.0895,14.0895,14.0625,14.044,14.044,14.0007,13.9443,13.8792,13.8271,13.7783,13.7403,13.7403,13.7403,13.7403,13.7783,13.8086,13.8379,13.9291,13.9898,6.4274,6.443,6.4586,6.5209,6.5338,6.5521,6.6275,6.6768,6.7209,6.7598,6.7936,6.8171,6.8171,6.8301,6.8353,6.8223,6.9288,7.0457,7.1339,7.2172,7.6845,8.8065,9.6828,10.3534,10.7402,11.0917,11.3133,11.3664,11.4298,11.4781,11.5063,11.5567,11.5892,11.5892,11.6147,11.6831,11.7921,11.8177,11.8756,11.9535,11.9535,11.9715,11.9943,11.9943,11.9943,11.9971,12.0636,12.0987,12.1395,12.2564,12.3768,12.5076,12.5835,12.7049,12.8476,12.8931,12.9341,12.9645,12.9904,13.0557,13.1209,13.1209,13.2165,13.338,13.3639,13.3563,13.3532,13.4322,13.4714,13.491,13.491,13.491,13.5018,13.5689,13.5853,13.6221,13.7652,13.8032,13.8303,13.941,13.9605,13.9671,13.9908,13.9941,13.9941,13.9941,13.9941,13.9941,13.9941,13.9941,13.9941,13.9941,13.9941,13.9941,13.9941,13.9941,13.9941,13.9941,13.9443,13.902,13.8792,13.7891,13.7327,13.7067,13.6796,13.6644,13.6644,13.6904,13.7067,13.7099,13.8,13.8531,6.3202,6.3358,6.3514,6.3986,6.4142,6.4454,6.5625,6.5885,6.6196,6.739,6.765,6.7625,6.7625,6.8067,6.8197,6.7729,6.908,7.0353,7.0898,7.1937,7.5079,8.1572,8.2302,8.7169,9.9382,10.7018,11.1896,11.3562,11.3664,11.4098,11.5041,11.5063,11.5063,11.5063,11.5795,11.6223,11.6223,11.6982,11.7838,11.8756,11.8785,11.9212,11.9943,11.9943,11.9943,11.9943,11.9943,12.0455,12.1244,12.1319,12.1794,12.2723,12.5151,12.5637,12.5409,12.8734,12.9448,12.8855,12.9706,13.0557,13.1209,13.1209,13.1772,13.2683,13.35,13.3152,13.2715,13.3532,13.4291,13.491,13.491,13.491,13.491,13.491,13.491,13.517,13.6101,13.6221,13.6741,13.8455,13.8792,13.902,13.9865,13.9941,13.9941,13.9941,13.9941,13.9941,13.9941,13.9941,13.9941,13.9941,13.9941,13.9941,13.9941,13.9941,13.9941,13.9941,13.9941,13.9638,13.8825,13.7967,13.7099,13.6253,13.5397,13.491,13.491,13.5765,13.6221,13.6221,13.7056,13.7859,6.3306,6.3358,6.341,6.3566,6.3906,6.4246,6.461,6.5313,6.5989,6.6377,6.6716,6.6951,6.6951,6.7081,6.7314,6.7573,6.8665,6.9937,7.1285,7.2172,7.6845,8.8119,8.9168,9.3748,10.6041,10.914,11.0784,11.187,11.3057,11.3843,11.4098,11.4125,11.4374,11.5063,11.5291,11.5692,11.6223,11.6479,11.6982,11.7817,11.8501,11.886,11.9116,11.9687,11.9943,11.9943,11.9943,12.0123,12.0399,12.0987,12.2126,12.3493,12.4224,12.5409,12.6927,12.7898,12.843,12.8855,12.9706,13.0162,13.036,13.036,13.0967,13.1665,13.1924,13.1772,13.1772,13.2652,13.3076,13.338,13.3955,13.4487,13.491,13.491,13.491,13.517,13.6101,13.6221,13.66,13.762,13.8336,13.8835,13.9063,13.9605,13.9941,13.9941,13.9941,13.9941,13.9941,13.9941,13.9941,13.9941,13.9941,13.9941,13.9941,13.9941,13.9941,13.9941,13.9941,13.9898,13.9638,13.8802,13.8,13.7099,13.6308,13.5505,13.491,13.5202,13.5278,13.5278,13.5505,13.6145,6.2682,6.2682,6.2734,6.2918,6.3414,6.3906,6.409,6.4845,6.5573,6.5833,6.612,6.6354,6.6354,6.6743,6.7107,6.7236,6.8561,7.0093,7.152,7.2454,7.7036,8.7855,8.8877,9.2459,10.2131,10.5175,10.6708,10.7223,11.0651,11.2705,11.2705,11.3084,11.3642,11.4531,11.4553,11.4987,11.5768,11.5768,11.6175,11.6927,11.7466,11.7921,11.8273,11.9088,11.9488,11.9488,11.9763,11.9943,11.9991,12.094,12.188,12.2886,12.392,12.5181,12.6577,12.7261,12.7792,12.8369,12.919,12.9539,12.9569,12.9904,13.0101,13.0222,13.0222,13.0481,13.0936,13.1772,13.2,13.2196,13.3076,13.3607,13.4031,13.4335,13.4682,13.5018,13.5625,13.5701,13.5961,13.6828,13.7392,13.8032,13.8716,13.9182,13.9638,13.9908,13.9941,13.9941,13.9941,13.9941,13.9941,13.9941,13.9941,13.9941,13.9941,13.9941,13.9941,13.9941,13.9941,13.9941,13.9941,13.9215,13.8531,13.8,13.7132,13.634,13.5461,13.5461,13.5246,13.491,13.491,13.5202,6.1618,6.1618,6.1751,6.2172,6.2791,6.341,6.3934,6.4482,6.5029,6.5677,6.5833,6.5833,6.5885,6.6845,6.7469,6.6926,6.8717,7.0613,7.1675,7.2793,7.6068,8.3142,8.3977,8.6233,9.1988,9.7805,10.123,10.123,10.7382,11.1061,11.1061,11.1949,11.2758,11.3589,11.3664,11.4098,11.4987,11.5036,11.547,11.6175,11.6196,11.6624,11.7334,11.8245,11.8633,11.8661,11.9488,11.9791,11.9915,12.0759,12.1215,12.1623,12.3768,12.4831,12.5151,12.6729,12.7291,12.7489,12.8248,12.8597,12.8703,12.9569,12.922,12.8597,12.8597,12.9129,12.9994,13.0754,13.0981,13.1209,13.2165,13.2455,13.2652,13.3411,13.4227,13.4758,13.4758,13.4878,13.517,13.5961,13.6188,13.6709,13.8271,13.8716,13.902,13.9713,13.9908,13.9941,13.9941,13.9941,13.9941,13.9941,13.9941,13.9941,13.9941,13.9941,13.9941,13.9941,13.9941,13.9941,13.9941,13.9258,13.8835,13.8792,13.8,13.7132,13.6405,13.6405,13.5917,13.5018,13.5018,13.4986,6.1618,6.1618,6.1647,6.1751,6.2219,6.2767,6.3386,6.3934,6.4482,6.5029,6.5133,6.5289,6.5781,6.6845,6.7729,6.799,6.96,7.1158,7.2328,7.3052,7.6068,8.3142,8.3977,8.6233,9.1988,9.7805,10.123,10.123,10.6865,11.0278,11.0278,11.1011,11.1873,11.2735,11.3388,11.3816,11.4049,11.4759,11.5112,11.5318,11.5974,11.6375,11.6499,11.7334,11.7666,11.779,11.8605,11.904,11.906,11.9924,12.0987,12.2249,12.2097,12.3266,12.5059,12.5379,12.5894,12.6577,12.7458,12.7747,12.7792,12.8005,12.7944,12.7747,12.7747,12.7929,12.8202,12.9053,12.9204,12.9584,13.1088,13.1482,13.171,13.2639,13.3411,13.4019,13.4019,13.4487,13.4974,13.517,13.5765,13.6405,13.6709,13.788,13.8835,13.902,13.9552,13.9941,13.9941,13.9941,13.9941,13.9941,13.9941,13.9941,13.9941,13.9941,13.9941,13.9941,13.9941,13.9941,13.9941,13.9779,13.9443,13.8792,13.8564,13.8076,13.7143,13.7143,13.6796,13.5961,13.5961,13.5625,6.1618,6.1618,6.1618,6.1618,6.1988,6.2507,6.2843,6.357,6.4222,6.4482,6.4769,6.5108,6.5781,6.6612,6.7443,6.8301,6.96,7.1081,7.2511,7.3132,7.507,7.9256,7.9811,8.0955,8.3949,8.9541,9.4125,9.6882,9.9928,10.2863,10.5648,10.6245,10.8099,11.1794,11.2276,11.2705,11.3164,11.4049,11.4374,11.4401,11.5264,11.5692,11.5719,11.6479,11.6851,11.6907,11.7762,11.8093,11.8149,11.9032,12.0142,12.1309,12.166,12.2886,12.4481,12.4877,12.5211,12.5729,12.6548,12.6821,12.6745,12.6029,12.6274,12.6821,12.6821,12.7185,12.7564,12.799,12.8142,12.843,12.9629,13.0025,13.0298,13.1634,13.2196,13.2652,13.3076,13.3804,13.4303,13.4303,13.5018,13.5733,13.6177,13.6969,13.7739,13.8076,13.8835,13.941,13.941,13.941,13.9519,13.9908,13.9941,13.9941,13.9941,13.9941,13.9941,13.9941,13.9941,13.9941,13.9941,13.9941,13.9746,13.9324,13.9324,13.8954,13.8076,13.8076,13.762,13.6828,13.6416,13.5993,6.1618,6.1618,6.1618,6.1618,6.1988,6.238,6.238,6.3235,6.3986,6.3986,6.4378,6.4873,6.5625,6.6251,6.7081,6.8249,6.9444,7.0717,7.2301,7.3,7.3779,7.4973,7.5181,7.5205,7.5205,8.0537,8.5931,9.0693,9.0058,9.253,9.9369,9.9742,10.2299,10.7809,10.8965,10.9417,10.9284,11.2126,11.3007,11.2013,11.3942,11.4835,11.4835,11.5692,11.5426,11.4513,11.5282,11.5053,11.4189,11.6144,11.7445,11.8373,12.0832,12.2506,12.3464,12.4148,12.4422,12.465,12.5333,12.5607,12.5307,12.2747,12.3523,12.5547,12.5729,12.6274,12.6957,12.7215,12.7261,12.7458,12.8248,12.8476,12.8886,13.0374,13.0754,13.1026,13.212,13.2848,13.3367,13.3532,13.4031,13.4758,13.5689,13.5949,13.634,13.7099,13.8032,13.8575,13.8759,13.8683,13.8835,13.9671,13.9898,13.9941,13.9941,13.9941,13.9941,13.9941,13.9941,13.9941,13.9941,13.9941,13.9941,13.9941,13.9941,13.9671,13.8987,13.8987,13.8531,13.7631,13.7024,13.6633,6.1618,6.1618,6.1618,6.1618,6.1988,6.238,6.238,6.2947,6.3462,6.3462,6.3514,6.3906,6.4873,6.5939,6.7081,6.8249,6.9444,7.0561,7.1675,7.2429,7.3263,7.4434,7.4978,7.5205,7.5205,8.0537,8.4308,8.5022,8.0397,8.2232,9.3136,9.3693,9.4137,9.5131,9.9987,10.0573,9.6402,10.7204,11.013,10.5165,11.1082,11.387,11.3892,11.4808,11.2336,10.7371,10.8096,10.5544,10.121,10.7294,11.0324,11.1563,11.7058,12.0228,12.1652,12.1699,12.2249,12.2799,12.2951,12.3482,12.3011,11.6511,11.8289,12.3073,12.392,12.4194,12.4633,12.5986,12.632,12.6548,12.7458,12.7701,12.7914,12.8825,12.9053,12.9432,13.1026,13.1468,13.1741,13.2607,13.2835,13.3139,13.3955,13.4594,13.5397,13.6253,13.7099,13.7859,13.8716,13.8076,13.8,13.8835,13.9519,13.9941,13.9941,13.9941,13.9941,13.9941,13.9941,13.9941,13.9941,13.9941,13.9941,13.9941,13.9941,13.9908,13.9756,13.9756,13.941,13.8575,13.8499,13.8043,6.1618,6.1618,6.1618,6.1618,6.1803,6.1959,6.1959,6.2427,6.2843,6.2843,6.3126,6.3698,6.4717,6.5652,6.6691,6.8197,6.9444,7.0561,7.1597,7.2301,7.2978,7.3807,7.443,7.4822,7.4822,7.741,8.0425,8.3758,7.8282,7.84,8.67,8.7527,8.9186,9.2503,9.5042,9.5308,9.3179,10.2304,10.5671,10.3155,10.6544,10.8139,10.8085,10.5138,10.2589,10.0388,10.0751,9.9539,9.761,10.0699,10.2424,10.3494,10.6628,10.8588,10.9748,11.0496,11.332,11.6187,11.2982,11.181,11.179,11.2148,11.4475,11.785,12.184,12.3055,12.3207,12.3908,12.4451,12.5088,12.5864,12.6472,12.6973,12.7792,12.799,12.8369,12.9569,12.9812,13.0222,13.1513,13.2196,13.2683,13.3063,13.3348,13.3759,13.4095,13.4822,13.5473,13.5917,13.5645,13.5689,13.6536,13.6969,13.7392,13.7848,13.7848,13.8076,13.8531,13.8542,13.8542,13.8542,13.8542,13.8542,13.8542,13.8542,13.8542,13.8542,13.8542,13.8347,13.8043,13.8043,13.7815,6.1364,6.1491,6.1618,6.1618,6.1699,6.1803,6.1803,6.2247,6.2663,6.2663,6.3022,6.3698,6.4745,6.5444,6.6404,6.7963,6.9054,7.0093,7.1208,7.1858,7.2508,7.3208,7.3706,7.407,7.4226,7.443,7.6402,8.0807,7.6667,7.5928,8.0326,8.2541,8.5038,8.7855,8.9506,9.0358,9.0358,9.3832,9.6375,9.7903,10.0165,10.1283,10.1105,9.6946,9.4486,9.3519,9.3519,9.2841,9.189,9.3418,9.4439,9.5346,9.7425,9.8855,9.978,10.0876,10.4558,10.7969,9.9986,9.8927,10.1587,10.4923,10.7578,11.0445,11.5532,11.8371,11.9754,11.9949,12.1711,12.3569,12.4194,12.4924,12.5788,12.6699,12.7033,12.7443,12.8218,12.84,12.8734,13.0056,13.0981,13.1544,13.1544,13.1924,13.2348,13.2576,13.3076,13.3367,13.3107,13.3304,13.3759,13.4518,13.4822,13.5265,13.5885,13.5949,13.6188,13.6796,13.6828,13.6872,13.7099,13.7132,13.7284,13.7403,13.7403,13.7403,13.7403,13.7403,13.7403,13.7403,13.7403,13.7403,6.0672,6.1133,6.1618,6.1618,6.1988,6.238,6.238,6.2843,6.3306,6.3306,6.3358,6.3698,6.4696,6.5472,6.63,6.7494,6.8119,6.895,7.012,7.069,7.1469,7.2612,7.2771,7.2978,7.3468,7.3107,7.2956,7.3231,7.2986,7.314,7.3936,7.975,8.0691,7.5547,8.1284,8.4419,8.4419,7.9252,7.9419,8.4998,9.1356,9.4387,9.4397,9.4841,9.1923,8.6629,8.6629,8.3314,7.8439,8.4252,8.6688,8.7281,9.3003,9.6157,9.7373,9.7409,9.8877,9.8782,8.481,8.7813,9.7005,9.1825,9.4643,10.038,10.1998,10.7127,11.2431,11.3235,11.782,12.2542,12.2571,12.3254,12.4148,12.4936,12.5666,12.6488,12.7413,12.7534,12.7564,12.7686,12.8369,12.887,12.887,13.0253,13.1544,13.2424,13.2639,13.2348,13.1468,13.212,13.2911,13.3759,13.4487,13.4942,13.4954,13.505,13.5158,13.5018,13.5018,13.5429,13.6253,13.634,13.6644,13.7371,13.7403,13.7403,13.7403,13.7403,13.7403,13.7403,13.7403,13.7403,5.9939,6.0302,6.0585,6.0926,6.1111,6.1474,6.2224,6.2559,6.2843,6.3306,6.3358,6.3594,6.4326,6.5261,6.6144,6.6899,6.8068,6.9054,6.947,7.0379,7.1106,7.1521,7.1858,7.2145,7.2298,7.1547,7.1081,7.1081,7.1704,7.2298,7.2924,7.5877,7.6735,7.5006,7.7158,7.8358,7.8358,7.6279,7.8188,8.3977,8.6394,8.7497,8.7392,8.3861,8.1315,7.9634,7.9634,7.8621,7.7119,7.9343,8.0259,8.0431,8.2575,8.3767,8.4248,8.4558,8.7781,9.056,8.1291,8.132,8.5785,8.7784,9.0045,9.2944,9.7557,10.3705,10.9073,10.9326,11.4562,12.0123,12.0123,12.0702,12.1385,12.1642,12.2372,12.3266,12.4118,12.4709,12.5409,12.6472,12.6851,12.7231,12.7792,12.843,12.9114,12.9918,12.9615,12.919,12.8886,12.9144,12.9417,12.9736,13.0025,13.0343,13.0813,13.0981,13.1209,13.1741,13.1741,13.2152,13.2956,13.2576,13.2639,13.3411,13.2911,13.2911,13.3411,13.3411,13.3759,13.4322,13.5309,13.5885,5.8796,5.9286,5.9753,6.028,6.0517,6.0932,6.2097,6.2559,6.2895,6.349,6.375,6.4062,6.4662,6.5365,6.6092,6.6614,6.7808,6.8743,6.8899,6.9781,7.0456,7.0638,7.0975,7.1235,7.1235,7.0249,6.9834,7.0405,7.0925,7.152,7.2328,7.3471,7.4274,7.461,7.4997,7.5205,7.5205,7.5205,7.7178,8.1038,8.1038,8.1038,8.0927,7.6981,7.5412,7.5747,7.5747,7.5983,7.6375,7.6375,7.6375,7.6375,7.6375,7.6502,7.671,7.7044,7.9758,8.2575,7.8367,7.7183,7.8243,8.2606,8.4128,8.516,8.9585,9.5613,10.0935,10.0935,10.7568,11.4653,11.4903,11.6995,11.9184,11.9488,12.0199,12.0958,12.1537,12.2097,12.2886,12.4224,12.4696,12.5303,12.6501,12.6851,12.7307,12.8172,12.7868,12.7443,12.7049,12.7291,12.7519,12.7519,12.7519,12.7716,12.8218,12.8248,12.8506,12.9144,12.9159,12.9569,13.0329,12.9873,12.9994,13.0784,13.0314,13.0314,13.0815,13.0815,13.1088,13.1758,13.2804,13.3443,5.7281,5.8112,5.9122,5.9649,6.0176,6.0828,6.2045,6.2843,6.3462,6.3986,6.451,6.5081,6.5729,6.5885,6.6092,6.6562,6.7184,6.7781,6.8327,6.8847,6.9418,7.0068,7.012,7.012,7.012,6.9106,6.9132,7.0741,7.0457,7.0587,7.1675,7.2817,7.3443,7.344,7.4558,7.5153,7.5181,7.5153,7.5181,7.5205,7.5205,7.5205,7.5205,7.5205,7.5205,7.5205,7.5205,7.5205,7.5205,7.5205,7.5205,7.5205,7.5205,7.554,7.5978,7.5978,7.5667,7.5205,7.5205,7.5205,7.5337,7.5799,7.6398,7.6998,7.7511,8.2497,8.7955,8.7955,9.667,10.6219,10.7117,11.2179,11.7292,11.8349,11.924,11.9763,11.9791,11.9895,12.0171,12.112,12.187,12.298,12.465,12.5577,12.6366,12.7291,12.7443,12.7033,12.6108,12.6805,12.7443,12.7443,12.7443,12.7443,12.7443,12.7443,12.7443,12.7443,12.7443,12.7747,12.8476,12.8476,12.8901,12.9828,12.9828,12.9828,12.9858,12.9858,12.9873,12.9904,12.9904,13.0329,5.5836,5.6303,5.6792,5.7779,5.8121,5.8662,6.0221,6.0978,6.1705,6.2692,6.3678,6.443,6.4586,6.5338,6.5937,6.6092,6.6587,6.7158,6.7781,6.8327,6.8872,6.9418,6.947,6.9314,6.895,6.8951,6.9184,6.9651,6.9963,7.0587,7.1675,7.2039,7.2429,7.2899,7.2793,7.3077,7.3959,7.3599,7.4042,7.5205,7.4846,7.4846,7.5205,7.5205,7.5205,7.5205,7.5205,7.5205,7.5205,7.5205,7.5205,7.5205,7.5205,7.5337,7.5412,7.5412,7.536,7.5205,7.5205,7.5205,7.5233,7.5384,7.5568,7.5752,7.5908,8.063,8.5946,8.5946,9.1824,9.9175,10.3646,10.6143,10.8812,11.3954,11.5768,11.6603,11.7134,11.8253,11.9316,12.0171,12.0987,12.2126,12.3826,12.4346,12.4696,12.559,12.465,12.3739,12.3511,12.4241,12.5088,12.562,12.5666,12.5666,12.5666,12.5666,12.5409,12.489,12.486,12.4936,12.5135,12.4498,12.462,12.5544,12.4907,12.4877,12.5574,12.5574,12.6092,12.7231,12.7231,12.799,5.355,5.3945,5.4485,5.5929,5.6262,5.6761,5.8692,5.9575,6.025,6.1133,6.2455,6.3443,6.3443,6.4378,6.5157,6.5157,6.5808,6.6483,6.6845,6.7366,6.7912,6.8509,6.8327,6.8198,6.8405,6.8509,6.8872,6.9522,6.9704,7.0275,7.1312,7.1624,7.1883,7.2273,7.2429,7.2662,7.3132,7.3052,7.3651,7.4869,7.4618,7.469,7.5205,7.5205,7.5205,7.5205,7.5205,7.5205,7.5205,7.5205,7.5205,7.5205,7.5205,7.5205,7.5205,7.5205,7.5205,7.5205,7.5205,7.5205,7.5205,7.5205,7.5205,7.5205,7.5205,7.7926,8.1037,8.126,8.5691,9.1314,9.5365,9.8061,10.1337,10.8004,10.9968,11.1135,11.4017,11.6023,11.7445,11.8273,11.9412,12.0731,12.2506,12.2792,12.3038,12.3785,12.3055,12.2495,12.2495,12.2951,12.3464,12.392,12.3937,12.3937,12.3937,12.3937,12.3739,12.3254,12.3266,12.3266,12.3266,12.2752,12.2723,12.3236,12.2752,12.2951,12.3797,12.3797,12.4451,12.5637,12.5637,12.5835,5.0972,5.1525,5.2356,5.3995,5.4431,5.4983,0.0,5.7987,5.8654,5.9182,6.0689,6.1964,6.2016,6.3027,6.3934,6.4038,6.4949,6.5729,6.5885,6.6327,6.6795,6.7365,6.6976,6.7029,6.8093,6.7807,6.8196,6.986,6.9418,6.9625,7.0768,7.126,7.1468,7.152,7.2481,7.2872,7.2612,7.3,7.3599,7.4302,7.4278,7.451,7.5025,7.5025,7.5025,7.5025,7.5025,7.5049,7.5153,7.5205,7.5205,7.5205,7.5205,7.5153,7.5025,7.5025,7.5025,7.5025,7.5025,7.5025,7.5025,7.5025,7.5049,7.5157,7.5053,7.5153,7.5337,7.5724,7.9327,8.352,8.5431,8.9485,9.4618,10.1216,10.3299,10.5212,11.051,11.3493,11.5291,11.612,11.7569,11.9116,12.0864,12.1139,12.1338,12.1812,12.2011,12.2069,12.2069,12.2239,12.2314,12.2314,12.2372,12.2495,12.2495,12.2495,12.2372,12.221,12.2145,12.2087,12.1888,12.1888,12.1917,12.2069,12.2069,12.2495,12.3417,12.3417,12.3768,12.4603,12.4451,12.3692,0.0,0.0,0.0,0.0,0.0,0.0,0.0,5.4101,5.5046,5.5659,5.7467,5.9108,5.962,6.1023,6.2398,6.3358,6.4062,6.4793,6.5781,6.5964,6.6092,6.6196,6.6144,6.6275,6.6926,6.6926,6.7418,6.869,6.8665,6.908,7.0276,6.9937,6.9937,7.0457,7.0197,7.0637,7.1883,7.1573,7.2222,7.3651,7.3263,7.3315,7.3803,7.3803,7.3803,7.3803,7.3803,7.4091,7.4642,7.5053,7.5205,7.5205,7.5205,7.4634,7.3803,7.3803,7.3803,7.3803,7.3803,7.3803,7.3803,7.3803,7.4198,7.4486,7.3987,7.4454,7.5181,7.485,7.6106,7.8717,8.3705,8.613,8.8838,9.4942,10.0042,10.4026,10.5978,11.0984,11.5291,11.612,11.6982,11.8245,11.9943,12.0199,11.9763,11.8577,11.9032,11.9488,11.9488,12.0683,12.1576,12.1576,12.2097,12.2495,12.2495,12.2495,12.1859,12.0503,12.0427,11.9791,11.8473,11.8369,11.8748,11.9496,11.9488,11.9895,12.0674,12.0674,12.1139,12.2032,12.1281,12.1139,0.0,0.0,0.0,0.0,0.0,0.0,0.0,0.0,0.0,0.0,0.0,5.6553,5.6908,0.0,6.063,6.1514,6.2583,6.3702,6.487,6.5001,6.5001,6.5001,6.5001,6.5365,6.6224,6.6275,6.6639,6.7522,6.7549,6.8041,6.9262,6.8976,6.9054,6.9652,6.9704,6.9937,7.0482,7.0768,7.1521,7.261,7.2664,7.2951,7.3468,7.3468,7.3468,7.3468,7.3468,7.3679,7.4018,7.4246,7.4374,7.4271,7.3724,7.3104,7.261,7.261,7.261,7.2634,7.3,7.308,7.3211,7.3758,7.4198,7.4434,7.4378,7.4766,7.5205,7.5205,7.5412,7.6433,7.9921,8.088,8.2438,8.873,9.2487,9.5514,9.8892,10.5361,11.0616,11.1037,11.4492,11.7666,11.8549,11.8321,11.7921,11.7534,11.7817,11.8093,11.8093,11.8804,11.9212,11.8813,11.908,11.9308,11.9308,11.9308,11.9184,11.8728,11.87,11.8293,11.741,11.7838,11.8301,11.8785,11.9184,11.9544,11.9943,11.9943,12.0171,12.0607,11.926,11.8956,0.0,0.0,0.0,0.0,0.0,0.0,0.0,0.0,0.0,0.0,0.0,0.0,0.0,0.0,0.0,5.9419,6.0978,6.2484,6.383,6.3778,6.3726,6.3806,6.4038,6.4506,6.5469,6.5677,6.5912,6.6458,6.651,6.6978,6.8041,6.8093,6.8327,6.8899,6.9522,6.96,6.9184,7.0275,7.1027,7.1443,7.1937,0.0,7.2845,7.2845,7.2845,7.2845,7.2845,7.2869,7.3,7.3,7.3052,7.3025,7.1883,7.1443,7.1441,7.152,7.1649,7.1804,7.2328,7.2508,7.2664,7.3627,7.4018,7.415,7.4454,7.471,0.0,7.5228,7.5337,7.5412,7.6375,7.6398,7.7495,8.2636,8.4818,8.7024,9.17,9.9548,10.573,10.594,11.1908,11.6982,11.7155,11.6499,11.6223,11.6879,11.7107,11.7155,11.7155,11.7334,11.7134,11.6348,11.6403,11.6396,11.6251,11.6403,11.67,11.7355,11.7307,11.7134,11.6927,11.7645,11.8129,11.8301,11.8928,11.9288,11.9459,11.9459,11.9459,11.9412,11.7079,11.6168,0.0,0.0,0.0,0.0,0.0,0.0,0.0,0.0,0.0,0.0,0.0,0.0,0.0,0.0,0.0,0.0,5.9738,6.1445,6.3202,6.2554,6.2063,6.2536,6.3495,6.4194,6.4326,6.4769,6.5289,6.5937,6.5989,6.6224,6.6822,6.6874,0.0,0.0,0.0,6.8821,6.9184,6.9911,7.0276,7.0353,7.0431,7.0483,7.0535,7.0535,7.0535,7.0535,7.0535,7.0795,7.1262,7.1262,7.1521,7.1831,7.0742,7.0353,7.0405,7.0872,7.1312,7.1727,7.1804,0.0,0.0,7.2014,7.2429,7.282,7.2273,7.2845,7.3596,7.3211,7.4091,7.5261,7.5389,7.6139,7.6882,7.7043,8.1503,8.5949,8.6852,9.6337,10.4988,10.5772,11.1001,11.554,11.6251,11.5719,11.5236,11.5318,11.5947,11.6403,11.6403,11.6955,11.7134,11.6348,11.6879,0.0,11.6272,11.6879,11.7334,11.7382,11.6727,11.605,11.534,11.547,11.5795,11.6506,11.663,11.6982,11.7666,11.7666,11.7666,11.759,11.2959,11.1645,0.0,0.0,0.0,0.0,0.0,0.0,0.0,0.0,0.0,0.0,0.0,0.0,0.0,0.0,0.0,0.0,5.732,5.8566,5.9746,6.0006,6.0452,6.1266,6.2144,6.2791,6.3131,6.365,6.4246,6.4845,6.4922,6.5261,6.6172,6.6224,6.6483,6.7055,6.7314,6.7497,6.7731,6.8379,6.8716,6.8742,6.9288,6.96,6.9652,6.9989,7.0172,7.0172,7.0172,7.0301,7.0509,7.0509,7.0587,7.069,0.0,0.0,0.0,0.0,6.9652,6.9807,7.017,7.0248,7.0378,7.1053,7.1469,7.1704,7.17,7.2064,7.2481,7.2664,7.3238,7.3911,7.4614,7.5138,7.5601,7.5931,7.8102,8.0169,8.072,9.0267,9.8013,9.5367,10.5364,0.0,10.9648,11.1569,11.3723,11.425,11.458,11.4981,11.5519,11.5822,11.5719,11.483,11.5057,11.5182,11.4808,11.5057,0.0,0.0,0.0,11.547,11.509,11.458,0.0,0.0,0.0,11.5264,11.458,11.4044,0.0,0.0,11.0784,11.005,0.0,0.0,0.0,0.0,0.0,0.0,0.0,0.0,0.0,0.0,0.0,0.0,0.0,0.0,0.0,0.0,5.5056,5.6157,5.6168,5.7437,5.8506,5.9004,6.0429,6.1364,6.1468,6.2346,6.3074,6.3598,6.365,6.4118,6.5105,6.5313,6.5573,6.5964,6.6303,6.6458,6.6458,6.7055,6.734,6.7417,6.812,6.8509,6.8509,6.8976,6.921,6.921,6.921,6.921,6.921,6.921,6.934,6.9392,6.83,6.8067,6.8457,6.8613,6.8665,6.8743,6.947,6.9651,6.9859,7.0845,7.1158,7.1262,7.1624,7.165,7.1624,7.2066,7.2251,7.2432,7.3263,7.3734,7.415,7.4945,7.536,7.5724,7.6167,8.4584,9.0962,8.7177,9.7964,10.6283,10.1523,10.5618,11.0328,11.2643,11.2982,11.3365,11.4277,11.458,11.4352,11.3437,11.3821,11.4022,11.3691,11.3919,11.4277,11.4629,11.4732,11.4607,11.4379,11.3794,11.3312,11.3057,11.3669,11.324,0.0,0.0,0.0,0.0,0.0,0.0,0.0,0.0,0.0,0.0,0.0,0.0,0.0,0.0,0.0,0.0,0.0,0.0,0.0,0.0,0.0,0.0,0.0,0.0,5.3454,5.5108,5.6126,5.5087,5.8351,6.028,5.9278,6.0682,6.1907,6.2432,6.2432,6.2715,6.341,6.3958,6.4194,6.4246,6.5313,6.5937,6.5937,6.6458,6.6718,6.6718,6.6745,6.6745,6.6745,6.6745,6.677,6.677,6.677,6.677,6.677,6.677,6.7158,6.7729,6.8223,6.8405,6.8457,6.8977,6.9184,6.934,7.0508,7.0898,7.0975,7.152,7.17,7.17,7.17,7.1389,7.095,7.1027,7.1027,7.1027,7.1054,7.1912,7.2743,7.2771,7.3682,7.4486,7.4514,8.0286,8.5412,8.5188,8.933,9.2791,9.2882,9.7968,10.4119,11.0375,11.1289,0.0,11.2507,11.3312,11.3441,11.2686,11.4076,11.4629,11.3816,11.4553,11.4629,11.3816,11.3794,11.3414,11.2686,11.256,11.2177,11.1289,11.1289,11.0936,11.0126,0.0,0.0,0.0,0.0,0.0,0.0,0.0,0.0,0.0,0.0,0.0,0.0,0.0,0.0,0.0,0.0,0.0,0.0,0.0,0.0,0.0,0.0,0.0,0.0,5.3662,5.5046,5.4266,5.6334,5.7424,5.6335,5.8112,5.9546,6.014,6.1231,6.1959,6.219,6.2739,6.2951,6.2951,6.3367,6.3754,6.4242,6.4742,6.5001,6.4977,6.5756,6.6172,6.6172,6.651,6.6641,6.6693,6.7107,6.7288,6.734,6.7678,6.7314,6.6508,6.6664,6.7236,6.7936,6.8144,6.8405,6.8743,6.9132,6.9288,6.9288,6.947,6.9522,6.9522,6.9522,6.9444,6.9444,7.0197,7.0405,7.0509,7.0872,7.1262,7.1521,7.1521,7.186,7.2328,7.3107,7.8236,8.1796,7.8677,8.185,8.6364,9.0522,9.566,10.1557,10.8488,10.9087,10.9391,11.1391,11.1896,11.215,11.2507,11.3012,11.324,11.2963,11.3218,11.324,11.2963,11.2405,11.2226,11.2507,11.0886,11.0378,11.1137,10.9543,10.8556,10.8354,0.0,0.0,0.0,0.0,0.0,0.0,0.0,0.0,0.0,0.0,0.0,0.0,0.0,0.0,0.0,0.0,0.0,0.0,0.0,0.0,0.0,0.0,0.0,0.0,0.0,0.0,5.3051,5.4641,0.0,5.4307,5.5462,5.6584,5.7177,5.8216,5.9204,6.0036,6.0585,6.1162,6.1734,6.2172,6.2611,6.3022,6.3594,6.3958,6.4118,6.4897,6.5365,6.5573,6.5887,6.6043,6.6095,6.6508,6.6664,6.6664,6.708,6.63,6.4974,6.4974,6.5182,6.557,6.6011,6.635,6.6664,6.7055,6.747,6.7782,6.7782,6.7782,6.7782,6.7599,6.7236,6.708,6.8015,6.8483,6.882,6.9574,7.0223,7.0665,7.0665,7.095,7.1443,7.2172,7.5326,7.6966,7.3585,7.5379,7.9909,8.7703,9.1745,9.689,10.5998,10.5291,10.5181,10.931,10.8432,10.8461,11.1309,11.1873,11.2203,11.2507,11.2279,11.1976,11.1672,11.1114,11.0784,11.0734,10.9391,10.8606,10.8531,10.6683,10.5368,0.0,0.0,0.0,0.0,0.0,0.0,0.0,0.0,0.0,0.0,0.0,0.0,0.0,0.0,0.0,0.0,0.0,0.0,0.0,0.0,0.0,0.0,0.0,0.0,0.0,0.0,0.0,5.1388,5.3142,0.0,0.0,0.0,0.0,5.3674,5.3758,5.4797,5.7021,5.7632,5.8648,6.0361,6.1474,6.2172,6.2224,6.2918,6.349,6.3986,6.4038,6.4326,6.4821,6.4797,6.4849,6.4849,6.4849,6.4901,6.4873,6.4745,6.4118,6.3225,6.315,6.245,6.1618,6.2734,6.3173,6.3358,6.4406,6.5524,6.6433,6.651,6.651,6.6406,6.5885,6.4922,0.0,0.0,6.5237,6.6013,6.7209,6.8768,7.0016,7.0068,7.0846,7.1597,7.1597,7.1597,7.1285,7.0276,7.0068,7.3409,8.3932,0.0,9.0157,10.2228,9.9803,9.9022,10.5669,10.2685,10.2435,10.8786,11.0138,11.1026,11.2203,11.1493,11.0632,10.9974,10.9823,10.9063,10.7569,10.8075,10.6886,10.3796,10.2735,0.0,0.0,0.0,0.0,0.0,0.0,0.0,0.0,0.0,0.0,0.0,0.0,0.0,0.0,0.0,0.0,0.0,0.0,0.0,0.0,0.0,0.0,0.0,0.0,0.0,0.0,4.7475,4.8515,4.9328,4.9551,4.9325,0.0,0.0,0.0,0.0,0.0,0.0,5.4182,5.4661,5.5555,5.6853,5.7558,5.8566,5.9954,6.0897,6.1422,6.1578,6.2432,6.2899,6.3055,6.357,6.375,6.3802,6.4194,6.4326,6.4222,6.246,6.1318,6.0711,5.9805,5.9546,5.9746,6.0081,6.0422,6.0948,6.2536,6.3239,6.3575,6.4038,6.4218,6.401,6.2998,0.0,0.0,0.0,0.0,6.373,6.5805,6.6951,6.7756,6.8665,6.908,6.9366,6.9755,6.9859,6.9651,6.9002,6.856,7.0463,7.7323,8.1111,0.0,9.0026,9.2597,9.3855,9.362,9.2909,9.4817,10.1265,10.2051,10.4001,10.84,10.8076,10.7746,10.8126,10.6962,10.6658,10.7417,10.5292,10.3622,10.2811,0.0,0.0,0.0,0.0,0.0,0.0,0.0,0.0,0.0,0.0,0.0,0.0,0.0,0.0,0.0,0.0,0.0,0.0,0.0,0.0,0.0,0.0,0.0,0.0,0.0,0.0,0.0,4.5638,4.6867,4.7579,4.7369,4.7006,0.0,0.0,0.0,0.0,0.0,0.0,0.0,0.0,0.0,5.3997,5.4859,5.5763,5.6761,5.8099,5.8908,5.9189,6.0377,6.1208,6.163,6.204,6.2323,6.2629,6.3154,6.2663,6.1393,5.9813,5.861,5.7541,0.0,0.0,0.0,0.0,5.7428,5.7853,5.9241,5.9939,6.0221,6.0273,0.0,0.0,0.0,0.0,0.0,0.0,0.0,6.2455,6.4298,6.5912,6.7264,6.8197,6.8613,6.8899,6.947,6.7445,6.5447,6.5469,6.5001,6.6455,7.2401,7.7334,0.0,0.0,0.0,8.8508,8.7959,8.6285,8.8589,9.7685,9.5945,9.6751,10.2981,10.2384,10.2115,10.2925,10.3945,10.4709,10.5216,10.3115,10.1088,0.0,0.0,0.0,0.0,0.0,0.0,0.0,0.0,0.0,0.0,0.0,0.0,0.0,0.0,0.0,0.0,0.0,0.0,0.0,0.0,0.0,0.0,0.0,0.0,0.0,0.0,0.0,0.0,0.0,4.6123,4.5863,0.0,0.0,0.0,0.0,0.0,0.0,0.0,0.0,0.0,0.0,0.0,0.0,0.0,5.3187,5.3394,5.5067,5.623,5.6813,5.803,5.91,5.9864,5.9946,6.0384,6.1179,6.1237,0.0,5.7528,5.6822,0.0,0.0,0.0,0.0,0.0,0.0,0.0,0.0,0.0,0.0,0.0,0.0,0.0,0.0,0.0,0.0,0.0,0.0,0.0,0.0,0.0,0.0,6.672,6.7237,6.7964,6.8587,6.8742,6.4458,6.0695,6.1075,6.0718,6.2088,0.0,0.0,0.0,0.0,0.0,0.0,8.4073,8.0688,8.2545,9.4232,9.0172,8.9358,9.6239,9.5457,9.5221,9.6797,10.0323,10.2281,10.2079,10.1368,0.0,0.0,0.0,0.0,0.0,0.0,0.0,0.0,0.0,0.0,0.0,0.0,0.0,0.0,0.0,0.0,0.0,0.0,0.0,0.0,0.0,0.0,0.0,0.0,0.0,0.0,0.0,0.0,0.0,0.0,0.0,0.0,0.0,0.0,0.0,0.0,0.0,0.0,0.0,0.0,0.0,0.0,0.0,0.0,0.0,0.0,0.0,0.0,0.0,0.0,5.5441,5.6085,5.5867,5.6251,5.732,5.8618,5.6303,5.5056,5.4485,5.2999,0.0,0.0,0.0,0.0,0.0,0.0,0.0,0.0,0.0,0.0,0.0,0.0,0.0,0.0,0.0,0.0,0.0,0.0,0.0,0.0,0.0,0.0,6.1843,6.197,6.3551,6.443,6.2144,0.0,0.0,0.0,0.0,0.0,0.0,0.0,0.0,0.0,0.0,0.0,7.1904,7.1706,7.4557,8.1783,8.103,8.2354,8.8229,8.8286,8.9965,9.483,9.4941,9.6448,0.0,0.0,0.0,0.0,0.0,0.0,0.0,0.0,0.0,0.0,0.0,0.0,0.0,0.0,0.0,0.0,0.0,0.0,0.0,0.0,0.0,0.0,0.0,0.0,0.0,0.0,0.0,0.0,0.0,0.0,0.0,0.0,0.0,0.0,0.0,0.0,0.0,0.0,0.0,0.0,0.0,0.0,0.0,0.0,0.0,0.0,0.0,0.0,0.0,0.0,0.0,0.0,0.0,0.0,0.0,0.0,0.0,0.0,5.2459,5.0467,0.0,0.0,0.0,0.0,0.0,0.0,0.0,0.0,0.0,0.0,0.0,0.0,0.0,0.0,0.0,0.0,0.0,0.0,0.0,0.0,0.0,0.0,0.0,0.0,0.0,0.0,0.0,0.0,0.0,0.0,0.0,0.0,0.0,0.0,0.0,0.0,0.0,0.0,0.0,0.0,6.7053,6.8171,7.1704,7.8106,7.5458,7.5571,8.1459,8.1457,8.3482,8.8877,9.0475,0.0,0.0,0.0,0.0,0.0,0.0,0.0,0.0,0.0,0.0,0.0,0.0,0.0,0.0,0.0,0.0,0.0,0.0,0.0,0.0,0.0,0.0,0.0,0.0,0.0,0.0,0.0,0.0,0.0,0.0,0.0,0.0,0.0,0.0,0.0,0.0,0.0,0.0,0.0,0.0,0.0,0.0,0.0,0.0,0.0,0.0,0.0,0.0,0.0,0.0,0.0,0.0,0.0,0.0,0.0,0.0,0.0,0.0,0.0,4.8772,4.64,0.0,0.0,0.0,0.0,0.0,0.0,0.0,0.0,0.0,0.0,0.0,0.0,0.0,0.0,0.0,0.0,0.0,0.0,0.0,0.0,0.0,0.0,0.0,0.0,0.0,0.0,0.0,0.0,0.0,0.0,0.0,0.0,0.0,0.0,0.0,0.0,0.0,0.0,0.0,0.0,6.5097,6.7003,7.0598,7.5824,7.1685,7.0488,7.518,7.515,7.7309,8.3024,8.5818,0.0,0.0,0.0,0.0,0.0,0.0,0.0,0.0,0.0,0.0,0.0,0.0,0.0,0.0,0.0,0.0,0.0,0.0,0.0,0.0,0.0,0.0,0.0,0.0,0.0,0.0,0.0,0.0,0.0,0.0,0.0,0.0,0.0,0.0,0.0,0.0,0.0,0.0,0.0,0.0,0.0,0.0,0.0,0.0,0.0,0.0,0.0,0.0,0.0,0.0,0.0,0.0,0.0,0.0,0.0,0.0,0.0,0.0,0.0,0.0,0.0,0.0,0.0,0.0,0.0,0.0,0.0,0.0,0.0,0.0,0.0,0.0,0.0,0.0,0.0,0.0,0.0,0.0,0.0,0.0,0.0,0.0,0.0,0.0,0.0,0.0,0.0,0.0,0.0,0.0,0.0,0.0,0.0,0.0,0.0,0.0,0.0,0.0,0.0,0.0,0.0,6.4086,6.7107,6.9392,6.9962,6.9495,6.9157,6.9253,6.962,7.2972,8.0339,0.0,0.0,0.0,0.0,0.0,0.0,0.0,0.0,0.0,0.0,0.0,0.0,0.0,0.0,0.0,0.0,0.0,0.0,0.0,0.0,0.0,0.0,0.0,0.0,0.0,0.0,0.0,0.0,0.0,0.0,0.0,0.0,0.0,0.0,0.0,0.0,0.0,0.0,0.0,0.0,0.0,0.0,0.0,0.0,0.0,0.0,0.0,0.0,0.0,0.0,0.0,0.0,0.0,0.0,0.0,0.0,0.0,0.0,0.0,0.0,0.0,0.0,0.0,0.0,0.0,0.0,0.0,0.0,0.0,0.0,0.0,0.0,0.0,0.0,0.0,0.0,0.0,0.0,0.0,0.0,0.0,0.0,0.0,0.0,0.0,0.0,0.0,0.0,0.0,0.0,0.0,0.0,0.0,0.0,0.0,0.0,0.0,0.0,0.0,0.0,0.0,0.0,6.1861,6.5368,6.786,6.8223,6.8561,6.8509,6.7963,6.8119,7.1177,7.8088,0.0,0.0,0.0,0.0,0.0,0.0,0.0,0.0,0.0,0.0,0.0,0.0,0.0,0.0,0.0,0.0,0.0,0.0,0.0,0.0,0.0,0.0,0.0,0.0,0.0,0.0,0.0,0.0,0.0,0.0,0.0,0.0,0.0,0.0,0.0,0.0,0.0,0.0,0.0,0.0,0.0,0.0,0.0,0.0,0.0,0.0,0.0,0.0,0.0,0.0,0.0,0.0,0.0,0.0,0.0,0.0,0.0,0.0,0.0,0.0,0.0,0.0,0.0,0.0,0.0,0.0,0.0,0.0,0.0,0.0,0.0,0.0,0.0,0.0,0.0,0.0,0.0,0.0,0.0,0.0,0.0,0.0,0.0,0.0,0.0,0.0,0.0,0.0,0.0,0.0,0.0,0.0,0.0,0.0,0.0,0.0,0.0,0.0,0.0,0.0,0.0,0.0,6.028,6.407,6.6822,6.7288,6.7859,6.7911,6.7209,6.7261,6.9834,7.5761,0.0,0.0,0.0,0.0,0.0,0.0,0.0,0.0,0.0,0.0,0.0,0.0,0.0,0.0,0.0,0.0,0.0,0.0,0.0,0.0,0.0,0.0,0.0,0.0,0.0,0.0,0.0,0.0,0.0,0.0,0.0,0.0,0.0,0.0,0.0,0.0,0.0,0.0,0.0,0.0,0.0,0.0,0.0,0.0,0.0,0.0,0.0,0.0,0.0,0.0,0.0,0.0,0.0,0.0,0.0,0.0,0.0,0.0,0.0,0.0,0.0,0.0,0.0,0.0,0.0,0.0,0.0,0.0,0.0,0.0,0.0,0.0,0.0,0.0,0.0,0.0,0.0,0.0,0.0,0.0,0.0,0.0,0.0,0.0,0.0,0.0,0.0,0.0,0.0,0.0,0.0,0.0,0.0,0.0,0.0,0.0,0.0,0.0,0.0,0.0,0.0,0.0,5.9753,6.3862,6.6641,6.6718,6.7288,6.7157,6.5989,6.6354,6.8729,0.0,0.0,0.0,0.0,0.0,0.0,0.0,0.0,0.0,0.0,0.0,0.0,0.0,0.0,0.0,0.0,0.0,0.0,0.0,0.0,0.0,0.0,0.0,0.0,0.0,0.0,0.0,0.0,0.0,0.0,0.0,0.0,0.0,0.0,0.0,0.0,0.0,0.0,0.0,0.0,0.0,0.0,0.0,0.0,0.0,0.0,0.0,0.0,0.0,0.0,0.0,0.0,0.0,0.0,0.0,0.0,0.0,0.0,0.0,0.0,0.0,0.0,0.0,0.0,0.0,0.0,0.0,0.0,0.0,0.0,0.0,0.0,0.0,0.0,0.0,0.0,0.0,0.0,0.0,0.0,0.0,0.0,0.0,0.0,0.0,0.0,0.0,0.0,0.0,0.0,0.0,0.0,0.0,0.0,0.0,0.0,0.0,0.0,0.0,0.0,0.0,0.0,0.0,5.9122,6.1936,6.4382,0.0,6.6352,6.6092,6.5264,6.5029,6.566,6.7337,0.0,0.0,0.0,0.0,0.0,0.0,0.0,0.0,0.0,0.0,0.0,0.0,0.0,0.0,0.0,0.0,0.0,0.0,0.0,0.0,0.0,0.0,0.0,0.0,0.0,0.0,0.0,0.0,0.0,0.0,0.0,0.0,0.0,0.0,0.0,0.0,0.0,0.0,0.0,0.0,0.0,0.0,0.0,0.0,0.0,0.0,0.0,0.0,0.0,0.0,0.0,0.0,0.0,0.0,0.0,0.0,0.0,0.0,0.0,0.0,0.0,0.0,0.0,0.0,0.0,0.0,0.0,0.0,0.0,0.0,0.0,0.0,0.0,0.0,0.0,0.0,0.0,0.0,0.0,0.0,0.0,0.0,0.0,0.0,0.0,0.0,0.0,0.0,0.0,0.0,0.0,0.0,0.0,0.0,0.0,0.0,0.0,0.0,0.0,0.0,0.0,0.0,0.0,6.0607,6.2819,0.0,6.4922,6.469,6.4042,6.3678,6.4318,6.6272,0.0,0.0,0.0,0.0,0.0,0.0,0.0,0.0,0.0,0.0,0.0,0.0,0.0,0.0,0.0,0.0,0.0,0.0,0.0,0.0,0.0,0.0,0.0,0.0,0.0,0.0,0.0,0.0,0.0,0.0,0.0,0.0,0.0,0.0,0.0,0.0,0.0,0.0,0.0,0.0,0.0,0.0,0.0,0.0,0.0,0.0,0.0,0.0,0.0,0.0,0.0,0.0,0.0,0.0,0.0,0.0,0.0,0.0,0.0,0.0,0.0,0.0,0.0,0.0,0.0,0.0,0.0,0.0,0.0,0.0,0.0,0.0,0.0,0.0,0.0,0.0,0.0,0.0,0.0,0.0,0.0,0.0,0.0,0.0,0.0,0.0,0.0,0.0,0.0,0.0,0.0,0.0,0.0,0.0,0.0,0.0,0.0,0.0,0.0,0.0,0.0,0.0,0.0,5.9776,6.193,6.3202,6.3306,6.3022,6.238,6.2224,6.3985,6.8298,6.8248,0.0,0.0,0.0,0.0,0.0,0.0,0.0,0.0,0.0,0.0,0.0,0.0,0.0,0.0,0.0,0.0,0.0,0.0,0.0,0.0,0.0,0.0,0.0,0.0,0.0,0.0,0.0,0.0,0.0,0.0,0.0,0.0,0.0,0.0,0.0,0.0,0.0,0.0,0.0,0.0,0.0,0.0,0.0,0.0,0.0,0.0,0.0,0.0,0.0,0.0,0.0,0.0,0.0,0.0,0.0,0.0,0.0,0.0,0.0,0.0,0.0,0.0,0.0,0.0,0.0,0.0,0.0,0.0,0.0,0.0,0.0,0.0,0.0,0.0,0.0,0.0,0.0,0.0,0.0,0.0,0.0,0.0,0.0,0.0,0.0,0.0,0.0,0.0,0.0,0.0,0.0,0.0,0.0,0.0,0.0,0.0,0.0,0.0,0.0,0.0,0.0,0.0,5.9278,6.063,6.3098,6.2577,6.1982,6.1803,6.0607,5.9593,5.8943,6.3545,0.0,0.0,0.0,0.0,0.0,0.0,0.0,0.0,0.0,0.0,0.0,0.0,0.0,0.0,0.0,0.0,0.0,0.0,0.0,0.0,0.0,0.0,0.0,0.0,0.0,0.0,0.0,0.0,0.0,0.0,0.0,0.0,0.0,0.0,0.0,0.0,0.0,0.0,0.0,0.0,0.0,0.0,0.0,0.0,0.0,0.0,0.0,0.0,0.0,0.0,0.0,0.0,0.0,0.0,0.0,0.0,0.0,0.0,0.0,0.0,0.0,0.0,0.0,0.0,0.0,0.0,0.0,0.0,0.0,0.0,0.0,0.0,0.0,0.0,0.0,0.0,0.0,0.0,0.0,0.0,0.0,0.0,0.0,0.0,0.0,0.0,0.0,0.0,0.0,0.0,0.0,0.0,0.0,0.0,0.0,0.0,0.0,0.0,0.0,0.0,0.0,0.0,5.6657,5.8476,6.1121,6.0838,6.0474,6.0474,5.9122,5.8179,5.7947,6.2221,0.0,0.0,0.0,0.0,0.0,0.0,0.0,0.0,0.0,0.0,0.0,0.0,0.0,0.0,0.0,0.0,0.0,0.0,0.0,0.0,0.0,0.0,0.0,0.0,0.0,0.0,0.0,0.0,0.0,0.0,0.0,0.0,0.0,0.0,0.0,0.0,0.0,0.0,0.0,0.0,0.0,0.0,0.0,0.0,0.0,0.0,0.0,0.0,0.0,0.0,0.0,0.0,0.0,0.0,0.0,0.0,0.0,0.0,0.0,0.0,0.0,0.0,0.0,0.0,0.0,0.0,0.0,0.0,0.0,0.0,0.0,0.0,0.0,0.0,0.0,0.0,0.0,0.0,0.0,0.0,0.0,0.0,0.0,0.0,0.0,0.0,0.0,0.0,0.0,0.0,0.0,0.0,0.0,0.0,0.0,0.0,0.0,0.0,0.0,0.0,0.0,0.0,0.0,5.6459,5.8476,5.8758,5.881,5.881,5.7749,5.8071,6.0378,0.0,0.0,0.0,0.0,0.0,0.0,0.0,0.0,0.0,0.0,0.0,0.0,0.0,0.0,0.0,0.0,0.0,0.0,0.0,0.0,0.0,0.0,0.0,0.0,0.0,0.0,0.0,0.0,0.0,0.0,0.0,0.0,0.0,0.0,0.0,0.0,0.0,0.0,0.0,0.0,0.0,0.0,0.0,0.0,0.0,0.0,0.0,0.0,0.0,0.0,0.0,0.0,0.0,0.0,0.0,0.0,0.0,0.0,0.0,0.0,0.0,0.0,0.0,0.0,0.0,0.0,0.0,0.0,0.0,0.0,0.0,0.0,0.0,0.0,0.0,0.0,0.0,0.0,0.0,0.0,0.0,0.0,0.0,0.0,0.0,0.0,0.0,0.0,0.0,0.0,0.0,0.0,0.0,0.0,0.0,0.0,0.0,0.0,0.0,0.0,0.0,0.0,0.0,0.0,5.6395,5.678,5.729,5.7593,5.7593,5.6532,5.7041,5.9787,0.0,0.0,0.0,0.0,0.0,0.0,0.0,0.0,0.0,0.0,0.0,0.0,0.0,0.0]}]]]